<?xml version="1.0" encoding="UTF-8" standalone="no" ?>
<gpx xmlns="http://www.topografix.com/GPX/1/1" xmlns:xsi="http://www.w3.org/2001/XMLSchema-instance" xsi:schemaLocation="http://www.topografix.com/GPX/1/1 http://www.topografix.com/GPX/1/1/gpx.xsd" version="1.1" creator="VisuGPX - https://www.visugpx.com">
  <metadata>
    <name>Mère et fille avec Ténébra et Néo</name>
    <desc><![CDATA[belle balade d\'une quinzaine de km]]></desc>
  </metadata>
  <trk>
    <name><![CDATA[avec Ténébra et Néo]]></name>
    <trkseg>
      <trkpt lat="48.70722" lon="1.75445">
        <ele>171.19999694824</ele>
        <time>2014-04-23T07:48:41.000Z</time>
      </trkpt>
      <trkpt lat="48.70726" lon="1.75434">
        <ele>171.19999694824</ele>
        <time>2014-04-23T07:48:47.000Z</time>
      </trkpt>
      <trkpt lat="48.70734" lon="1.75417">
        <ele>171.39999389648</ele>
        <time>2014-04-23T07:48:57.000Z</time>
      </trkpt>
      <trkpt lat="48.70741" lon="1.754">
        <ele>171.60000610352</ele>
        <time>2014-04-23T07:49:07.000Z</time>
      </trkpt>
      <trkpt lat="48.70749" lon="1.75379">
        <ele>171.80000305176</ele>
        <time>2014-04-23T07:49:19.000Z</time>
      </trkpt>
      <trkpt lat="48.70751" lon="1.75373">
        <ele>171.80000305176</ele>
        <time>2014-04-23T07:49:24.000Z</time>
      </trkpt>
      <trkpt lat="48.70754" lon="1.75366">
        <ele>171.80000305176</ele>
        <time>2014-04-23T07:49:28.000Z</time>
      </trkpt>
      <trkpt lat="48.70759" lon="1.75354">
        <ele>171.80000305176</ele>
        <time>2014-04-23T07:49:35.000Z</time>
      </trkpt>
      <trkpt lat="48.70766" lon="1.75335">
        <ele>172</ele>
        <time>2014-04-23T07:49:46.000Z</time>
      </trkpt>
      <trkpt lat="48.70774" lon="1.75315">
        <ele>172.19999694824</ele>
        <time>2014-04-23T07:49:58.000Z</time>
      </trkpt>
      <trkpt lat="48.70781" lon="1.75297">
        <ele>172.60000610352</ele>
        <time>2014-04-23T07:50:09.000Z</time>
      </trkpt>
      <trkpt lat="48.70788" lon="1.75279">
        <ele>173</ele>
        <time>2014-04-23T07:50:20.000Z</time>
      </trkpt>
      <trkpt lat="48.70796" lon="1.75261">
        <ele>173.39999389648</ele>
        <time>2014-04-23T07:50:31.000Z</time>
      </trkpt>
      <trkpt lat="48.70804" lon="1.75243">
        <ele>173.39999389648</ele>
        <time>2014-04-23T07:50:42.000Z</time>
      </trkpt>
      <trkpt lat="48.70811" lon="1.75227">
        <ele>173.39999389648</ele>
        <time>2014-04-23T07:50:52.000Z</time>
      </trkpt>
      <trkpt lat="48.70818" lon="1.75209">
        <ele>173.60000610352</ele>
        <time>2014-04-23T07:51:03.000Z</time>
      </trkpt>
      <trkpt lat="48.70823" lon="1.752">
        <ele>173.60000610352</ele>
        <time>2014-04-23T07:51:09.000Z</time>
      </trkpt>
      <trkpt lat="48.70824" lon="1.75194">
        <ele>173.39999389648</ele>
        <time>2014-04-23T07:51:14.000Z</time>
      </trkpt>
      <trkpt lat="48.70825" lon="1.75192">
        <ele>173.39999389648</ele>
        <time>2014-04-23T07:51:15.000Z</time>
      </trkpt>
      <trkpt lat="48.70828" lon="1.75186">
        <ele>173.39999389648</ele>
        <time>2014-04-23T07:51:20.000Z</time>
      </trkpt>
      <trkpt lat="48.70832" lon="1.75178">
        <ele>173.19999694824</ele>
        <time>2014-04-23T07:51:25.000Z</time>
      </trkpt>
      <trkpt lat="48.70836" lon="1.75169">
        <ele>173.19999694824</ele>
        <time>2014-04-23T07:51:31.000Z</time>
      </trkpt>
      <trkpt lat="48.70845" lon="1.7515">
        <ele>173.19999694824</ele>
        <time>2014-04-23T07:51:42.000Z</time>
      </trkpt>
      <trkpt lat="48.70853" lon="1.75131">
        <ele>173.19999694824</ele>
        <time>2014-04-23T07:51:53.000Z</time>
      </trkpt>
      <trkpt lat="48.7086" lon="1.75116">
        <ele>173.60000610352</ele>
        <time>2014-04-23T07:52:02.000Z</time>
      </trkpt>
      <trkpt lat="48.70865" lon="1.75102">
        <ele>173.80000305176</ele>
        <time>2014-04-23T07:52:10.000Z</time>
      </trkpt>
      <trkpt lat="48.70871" lon="1.75089">
        <ele>174.19999694824</ele>
        <time>2014-04-23T07:52:18.000Z</time>
      </trkpt>
      <trkpt lat="48.70879" lon="1.75072">
        <ele>174</ele>
        <time>2014-04-23T07:52:28.000Z</time>
      </trkpt>
      <trkpt lat="48.70887" lon="1.75056">
        <ele>174.19999694824</ele>
        <time>2014-04-23T07:52:38.000Z</time>
      </trkpt>
      <trkpt lat="48.70894" lon="1.75043">
        <ele>174.39999389648</ele>
        <time>2014-04-23T07:52:46.000Z</time>
      </trkpt>
      <trkpt lat="48.70902" lon="1.75025">
        <ele>174.60000610352</ele>
        <time>2014-04-23T07:52:57.000Z</time>
      </trkpt>
      <trkpt lat="48.70909" lon="1.75013">
        <ele>174.60000610352</ele>
        <time>2014-04-23T07:53:05.000Z</time>
      </trkpt>
      <trkpt lat="48.70916" lon="1.74996">
        <ele>174.80000305176</ele>
        <time>2014-04-23T07:53:15.000Z</time>
      </trkpt>
      <trkpt lat="48.70923" lon="1.74982">
        <ele>175</ele>
        <time>2014-04-23T07:53:24.000Z</time>
      </trkpt>
      <trkpt lat="48.70929" lon="1.74967">
        <ele>175</ele>
        <time>2014-04-23T07:53:33.000Z</time>
      </trkpt>
      <trkpt lat="48.70935" lon="1.74957">
        <ele>175</ele>
        <time>2014-04-23T07:53:40.000Z</time>
      </trkpt>
      <trkpt lat="48.70943" lon="1.74945">
        <ele>175.19999694824</ele>
        <time>2014-04-23T07:53:49.000Z</time>
      </trkpt>
      <trkpt lat="48.70947" lon="1.74937">
        <ele>175.39999389648</ele>
        <time>2014-04-23T07:53:55.000Z</time>
      </trkpt>
      <trkpt lat="48.70953" lon="1.74927">
        <ele>175.60000610352</ele>
        <time>2014-04-23T07:54:03.000Z</time>
      </trkpt>
      <trkpt lat="48.70956" lon="1.74924">
        <ele>175.60000610352</ele>
        <time>2014-04-23T07:54:06.000Z</time>
      </trkpt>
      <trkpt lat="48.70961" lon="1.74919">
        <ele>176</ele>
        <time>2014-04-23T07:54:12.000Z</time>
      </trkpt>
      <trkpt lat="48.70967" lon="1.74912">
        <ele>176.39999389648</ele>
        <time>2014-04-23T07:54:18.000Z</time>
      </trkpt>
      <trkpt lat="48.70971" lon="1.74905">
        <ele>176.60000610352</ele>
        <time>2014-04-23T07:54:23.000Z</time>
      </trkpt>
      <trkpt lat="48.70975" lon="1.749">
        <ele>177</ele>
        <time>2014-04-23T07:54:27.000Z</time>
      </trkpt>
      <trkpt lat="48.70984" lon="1.7489">
        <ele>177.80000305176</ele>
        <time>2014-04-23T07:54:35.000Z</time>
      </trkpt>
      <trkpt lat="48.70994" lon="1.74878">
        <ele>178.60000610352</ele>
        <time>2014-04-23T07:54:44.000Z</time>
      </trkpt>
      <trkpt lat="48.70998" lon="1.74869">
        <ele>178.80000305176</ele>
        <time>2014-04-23T07:54:50.000Z</time>
      </trkpt>
      <trkpt lat="48.71003" lon="1.74861">
        <ele>178.80000305176</ele>
        <time>2014-04-23T07:54:56.000Z</time>
      </trkpt>
      <trkpt lat="48.71009" lon="1.74853">
        <ele>178.80000305176</ele>
        <time>2014-04-23T07:55:02.000Z</time>
      </trkpt>
      <trkpt lat="48.71008" lon="1.7484">
        <ele>178.80000305176</ele>
        <time>2014-04-23T07:55:09.000Z</time>
      </trkpt>
      <trkpt lat="48.71008" lon="1.74838">
        <ele>178.80000305176</ele>
        <time>2014-04-23T07:55:10.000Z</time>
      </trkpt>
      <trkpt lat="48.71004" lon="1.7483">
        <ele>178.80000305176</ele>
        <time>2014-04-23T07:55:16.000Z</time>
      </trkpt>
      <trkpt lat="48.71004" lon="1.74829">
        <ele>178.80000305176</ele>
        <time>2014-04-23T07:55:17.000Z</time>
      </trkpt>
      <trkpt lat="48.71002" lon="1.74827">
        <ele>178.80000305176</ele>
        <time>2014-04-23T07:55:20.000Z</time>
      </trkpt>
      <trkpt lat="48.70996" lon="1.7482">
        <ele>178.80000305176</ele>
        <time>2014-04-23T07:55:26.000Z</time>
      </trkpt>
      <trkpt lat="48.70991" lon="1.74814">
        <ele>178.60000610352</ele>
        <time>2014-04-23T07:55:31.000Z</time>
      </trkpt>
      <trkpt lat="48.70983" lon="1.74805">
        <ele>178.60000610352</ele>
        <time>2014-04-23T07:55:38.000Z</time>
      </trkpt>
      <trkpt lat="48.70979" lon="1.74802">
        <ele>178.60000610352</ele>
        <time>2014-04-23T07:55:42.000Z</time>
      </trkpt>
      <trkpt lat="48.70973" lon="1.74796">
        <ele>178.39999389648</ele>
        <time>2014-04-23T07:55:48.000Z</time>
      </trkpt>
      <trkpt lat="48.70968" lon="1.7479">
        <ele>178.39999389648</ele>
        <time>2014-04-23T07:55:53.000Z</time>
      </trkpt>
      <trkpt lat="48.70961" lon="1.74778">
        <ele>178.19999694824</ele>
        <time>2014-04-23T07:56:00.000Z</time>
      </trkpt>
      <trkpt lat="48.70959" lon="1.74774">
        <ele>178.19999694824</ele>
        <time>2014-04-23T07:56:02.000Z</time>
      </trkpt>
      <trkpt lat="48.70957" lon="1.74771">
        <ele>178.19999694824</ele>
        <time>2014-04-23T07:56:04.000Z</time>
      </trkpt>
      <trkpt lat="48.7095" lon="1.74758">
        <ele>178.19999694824</ele>
        <time>2014-04-23T07:56:12.000Z</time>
      </trkpt>
      <trkpt lat="48.70942" lon="1.74746">
        <ele>178</ele>
        <time>2014-04-23T07:56:20.000Z</time>
      </trkpt>
      <trkpt lat="48.70932" lon="1.74735">
        <ele>178</ele>
        <time>2014-04-23T07:56:28.000Z</time>
      </trkpt>
      <trkpt lat="48.70928" lon="1.74729">
        <ele>177.80000305176</ele>
        <time>2014-04-23T07:56:32.000Z</time>
      </trkpt>
      <trkpt lat="48.70922" lon="1.74718">
        <ele>177.60000610352</ele>
        <time>2014-04-23T07:56:38.000Z</time>
      </trkpt>
      <trkpt lat="48.70916" lon="1.74712">
        <ele>177.39999389648</ele>
        <time>2014-04-23T07:56:43.000Z</time>
      </trkpt>
      <trkpt lat="48.70912" lon="1.74707">
        <ele>177.19999694824</ele>
        <time>2014-04-23T07:56:47.000Z</time>
      </trkpt>
      <trkpt lat="48.70905" lon="1.74701">
        <ele>177.19999694824</ele>
        <time>2014-04-23T07:56:53.000Z</time>
      </trkpt>
      <trkpt lat="48.70905" lon="1.747">
        <ele>177</ele>
        <time>2014-04-23T07:56:54.000Z</time>
      </trkpt>
      <trkpt lat="48.70898" lon="1.74688">
        <ele>176.80000305176</ele>
        <time>2014-04-23T07:57:01.000Z</time>
      </trkpt>
      <trkpt lat="48.70891" lon="1.74679">
        <ele>176.60000610352</ele>
        <time>2014-04-23T07:57:08.000Z</time>
      </trkpt>
      <trkpt lat="48.70887" lon="1.74671">
        <ele>176.39999389648</ele>
        <time>2014-04-23T07:57:13.000Z</time>
      </trkpt>
      <trkpt lat="48.70879" lon="1.74665">
        <ele>176.19999694824</ele>
        <time>2014-04-23T07:57:19.000Z</time>
      </trkpt>
      <trkpt lat="48.70876" lon="1.74659">
        <ele>176.19999694824</ele>
        <time>2014-04-23T07:57:23.000Z</time>
      </trkpt>
      <trkpt lat="48.70875" lon="1.74658">
        <ele>176</ele>
        <time>2014-04-23T07:57:24.000Z</time>
      </trkpt>
      <trkpt lat="48.70867" lon="1.74645">
        <ele>176</ele>
        <time>2014-04-23T07:57:33.000Z</time>
      </trkpt>
      <trkpt lat="48.70861" lon="1.74635">
        <ele>176</ele>
        <time>2014-04-23T07:57:40.000Z</time>
      </trkpt>
      <trkpt lat="48.70857" lon="1.74627">
        <ele>176</ele>
        <time>2014-04-23T07:57:45.000Z</time>
      </trkpt>
      <trkpt lat="48.70855" lon="1.74624">
        <ele>176</ele>
        <time>2014-04-23T07:57:47.000Z</time>
      </trkpt>
      <trkpt lat="48.7085" lon="1.74616">
        <ele>176</ele>
        <time>2014-04-23T07:57:52.000Z</time>
      </trkpt>
      <trkpt lat="48.70849" lon="1.74615">
        <ele>176</ele>
        <time>2014-04-23T07:57:53.000Z</time>
      </trkpt>
      <trkpt lat="48.70841" lon="1.74605">
        <ele>176.19999694824</ele>
        <time>2014-04-23T07:58:00.000Z</time>
      </trkpt>
      <trkpt lat="48.70838" lon="1.74602">
        <ele>176.19999694824</ele>
        <time>2014-04-23T07:58:03.000Z</time>
      </trkpt>
      <trkpt lat="48.70829" lon="1.74589">
        <ele>176.19999694824</ele>
        <time>2014-04-23T07:58:12.000Z</time>
      </trkpt>
      <trkpt lat="48.70824" lon="1.74581">
        <ele>176.39999389648</ele>
        <time>2014-04-23T07:58:18.000Z</time>
      </trkpt>
      <trkpt lat="48.70818" lon="1.74576">
        <ele>176.39999389648</ele>
        <time>2014-04-23T07:58:23.000Z</time>
      </trkpt>
      <trkpt lat="48.70811" lon="1.74568">
        <ele>176.60000610352</ele>
        <time>2014-04-23T07:58:30.000Z</time>
      </trkpt>
      <trkpt lat="48.70804" lon="1.7456">
        <ele>176.60000610352</ele>
        <time>2014-04-23T07:58:37.000Z</time>
      </trkpt>
      <trkpt lat="48.70797" lon="1.74551">
        <ele>176.60000610352</ele>
        <time>2014-04-23T07:58:44.000Z</time>
      </trkpt>
      <trkpt lat="48.70791" lon="1.74544">
        <ele>176.80000305176</ele>
        <time>2014-04-23T07:58:50.000Z</time>
      </trkpt>
      <trkpt lat="48.70785" lon="1.74537">
        <ele>176.80000305176</ele>
        <time>2014-04-23T07:58:56.000Z</time>
      </trkpt>
      <trkpt lat="48.70779" lon="1.7453">
        <ele>176.80000305176</ele>
        <time>2014-04-23T07:59:02.000Z</time>
      </trkpt>
      <trkpt lat="48.70774" lon="1.74524">
        <ele>177</ele>
        <time>2014-04-23T07:59:07.000Z</time>
      </trkpt>
      <trkpt lat="48.70767" lon="1.74513">
        <ele>177.19999694824</ele>
        <time>2014-04-23T07:59:15.000Z</time>
      </trkpt>
      <trkpt lat="48.70759" lon="1.74503">
        <ele>177.39999389648</ele>
        <time>2014-04-23T07:59:23.000Z</time>
      </trkpt>
      <trkpt lat="48.7075" lon="1.74493">
        <ele>177.80000305176</ele>
        <time>2014-04-23T07:59:31.000Z</time>
      </trkpt>
      <trkpt lat="48.7074" lon="1.74483">
        <ele>178.19999694824</ele>
        <time>2014-04-23T07:59:40.000Z</time>
      </trkpt>
      <trkpt lat="48.70734" lon="1.74476">
        <ele>178.39999389648</ele>
        <time>2014-04-23T07:59:46.000Z</time>
      </trkpt>
      <trkpt lat="48.70734" lon="1.74474">
        <ele>178.39999389648</ele>
        <time>2014-04-23T07:59:49.000Z</time>
      </trkpt>
      <trkpt lat="48.70735" lon="1.74453">
        <ele>178.60000610352</ele>
        <time>2014-04-23T08:01:28.000Z</time>
      </trkpt>
      <trkpt lat="48.70742" lon="1.74448">
        <ele>178.39999389648</ele>
        <time>2014-04-23T08:01:33.000Z</time>
      </trkpt>
      <trkpt lat="48.70749" lon="1.74442">
        <ele>178.19999694824</ele>
        <time>2014-04-23T08:01:41.000Z</time>
      </trkpt>
      <trkpt lat="48.70752" lon="1.74443">
        <ele>178.19999694824</ele>
        <time>2014-04-23T08:01:46.000Z</time>
      </trkpt>
      <trkpt lat="48.70752" lon="1.74443">
        <ele>178.19999694824</ele>
        <time>2014-04-23T08:01:47.000Z</time>
      </trkpt>
      <trkpt lat="48.70765" lon="1.74435">
        <ele>177.80000305176</ele>
        <time>2014-04-23T08:02:07.000Z</time>
      </trkpt>
      <trkpt lat="48.70773" lon="1.7443">
        <ele>177.60000610352</ele>
        <time>2014-04-23T08:02:14.000Z</time>
      </trkpt>
      <trkpt lat="48.70777" lon="1.74428">
        <ele>177.60000610352</ele>
        <time>2014-04-23T08:02:18.000Z</time>
      </trkpt>
      <trkpt lat="48.70785" lon="1.74422">
        <ele>177.60000610352</ele>
        <time>2014-04-23T08:02:25.000Z</time>
      </trkpt>
      <trkpt lat="48.7079" lon="1.7442">
        <ele>177.60000610352</ele>
        <time>2014-04-23T08:02:29.000Z</time>
      </trkpt>
      <trkpt lat="48.70792" lon="1.74418">
        <ele>177.39999389648</ele>
        <time>2014-04-23T08:02:31.000Z</time>
      </trkpt>
      <trkpt lat="48.70801" lon="1.74412">
        <ele>177.19999694824</ele>
        <time>2014-04-23T08:02:39.000Z</time>
      </trkpt>
      <trkpt lat="48.70808" lon="1.74406">
        <ele>177.19999694824</ele>
        <time>2014-04-23T08:02:45.000Z</time>
      </trkpt>
      <trkpt lat="48.70815" lon="1.74402">
        <ele>177</ele>
        <time>2014-04-23T08:02:51.000Z</time>
      </trkpt>
      <trkpt lat="48.70823" lon="1.74395">
        <ele>176.80000305176</ele>
        <time>2014-04-23T08:02:59.000Z</time>
      </trkpt>
      <trkpt lat="48.70832" lon="1.74385">
        <ele>176.80000305176</ele>
        <time>2014-04-23T08:03:08.000Z</time>
      </trkpt>
      <trkpt lat="48.70836" lon="1.74381">
        <ele>176.80000305176</ele>
        <time>2014-04-23T08:03:11.000Z</time>
      </trkpt>
      <trkpt lat="48.70838" lon="1.74379">
        <ele>176.60000610352</ele>
        <time>2014-04-23T08:03:16.000Z</time>
      </trkpt>
      <trkpt lat="48.70841" lon="1.74375">
        <ele>176.60000610352</ele>
        <time>2014-04-23T08:03:21.000Z</time>
      </trkpt>
      <trkpt lat="48.70845" lon="1.7437">
        <ele>176.60000610352</ele>
        <time>2014-04-23T08:03:27.000Z</time>
      </trkpt>
      <trkpt lat="48.70846" lon="1.74369">
        <ele>176.60000610352</ele>
        <time>2014-04-23T08:03:29.000Z</time>
      </trkpt>
      <trkpt lat="48.70873" lon="1.74323">
        <ele>176.80000305176</ele>
        <time>2014-04-23T08:05:18.000Z</time>
      </trkpt>
      <trkpt lat="48.7088" lon="1.7431">
        <ele>177</ele>
        <time>2014-04-23T08:05:27.000Z</time>
      </trkpt>
      <trkpt lat="48.70886" lon="1.74298">
        <ele>177.39999389648</ele>
        <time>2014-04-23T08:05:35.000Z</time>
      </trkpt>
      <trkpt lat="48.70889" lon="1.74292">
        <ele>177.60000610352</ele>
        <time>2014-04-23T08:05:40.000Z</time>
      </trkpt>
      <trkpt lat="48.70894" lon="1.74283">
        <ele>177.80000305176</ele>
        <time>2014-04-23T08:05:47.000Z</time>
      </trkpt>
      <trkpt lat="48.70898" lon="1.74277">
        <ele>178.19999694824</ele>
        <time>2014-04-23T08:05:52.000Z</time>
      </trkpt>
      <trkpt lat="48.70902" lon="1.74267">
        <ele>178.80000305176</ele>
        <time>2014-04-23T08:05:58.000Z</time>
      </trkpt>
      <trkpt lat="48.70905" lon="1.74263">
        <ele>179</ele>
        <time>2014-04-23T08:06:01.000Z</time>
      </trkpt>
      <trkpt lat="48.70907" lon="1.74254">
        <ele>179.60000610352</ele>
        <time>2014-04-23T08:06:06.000Z</time>
      </trkpt>
      <trkpt lat="48.70908" lon="1.74247">
        <ele>180</ele>
        <time>2014-04-23T08:06:14.000Z</time>
      </trkpt>
      <trkpt lat="48.70908" lon="1.74247">
        <ele>180.19999694824</ele>
        <time>2014-04-23T08:06:15.000Z</time>
      </trkpt>
      <trkpt lat="48.70915" lon="1.7422">
        <ele>181.39999389648</ele>
        <time>2014-04-23T08:09:42.000Z</time>
      </trkpt>
      <trkpt lat="48.7092" lon="1.74211">
        <ele>181.80000305176</ele>
        <time>2014-04-23T08:09:47.000Z</time>
      </trkpt>
      <trkpt lat="48.70923" lon="1.74202">
        <ele>182.19999694824</ele>
        <time>2014-04-23T08:09:53.000Z</time>
      </trkpt>
      <trkpt lat="48.70925" lon="1.74189">
        <ele>182.60000610352</ele>
        <time>2014-04-23T08:10:00.000Z</time>
      </trkpt>
      <trkpt lat="48.70928" lon="1.74175">
        <ele>183.19999694824</ele>
        <time>2014-04-23T08:10:08.000Z</time>
      </trkpt>
      <trkpt lat="48.70932" lon="1.74157">
        <ele>183.80000305176</ele>
        <time>2014-04-23T08:10:18.000Z</time>
      </trkpt>
      <trkpt lat="48.70936" lon="1.74141">
        <ele>183.80000305176</ele>
        <time>2014-04-23T08:10:28.000Z</time>
      </trkpt>
      <trkpt lat="48.70937" lon="1.74127">
        <ele>183.60000610352</ele>
        <time>2014-04-23T08:10:35.000Z</time>
      </trkpt>
      <trkpt lat="48.7094" lon="1.74111">
        <ele>183.39999389648</ele>
        <time>2014-04-23T08:10:44.000Z</time>
      </trkpt>
      <trkpt lat="48.70943" lon="1.74099">
        <ele>183</ele>
        <time>2014-04-23T08:10:51.000Z</time>
      </trkpt>
      <trkpt lat="48.70944" lon="1.74085">
        <ele>182.80000305176</ele>
        <time>2014-04-23T08:10:58.000Z</time>
      </trkpt>
      <trkpt lat="48.70945" lon="1.74069">
        <ele>182.80000305176</ele>
        <time>2014-04-23T08:11:06.000Z</time>
      </trkpt>
      <trkpt lat="48.70947" lon="1.74056">
        <ele>183</ele>
        <time>2014-04-23T08:11:13.000Z</time>
      </trkpt>
      <trkpt lat="48.7095" lon="1.74042">
        <ele>183</ele>
        <time>2014-04-23T08:11:21.000Z</time>
      </trkpt>
      <trkpt lat="48.70955" lon="1.74029">
        <ele>183</ele>
        <time>2014-04-23T08:11:30.000Z</time>
      </trkpt>
      <trkpt lat="48.70957" lon="1.74023">
        <ele>183</ele>
        <time>2014-04-23T08:11:34.000Z</time>
      </trkpt>
      <trkpt lat="48.70962" lon="1.74012">
        <ele>183</ele>
        <time>2014-04-23T08:11:41.000Z</time>
      </trkpt>
      <trkpt lat="48.70967" lon="1.73998">
        <ele>183.19999694824</ele>
        <time>2014-04-23T08:11:49.000Z</time>
      </trkpt>
      <trkpt lat="48.70967" lon="1.73996">
        <ele>183.19999694824</ele>
        <time>2014-04-23T08:11:50.000Z</time>
      </trkpt>
      <trkpt lat="48.70971" lon="1.73985">
        <ele>183.19999694824</ele>
        <time>2014-04-23T08:11:58.000Z</time>
      </trkpt>
      <trkpt lat="48.70971" lon="1.73985">
        <ele>183.19999694824</ele>
        <time>2014-04-23T08:11:59.000Z</time>
      </trkpt>
      <trkpt lat="48.70971" lon="1.73971">
        <ele>183</ele>
        <time>2014-04-23T08:12:20.000Z</time>
      </trkpt>
      <trkpt lat="48.70974" lon="1.73958">
        <ele>182.80000305176</ele>
        <time>2014-04-23T08:12:26.000Z</time>
      </trkpt>
      <trkpt lat="48.70976" lon="1.73946">
        <ele>182.60000610352</ele>
        <time>2014-04-23T08:12:32.000Z</time>
      </trkpt>
      <trkpt lat="48.70979" lon="1.73929">
        <ele>183.19999694824</ele>
        <time>2014-04-23T08:12:40.000Z</time>
      </trkpt>
      <trkpt lat="48.70982" lon="1.73914">
        <ele>183.80000305176</ele>
        <time>2014-04-23T08:12:47.000Z</time>
      </trkpt>
      <trkpt lat="48.70983" lon="1.73901">
        <ele>184</ele>
        <time>2014-04-23T08:12:53.000Z</time>
      </trkpt>
      <trkpt lat="48.70986" lon="1.73885">
        <ele>183.39999389648</ele>
        <time>2014-04-23T08:13:01.000Z</time>
      </trkpt>
      <trkpt lat="48.70989" lon="1.73872">
        <ele>183</ele>
        <time>2014-04-23T08:13:08.000Z</time>
      </trkpt>
      <trkpt lat="48.70992" lon="1.73861">
        <ele>183</ele>
        <time>2014-04-23T08:13:14.000Z</time>
      </trkpt>
      <trkpt lat="48.70994" lon="1.73851">
        <ele>182.80000305176</ele>
        <time>2014-04-23T08:13:19.000Z</time>
      </trkpt>
      <trkpt lat="48.70996" lon="1.73841">
        <ele>182.60000610352</ele>
        <time>2014-04-23T08:13:24.000Z</time>
      </trkpt>
      <trkpt lat="48.71002" lon="1.73827">
        <ele>182.39999389648</ele>
        <time>2014-04-23T08:13:33.000Z</time>
      </trkpt>
      <trkpt lat="48.71002" lon="1.73822">
        <ele>182.39999389648</ele>
        <time>2014-04-23T08:13:35.000Z</time>
      </trkpt>
      <trkpt lat="48.71003" lon="1.73814">
        <ele>182.19999694824</ele>
        <time>2014-04-23T08:13:39.000Z</time>
      </trkpt>
      <trkpt lat="48.7101" lon="1.73804">
        <ele>182.19999694824</ele>
        <time>2014-04-23T08:13:46.000Z</time>
      </trkpt>
      <trkpt lat="48.71017" lon="1.73798">
        <ele>182.19999694824</ele>
        <time>2014-04-23T08:13:53.000Z</time>
      </trkpt>
      <trkpt lat="48.71024" lon="1.73793">
        <ele>182.19999694824</ele>
        <time>2014-04-23T08:14:00.000Z</time>
      </trkpt>
      <trkpt lat="48.71026" lon="1.73792">
        <ele>182.19999694824</ele>
        <time>2014-04-23T08:14:01.000Z</time>
      </trkpt>
      <trkpt lat="48.71029" lon="1.73786">
        <ele>182</ele>
        <time>2014-04-23T08:14:05.000Z</time>
      </trkpt>
      <trkpt lat="48.71035" lon="1.73778">
        <ele>181.80000305176</ele>
        <time>2014-04-23T08:14:12.000Z</time>
      </trkpt>
      <trkpt lat="48.71041" lon="1.73771">
        <ele>181.60000610352</ele>
        <time>2014-04-23T08:14:18.000Z</time>
      </trkpt>
      <trkpt lat="48.71051" lon="1.73761">
        <ele>181.39999389648</ele>
        <time>2014-04-23T08:14:26.000Z</time>
      </trkpt>
      <trkpt lat="48.71059" lon="1.73751">
        <ele>181.80000305176</ele>
        <time>2014-04-23T08:14:34.000Z</time>
      </trkpt>
      <trkpt lat="48.71061" lon="1.73749">
        <ele>181.80000305176</ele>
        <time>2014-04-23T08:14:36.000Z</time>
      </trkpt>
      <trkpt lat="48.71067" lon="1.73743">
        <ele>182</ele>
        <time>2014-04-23T08:14:41.000Z</time>
      </trkpt>
      <trkpt lat="48.71076" lon="1.73736">
        <ele>182.19999694824</ele>
        <time>2014-04-23T08:14:50.000Z</time>
      </trkpt>
      <trkpt lat="48.71081" lon="1.73731">
        <ele>182.19999694824</ele>
        <time>2014-04-23T08:14:56.000Z</time>
      </trkpt>
      <trkpt lat="48.71084" lon="1.73727">
        <ele>182.19999694824</ele>
        <time>2014-04-23T08:15:00.000Z</time>
      </trkpt>
      <trkpt lat="48.71097" lon="1.73716">
        <ele>182</ele>
        <time>2014-04-23T08:15:10.000Z</time>
      </trkpt>
      <trkpt lat="48.711" lon="1.73712">
        <ele>181.80000305176</ele>
        <time>2014-04-23T08:15:14.000Z</time>
      </trkpt>
      <trkpt lat="48.71103" lon="1.73708">
        <ele>181.60000610352</ele>
        <time>2014-04-23T08:15:17.000Z</time>
      </trkpt>
      <trkpt lat="48.71113" lon="1.737">
        <ele>181.39999389648</ele>
        <time>2014-04-23T08:15:25.000Z</time>
      </trkpt>
      <trkpt lat="48.7112" lon="1.73692">
        <ele>181</ele>
        <time>2014-04-23T08:15:32.000Z</time>
      </trkpt>
      <trkpt lat="48.71123" lon="1.73689">
        <ele>180.80000305176</ele>
        <time>2014-04-23T08:15:35.000Z</time>
      </trkpt>
      <trkpt lat="48.71131" lon="1.7368">
        <ele>180.60000610352</ele>
        <time>2014-04-23T08:15:42.000Z</time>
      </trkpt>
      <trkpt lat="48.71133" lon="1.73677">
        <ele>180.60000610352</ele>
        <time>2014-04-23T08:15:44.000Z</time>
      </trkpt>
      <trkpt lat="48.71141" lon="1.73668">
        <ele>181</ele>
        <time>2014-04-23T08:15:52.000Z</time>
      </trkpt>
      <trkpt lat="48.71148" lon="1.7366">
        <ele>181.19999694824</ele>
        <time>2014-04-23T08:15:59.000Z</time>
      </trkpt>
      <trkpt lat="48.71156" lon="1.73653">
        <ele>181.60000610352</ele>
        <time>2014-04-23T08:16:06.000Z</time>
      </trkpt>
      <trkpt lat="48.71161" lon="1.73649">
        <ele>181.60000610352</ele>
        <time>2014-04-23T08:16:10.000Z</time>
      </trkpt>
      <trkpt lat="48.71168" lon="1.73642">
        <ele>182</ele>
        <time>2014-04-23T08:16:17.000Z</time>
      </trkpt>
      <trkpt lat="48.7117" lon="1.7364">
        <ele>182</ele>
        <time>2014-04-23T08:16:19.000Z</time>
      </trkpt>
      <trkpt lat="48.71177" lon="1.73632">
        <ele>182</ele>
        <time>2014-04-23T08:16:26.000Z</time>
      </trkpt>
      <trkpt lat="48.71181" lon="1.73628">
        <ele>182</ele>
        <time>2014-04-23T08:16:30.000Z</time>
      </trkpt>
      <trkpt lat="48.71186" lon="1.73624">
        <ele>182</ele>
        <time>2014-04-23T08:16:35.000Z</time>
      </trkpt>
      <trkpt lat="48.71193" lon="1.73615">
        <ele>181.60000610352</ele>
        <time>2014-04-23T08:16:42.000Z</time>
      </trkpt>
      <trkpt lat="48.712" lon="1.73606">
        <ele>181.19999694824</ele>
        <time>2014-04-23T08:16:50.000Z</time>
      </trkpt>
      <trkpt lat="48.71209" lon="1.73609">
        <ele>181.39999389648</ele>
        <time>2014-04-23T08:16:57.000Z</time>
      </trkpt>
      <trkpt lat="48.71214" lon="1.73614">
        <ele>181.60000610352</ele>
        <time>2014-04-23T08:17:01.000Z</time>
      </trkpt>
      <trkpt lat="48.71222" lon="1.73616">
        <ele>181.60000610352</ele>
        <time>2014-04-23T08:17:07.000Z</time>
      </trkpt>
      <trkpt lat="48.7123" lon="1.73618">
        <ele>181.80000305176</ele>
        <time>2014-04-23T08:17:14.000Z</time>
      </trkpt>
      <trkpt lat="48.71238" lon="1.7362">
        <ele>181.80000305176</ele>
        <time>2014-04-23T08:17:22.000Z</time>
      </trkpt>
      <trkpt lat="48.71239" lon="1.7362">
        <ele>182</ele>
        <time>2014-04-23T08:17:23.000Z</time>
      </trkpt>
      <trkpt lat="48.71244" lon="1.73622">
        <ele>182.19999694824</ele>
        <time>2014-04-23T08:17:30.000Z</time>
      </trkpt>
      <trkpt lat="48.71252" lon="1.73621">
        <ele>182.80000305176</ele>
        <time>2014-04-23T08:17:37.000Z</time>
      </trkpt>
      <trkpt lat="48.71253" lon="1.73621">
        <ele>182.80000305176</ele>
        <time>2014-04-23T08:17:38.000Z</time>
      </trkpt>
      <trkpt lat="48.71267" lon="1.73615">
        <ele>183.80000305176</ele>
        <time>2014-04-23T08:17:46.000Z</time>
      </trkpt>
      <trkpt lat="48.71269" lon="1.73612">
        <ele>184</ele>
        <time>2014-04-23T08:17:48.000Z</time>
      </trkpt>
      <trkpt lat="48.71277" lon="1.73608">
        <ele>183</ele>
        <time>2014-04-23T08:17:54.000Z</time>
      </trkpt>
      <trkpt lat="48.71286" lon="1.73598">
        <ele>181.60000610352</ele>
        <time>2014-04-23T08:18:02.000Z</time>
      </trkpt>
      <trkpt lat="48.71294" lon="1.73588">
        <ele>180.39999389648</ele>
        <time>2014-04-23T08:18:09.000Z</time>
      </trkpt>
      <trkpt lat="48.71298" lon="1.73576">
        <ele>180.39999389648</ele>
        <time>2014-04-23T08:18:16.000Z</time>
      </trkpt>
      <trkpt lat="48.713" lon="1.7357">
        <ele>180.39999389648</ele>
        <time>2014-04-23T08:18:19.000Z</time>
      </trkpt>
      <trkpt lat="48.71302" lon="1.73558">
        <ele>179.60000610352</ele>
        <time>2014-04-23T08:18:26.000Z</time>
      </trkpt>
      <trkpt lat="48.71303" lon="1.73556">
        <ele>179.39999389648</ele>
        <time>2014-04-23T08:18:27.000Z</time>
      </trkpt>
      <trkpt lat="48.71309" lon="1.73546">
        <ele>178</ele>
        <time>2014-04-23T08:18:35.000Z</time>
      </trkpt>
      <trkpt lat="48.71318" lon="1.73537">
        <ele>176.39999389648</ele>
        <time>2014-04-23T08:18:43.000Z</time>
      </trkpt>
      <trkpt lat="48.71326" lon="1.73529">
        <ele>176.19999694824</ele>
        <time>2014-04-23T08:18:50.000Z</time>
      </trkpt>
      <trkpt lat="48.71327" lon="1.73529">
        <ele>176.19999694824</ele>
        <time>2014-04-23T08:18:51.000Z</time>
      </trkpt>
      <trkpt lat="48.71333" lon="1.73529">
        <ele>175.80000305176</ele>
        <time>2014-04-23T08:18:57.000Z</time>
      </trkpt>
      <trkpt lat="48.71338" lon="1.73532">
        <ele>175.19999694824</ele>
        <time>2014-04-23T08:19:02.000Z</time>
      </trkpt>
      <trkpt lat="48.71343" lon="1.73536">
        <ele>174.60000610352</ele>
        <time>2014-04-23T08:19:06.000Z</time>
      </trkpt>
      <trkpt lat="48.7135" lon="1.73542">
        <ele>174</ele>
        <time>2014-04-23T08:19:11.000Z</time>
      </trkpt>
      <trkpt lat="48.71356" lon="1.73549">
        <ele>173</ele>
        <time>2014-04-23T08:19:16.000Z</time>
      </trkpt>
      <trkpt lat="48.71365" lon="1.73557">
        <ele>171.39999389648</ele>
        <time>2014-04-23T08:19:24.000Z</time>
      </trkpt>
      <trkpt lat="48.7137" lon="1.73562">
        <ele>170.60000610352</ele>
        <time>2014-04-23T08:19:29.000Z</time>
      </trkpt>
      <trkpt lat="48.71375" lon="1.73567">
        <ele>169.60000610352</ele>
        <time>2014-04-23T08:19:34.000Z</time>
      </trkpt>
      <trkpt lat="48.71379" lon="1.73573">
        <ele>168.80000305176</ele>
        <time>2014-04-23T08:19:38.000Z</time>
      </trkpt>
      <trkpt lat="48.71389" lon="1.73576">
        <ele>167.39999389648</ele>
        <time>2014-04-23T08:19:45.000Z</time>
      </trkpt>
      <trkpt lat="48.71394" lon="1.73577">
        <ele>166.80000305176</ele>
        <time>2014-04-23T08:19:49.000Z</time>
      </trkpt>
      <trkpt lat="48.71401" lon="1.73577">
        <ele>166</ele>
        <time>2014-04-23T08:19:54.000Z</time>
      </trkpt>
      <trkpt lat="48.71403" lon="1.73578">
        <ele>165.80000305176</ele>
        <time>2014-04-23T08:19:56.000Z</time>
      </trkpt>
      <trkpt lat="48.71412" lon="1.73578">
        <ele>164.60000610352</ele>
        <time>2014-04-23T08:20:02.000Z</time>
      </trkpt>
      <trkpt lat="48.71423" lon="1.73577">
        <ele>163.39999389648</ele>
        <time>2014-04-23T08:20:10.000Z</time>
      </trkpt>
      <trkpt lat="48.71431" lon="1.7358">
        <ele>162.39999389648</ele>
        <time>2014-04-23T08:20:16.000Z</time>
      </trkpt>
      <trkpt lat="48.71436" lon="1.7358">
        <ele>161.60000610352</ele>
        <time>2014-04-23T08:20:20.000Z</time>
      </trkpt>
      <trkpt lat="48.71439" lon="1.73579">
        <ele>161.39999389648</ele>
        <time>2014-04-23T08:20:22.000Z</time>
      </trkpt>
      <trkpt lat="48.71447" lon="1.73581">
        <ele>160.80000305176</ele>
        <time>2014-04-23T08:20:29.000Z</time>
      </trkpt>
      <trkpt lat="48.71454" lon="1.73579">
        <ele>160.39999389648</ele>
        <time>2014-04-23T08:20:35.000Z</time>
      </trkpt>
      <trkpt lat="48.71463" lon="1.73572">
        <ele>159.80000305176</ele>
        <time>2014-04-23T08:20:43.000Z</time>
      </trkpt>
      <trkpt lat="48.71464" lon="1.73572">
        <ele>159.60000610352</ele>
        <time>2014-04-23T08:20:44.000Z</time>
      </trkpt>
      <trkpt lat="48.71468" lon="1.73565">
        <ele>159.60000610352</ele>
        <time>2014-04-23T08:20:49.000Z</time>
      </trkpt>
      <trkpt lat="48.71473" lon="1.73558">
        <ele>159.60000610352</ele>
        <time>2014-04-23T08:20:54.000Z</time>
      </trkpt>
      <trkpt lat="48.71481" lon="1.73555">
        <ele>159</ele>
        <time>2014-04-23T08:21:00.000Z</time>
      </trkpt>
      <trkpt lat="48.71483" lon="1.73555">
        <ele>159</ele>
        <time>2014-04-23T08:21:01.000Z</time>
      </trkpt>
      <trkpt lat="48.71496" lon="1.73552">
        <ele>158</ele>
        <time>2014-04-23T08:21:10.000Z</time>
      </trkpt>
      <trkpt lat="48.71504" lon="1.73551">
        <ele>157</ele>
        <time>2014-04-23T08:21:16.000Z</time>
      </trkpt>
      <trkpt lat="48.71505" lon="1.73551">
        <ele>156.80000305176</ele>
        <time>2014-04-23T08:21:17.000Z</time>
      </trkpt>
      <trkpt lat="48.71515" lon="1.73552">
        <ele>155.19999694824</ele>
        <time>2014-04-23T08:21:26.000Z</time>
      </trkpt>
      <trkpt lat="48.71524" lon="1.73552">
        <ele>153.80000305176</ele>
        <time>2014-04-23T08:21:33.000Z</time>
      </trkpt>
      <trkpt lat="48.71536" lon="1.73549">
        <ele>152.39999389648</ele>
        <time>2014-04-23T08:21:40.000Z</time>
      </trkpt>
      <trkpt lat="48.71547" lon="1.73546">
        <ele>150.80000305176</ele>
        <time>2014-04-23T08:21:48.000Z</time>
      </trkpt>
      <trkpt lat="48.71556" lon="1.73544">
        <ele>149.80000305176</ele>
        <time>2014-04-23T08:21:54.000Z</time>
      </trkpt>
      <trkpt lat="48.71563" lon="1.73543">
        <ele>148.80000305176</ele>
        <time>2014-04-23T08:22:00.000Z</time>
      </trkpt>
      <trkpt lat="48.71564" lon="1.73543">
        <ele>148.80000305176</ele>
        <time>2014-04-23T08:22:01.000Z</time>
      </trkpt>
      <trkpt lat="48.71571" lon="1.73539">
        <ele>147.80000305176</ele>
        <time>2014-04-23T08:22:07.000Z</time>
      </trkpt>
      <trkpt lat="48.71574" lon="1.73538">
        <ele>147.39999389648</ele>
        <time>2014-04-23T08:22:09.000Z</time>
      </trkpt>
      <trkpt lat="48.71586" lon="1.73534">
        <ele>146.19999694824</ele>
        <time>2014-04-23T08:22:18.000Z</time>
      </trkpt>
      <trkpt lat="48.71599" lon="1.73531">
        <ele>145</ele>
        <time>2014-04-23T08:22:26.000Z</time>
      </trkpt>
      <trkpt lat="48.7161" lon="1.73529">
        <ele>144.19999694824</ele>
        <time>2014-04-23T08:22:33.000Z</time>
      </trkpt>
      <trkpt lat="48.71621" lon="1.73528">
        <ele>143.39999389648</ele>
        <time>2014-04-23T08:22:41.000Z</time>
      </trkpt>
      <trkpt lat="48.7163" lon="1.73525">
        <ele>142.80000305176</ele>
        <time>2014-04-23T08:22:48.000Z</time>
      </trkpt>
      <trkpt lat="48.71639" lon="1.73523">
        <ele>142.39999389648</ele>
        <time>2014-04-23T08:22:54.000Z</time>
      </trkpt>
      <trkpt lat="48.71646" lon="1.73521">
        <ele>142</ele>
        <time>2014-04-23T08:23:00.000Z</time>
      </trkpt>
      <trkpt lat="48.71655" lon="1.73518">
        <ele>141.60000610352</ele>
        <time>2014-04-23T08:23:07.000Z</time>
      </trkpt>
      <trkpt lat="48.71662" lon="1.73516">
        <ele>141.19999694824</ele>
        <time>2014-04-23T08:23:13.000Z</time>
      </trkpt>
      <trkpt lat="48.71672" lon="1.73513">
        <ele>140.80000305176</ele>
        <time>2014-04-23T08:23:20.000Z</time>
      </trkpt>
      <trkpt lat="48.71683" lon="1.73511">
        <ele>140.19999694824</ele>
        <time>2014-04-23T08:23:28.000Z</time>
      </trkpt>
      <trkpt lat="48.71693" lon="1.73508">
        <ele>140</ele>
        <time>2014-04-23T08:23:35.000Z</time>
      </trkpt>
      <trkpt lat="48.71695" lon="1.73508">
        <ele>140</ele>
        <time>2014-04-23T08:23:36.000Z</time>
      </trkpt>
      <trkpt lat="48.71705" lon="1.73507">
        <ele>140</ele>
        <time>2014-04-23T08:23:43.000Z</time>
      </trkpt>
      <trkpt lat="48.71714" lon="1.73506">
        <ele>139.80000305176</ele>
        <time>2014-04-23T08:23:49.000Z</time>
      </trkpt>
      <trkpt lat="48.71725" lon="1.73502">
        <ele>139.19999694824</ele>
        <time>2014-04-23T08:23:57.000Z</time>
      </trkpt>
      <trkpt lat="48.71731" lon="1.735">
        <ele>139</ele>
        <time>2014-04-23T08:24:01.000Z</time>
      </trkpt>
      <trkpt lat="48.71737" lon="1.73501">
        <ele>138.80000305176</ele>
        <time>2014-04-23T08:24:05.000Z</time>
      </trkpt>
      <trkpt lat="48.71747" lon="1.73494">
        <ele>138</ele>
        <time>2014-04-23T08:24:12.000Z</time>
      </trkpt>
      <trkpt lat="48.71753" lon="1.73489">
        <ele>137.80000305176</ele>
        <time>2014-04-23T08:24:17.000Z</time>
      </trkpt>
      <trkpt lat="48.71755" lon="1.73487">
        <ele>137.60000610352</ele>
        <time>2014-04-23T08:24:21.000Z</time>
      </trkpt>
      <trkpt lat="48.71757" lon="1.73483">
        <ele>137.39999389648</ele>
        <time>2014-04-23T08:24:23.000Z</time>
      </trkpt>
      <trkpt lat="48.71757" lon="1.73473">
        <ele>137.39999389648</ele>
        <time>2014-04-23T08:24:29.000Z</time>
      </trkpt>
      <trkpt lat="48.71757" lon="1.73474">
        <ele>137.39999389648</ele>
        <time>2014-04-23T08:24:31.000Z</time>
      </trkpt>
      <trkpt lat="48.71756" lon="1.73466">
        <ele>137.60000610352</ele>
        <time>2014-04-23T08:24:56.000Z</time>
      </trkpt>
      <trkpt lat="48.71752" lon="1.73452">
        <ele>137.60000610352</ele>
        <time>2014-04-23T08:25:03.000Z</time>
      </trkpt>
      <trkpt lat="48.71748" lon="1.73438">
        <ele>137.80000305176</ele>
        <time>2014-04-23T08:25:11.000Z</time>
      </trkpt>
      <trkpt lat="48.71744" lon="1.73423">
        <ele>138</ele>
        <time>2014-04-23T08:25:19.000Z</time>
      </trkpt>
      <trkpt lat="48.7174" lon="1.73407">
        <ele>138</ele>
        <time>2014-04-23T08:25:27.000Z</time>
      </trkpt>
      <trkpt lat="48.71736" lon="1.73395">
        <ele>138</ele>
        <time>2014-04-23T08:25:35.000Z</time>
      </trkpt>
      <trkpt lat="48.71733" lon="1.73387">
        <ele>138</ele>
        <time>2014-04-23T08:25:40.000Z</time>
      </trkpt>
      <trkpt lat="48.71729" lon="1.73374">
        <ele>137.80000305176</ele>
        <time>2014-04-23T08:25:48.000Z</time>
      </trkpt>
      <trkpt lat="48.71726" lon="1.7336">
        <ele>137.60000610352</ele>
        <time>2014-04-23T08:25:56.000Z</time>
      </trkpt>
      <trkpt lat="48.71723" lon="1.73349">
        <ele>137.39999389648</ele>
        <time>2014-04-23T08:26:02.000Z</time>
      </trkpt>
      <trkpt lat="48.71721" lon="1.73342">
        <ele>137.19999694824</ele>
        <time>2014-04-23T08:26:06.000Z</time>
      </trkpt>
      <trkpt lat="48.71719" lon="1.73333">
        <ele>137.19999694824</ele>
        <time>2014-04-23T08:26:12.000Z</time>
      </trkpt>
      <trkpt lat="48.71715" lon="1.73316">
        <ele>137</ele>
        <time>2014-04-23T08:26:21.000Z</time>
      </trkpt>
      <trkpt lat="48.71712" lon="1.73307">
        <ele>137</ele>
        <time>2014-04-23T08:26:26.000Z</time>
      </trkpt>
      <trkpt lat="48.71711" lon="1.73294">
        <ele>137.19999694824</ele>
        <time>2014-04-23T08:26:33.000Z</time>
      </trkpt>
      <trkpt lat="48.7171" lon="1.73279">
        <ele>137.19999694824</ele>
        <time>2014-04-23T08:26:41.000Z</time>
      </trkpt>
      <trkpt lat="48.71708" lon="1.73268">
        <ele>137.19999694824</ele>
        <time>2014-04-23T08:26:48.000Z</time>
      </trkpt>
      <trkpt lat="48.71707" lon="1.73254">
        <ele>137.19999694824</ele>
        <time>2014-04-23T08:26:56.000Z</time>
      </trkpt>
      <trkpt lat="48.71706" lon="1.73241">
        <ele>137.19999694824</ele>
        <time>2014-04-23T08:27:03.000Z</time>
      </trkpt>
      <trkpt lat="48.71706" lon="1.73234">
        <ele>137</ele>
        <time>2014-04-23T08:27:07.000Z</time>
      </trkpt>
      <trkpt lat="48.71706" lon="1.73219">
        <ele>136.80000305176</ele>
        <time>2014-04-23T08:27:15.000Z</time>
      </trkpt>
      <trkpt lat="48.71703" lon="1.73207">
        <ele>136.80000305176</ele>
        <time>2014-04-23T08:27:21.000Z</time>
      </trkpt>
      <trkpt lat="48.71702" lon="1.73196">
        <ele>136.80000305176</ele>
        <time>2014-04-23T08:27:28.000Z</time>
      </trkpt>
      <trkpt lat="48.71701" lon="1.73182">
        <ele>136.60000610352</ele>
        <time>2014-04-23T08:27:36.000Z</time>
      </trkpt>
      <trkpt lat="48.71698" lon="1.73168">
        <ele>136.60000610352</ele>
        <time>2014-04-23T08:27:44.000Z</time>
      </trkpt>
      <trkpt lat="48.71697" lon="1.73164">
        <ele>136.60000610352</ele>
        <time>2014-04-23T08:27:46.000Z</time>
      </trkpt>
      <trkpt lat="48.71696" lon="1.7315">
        <ele>136.80000305176</ele>
        <time>2014-04-23T08:27:55.000Z</time>
      </trkpt>
      <trkpt lat="48.71693" lon="1.73134">
        <ele>137.19999694824</ele>
        <time>2014-04-23T08:28:02.000Z</time>
      </trkpt>
      <trkpt lat="48.71689" lon="1.73116">
        <ele>137.80000305176</ele>
        <time>2014-04-23T08:28:11.000Z</time>
      </trkpt>
      <trkpt lat="48.71687" lon="1.73099">
        <ele>138.39999389648</ele>
        <time>2014-04-23T08:28:20.000Z</time>
      </trkpt>
      <trkpt lat="48.71684" lon="1.73077">
        <ele>139</ele>
        <time>2014-04-23T08:28:31.000Z</time>
      </trkpt>
      <trkpt lat="48.71682" lon="1.7306">
        <ele>139.19999694824</ele>
        <time>2014-04-23T08:28:40.000Z</time>
      </trkpt>
      <trkpt lat="48.7168" lon="1.73044">
        <ele>139</ele>
        <time>2014-04-23T08:28:48.000Z</time>
      </trkpt>
      <trkpt lat="48.71679" lon="1.73034">
        <ele>139</ele>
        <time>2014-04-23T08:28:54.000Z</time>
      </trkpt>
      <trkpt lat="48.71676" lon="1.73019">
        <ele>139</ele>
        <time>2014-04-23T08:29:02.000Z</time>
      </trkpt>
      <trkpt lat="48.71668" lon="1.72996">
        <ele>139</ele>
        <time>2014-04-23T08:29:12.000Z</time>
      </trkpt>
      <trkpt lat="48.71664" lon="1.72985">
        <ele>139</ele>
        <time>2014-04-23T08:29:19.000Z</time>
      </trkpt>
      <trkpt lat="48.71662" lon="1.72983">
        <ele>139.19999694824</ele>
        <time>2014-04-23T08:29:21.000Z</time>
      </trkpt>
      <trkpt lat="48.71659" lon="1.72969">
        <ele>139.19999694824</ele>
        <time>2014-04-23T08:29:28.000Z</time>
      </trkpt>
      <trkpt lat="48.71658" lon="1.72957">
        <ele>139</ele>
        <time>2014-04-23T08:29:36.000Z</time>
      </trkpt>
      <trkpt lat="48.71654" lon="1.72949">
        <ele>139.19999694824</ele>
        <time>2014-04-23T08:29:40.000Z</time>
      </trkpt>
      <trkpt lat="48.71643" lon="1.7293">
        <ele>139.39999389648</ele>
        <time>2014-04-23T08:29:46.000Z</time>
      </trkpt>
      <trkpt lat="48.71634" lon="1.72905">
        <ele>139.60000610352</ele>
        <time>2014-04-23T08:29:53.000Z</time>
      </trkpt>
      <trkpt lat="48.71622" lon="1.72879">
        <ele>139.80000305176</ele>
        <time>2014-04-23T08:30:00.000Z</time>
      </trkpt>
      <trkpt lat="48.7161" lon="1.72857">
        <ele>140.19999694824</ele>
        <time>2014-04-23T08:30:06.000Z</time>
      </trkpt>
      <trkpt lat="48.71593" lon="1.72818">
        <ele>140.60000610352</ele>
        <time>2014-04-23T08:30:14.000Z</time>
      </trkpt>
      <trkpt lat="48.71584" lon="1.72799">
        <ele>141.39999389648</ele>
        <time>2014-04-23T08:30:19.000Z</time>
      </trkpt>
      <trkpt lat="48.71574" lon="1.72775">
        <ele>142.39999389648</ele>
        <time>2014-04-23T08:30:26.000Z</time>
      </trkpt>
      <trkpt lat="48.71564" lon="1.72752">
        <ele>143.19999694824</ele>
        <time>2014-04-23T08:30:33.000Z</time>
      </trkpt>
      <trkpt lat="48.71551" lon="1.72728">
        <ele>144</ele>
        <time>2014-04-23T08:30:39.000Z</time>
      </trkpt>
      <trkpt lat="48.71539" lon="1.72697">
        <ele>144</ele>
        <time>2014-04-23T08:30:46.000Z</time>
      </trkpt>
      <trkpt lat="48.71526" lon="1.72662">
        <ele>143.80000305176</ele>
        <time>2014-04-23T08:30:53.000Z</time>
      </trkpt>
      <trkpt lat="48.71516" lon="1.72631">
        <ele>143.60000610352</ele>
        <time>2014-04-23T08:30:59.000Z</time>
      </trkpt>
      <trkpt lat="48.71512" lon="1.72599">
        <ele>143.19999694824</ele>
        <time>2014-04-23T08:31:05.000Z</time>
      </trkpt>
      <trkpt lat="48.71507" lon="1.72563">
        <ele>142.60000610352</ele>
        <time>2014-04-23T08:31:12.000Z</time>
      </trkpt>
      <trkpt lat="48.71502" lon="1.72526">
        <ele>142.60000610352</ele>
        <time>2014-04-23T08:31:19.000Z</time>
      </trkpt>
      <trkpt lat="48.71498" lon="1.72495">
        <ele>142.39999389648</ele>
        <time>2014-04-23T08:31:25.000Z</time>
      </trkpt>
      <trkpt lat="48.71494" lon="1.72459">
        <ele>141.80000305176</ele>
        <time>2014-04-23T08:31:32.000Z</time>
      </trkpt>
      <trkpt lat="48.71493" lon="1.7243">
        <ele>141.19999694824</ele>
        <time>2014-04-23T08:31:38.000Z</time>
      </trkpt>
      <trkpt lat="48.71489" lon="1.72388">
        <ele>140.39999389648</ele>
        <time>2014-04-23T08:31:46.000Z</time>
      </trkpt>
      <trkpt lat="48.7149" lon="1.72354">
        <ele>139.80000305176</ele>
        <time>2014-04-23T08:31:52.000Z</time>
      </trkpt>
      <trkpt lat="48.71491" lon="1.72326">
        <ele>139.39999389648</ele>
        <time>2014-04-23T08:31:58.000Z</time>
      </trkpt>
      <trkpt lat="48.71489" lon="1.7229">
        <ele>139.80000305176</ele>
        <time>2014-04-23T08:32:04.000Z</time>
      </trkpt>
      <trkpt lat="48.71483" lon="1.72254">
        <ele>139.80000305176</ele>
        <time>2014-04-23T08:32:11.000Z</time>
      </trkpt>
      <trkpt lat="48.71473" lon="1.72227">
        <ele>140.80000305176</ele>
        <time>2014-04-23T08:32:17.000Z</time>
      </trkpt>
      <trkpt lat="48.71465" lon="1.72204">
        <ele>142.60000610352</ele>
        <time>2014-04-23T08:32:22.000Z</time>
      </trkpt>
      <trkpt lat="48.71455" lon="1.72192">
        <ele>144</ele>
        <time>2014-04-23T08:32:26.000Z</time>
      </trkpt>
      <trkpt lat="48.7144" lon="1.72175">
        <ele>145.80000305176</ele>
        <time>2014-04-23T08:32:32.000Z</time>
      </trkpt>
      <trkpt lat="48.71436" lon="1.72155">
        <ele>147.19999694824</ele>
        <time>2014-04-23T08:32:38.000Z</time>
      </trkpt>
      <trkpt lat="48.71433" lon="1.72131">
        <ele>146.39999389648</ele>
        <time>2014-04-23T08:32:44.000Z</time>
      </trkpt>
      <trkpt lat="48.71426" lon="1.72113">
        <ele>146.60000610352</ele>
        <time>2014-04-23T08:32:49.000Z</time>
      </trkpt>
      <trkpt lat="48.71423" lon="1.7211">
        <ele>147</ele>
        <time>2014-04-23T08:32:51.000Z</time>
      </trkpt>
      <trkpt lat="48.71418" lon="1.72098">
        <ele>147</ele>
        <time>2014-04-23T08:32:59.000Z</time>
      </trkpt>
      <trkpt lat="48.71419" lon="1.72086">
        <ele>146.39999389648</ele>
        <time>2014-04-23T08:33:04.000Z</time>
      </trkpt>
      <trkpt lat="48.71416" lon="1.72077">
        <ele>146.39999389648</ele>
        <time>2014-04-23T08:33:07.000Z</time>
      </trkpt>
      <trkpt lat="48.71404" lon="1.72057">
        <ele>146.60000610352</ele>
        <time>2014-04-23T08:33:12.000Z</time>
      </trkpt>
      <trkpt lat="48.71388" lon="1.72031">
        <ele>146.80000305176</ele>
        <time>2014-04-23T08:33:17.000Z</time>
      </trkpt>
      <trkpt lat="48.71371" lon="1.72015">
        <ele>147.80000305176</ele>
        <time>2014-04-23T08:33:22.000Z</time>
      </trkpt>
      <trkpt lat="48.71348" lon="1.71995">
        <ele>149.19999694824</ele>
        <time>2014-04-23T08:33:30.000Z</time>
      </trkpt>
      <trkpt lat="48.7133" lon="1.71973">
        <ele>150.60000610352</ele>
        <time>2014-04-23T08:33:36.000Z</time>
      </trkpt>
      <trkpt lat="48.71317" lon="1.71954">
        <ele>152.19999694824</ele>
        <time>2014-04-23T08:33:42.000Z</time>
      </trkpt>
      <trkpt lat="48.71317" lon="1.71929">
        <ele>152.39999389648</ele>
        <time>2014-04-23T08:33:47.000Z</time>
      </trkpt>
      <trkpt lat="48.7132" lon="1.71904">
        <ele>152</ele>
        <time>2014-04-23T08:33:53.000Z</time>
      </trkpt>
      <trkpt lat="48.71322" lon="1.71897">
        <ele>152</ele>
        <time>2014-04-23T08:33:55.000Z</time>
      </trkpt>
      <trkpt lat="48.71329" lon="1.71873">
        <ele>152</ele>
        <time>2014-04-23T08:34:01.000Z</time>
      </trkpt>
      <trkpt lat="48.71335" lon="1.71853">
        <ele>151.60000610352</ele>
        <time>2014-04-23T08:34:06.000Z</time>
      </trkpt>
      <trkpt lat="48.71335" lon="1.71822">
        <ele>152.39999389648</ele>
        <time>2014-04-23T08:34:12.000Z</time>
      </trkpt>
      <trkpt lat="48.7133" lon="1.71783">
        <ele>150.60000610352</ele>
        <time>2014-04-23T08:34:19.000Z</time>
      </trkpt>
      <trkpt lat="48.71327" lon="1.71747">
        <ele>149.60000610352</ele>
        <time>2014-04-23T08:34:25.000Z</time>
      </trkpt>
      <trkpt lat="48.71325" lon="1.71702">
        <ele>148</ele>
        <time>2014-04-23T08:34:33.000Z</time>
      </trkpt>
      <trkpt lat="48.71323" lon="1.71654">
        <ele>147.39999389648</ele>
        <time>2014-04-23T08:34:42.000Z</time>
      </trkpt>
      <trkpt lat="48.71319" lon="1.71617">
        <ele>146.80000305176</ele>
        <time>2014-04-23T08:34:49.000Z</time>
      </trkpt>
      <trkpt lat="48.7132" lon="1.71585">
        <ele>145.60000610352</ele>
        <time>2014-04-23T08:34:55.000Z</time>
      </trkpt>
      <trkpt lat="48.71317" lon="1.71543">
        <ele>144.60000610352</ele>
        <time>2014-04-23T08:35:02.000Z</time>
      </trkpt>
      <trkpt lat="48.71317" lon="1.71495">
        <ele>143.80000305176</ele>
        <time>2014-04-23T08:35:10.000Z</time>
      </trkpt>
      <trkpt lat="48.71311" lon="1.71466">
        <ele>144</ele>
        <time>2014-04-23T08:35:16.000Z</time>
      </trkpt>
      <trkpt lat="48.71302" lon="1.71425">
        <ele>144.39999389648</ele>
        <time>2014-04-23T08:35:24.000Z</time>
      </trkpt>
      <trkpt lat="48.71298" lon="1.71382">
        <ele>143.80000305176</ele>
        <time>2014-04-23T08:35:32.000Z</time>
      </trkpt>
      <trkpt lat="48.71292" lon="1.71344">
        <ele>143.19999694824</ele>
        <time>2014-04-23T08:35:39.000Z</time>
      </trkpt>
      <trkpt lat="48.71288" lon="1.71309">
        <ele>142.80000305176</ele>
        <time>2014-04-23T08:35:45.000Z</time>
      </trkpt>
      <trkpt lat="48.71279" lon="1.71271">
        <ele>142.39999389648</ele>
        <time>2014-04-23T08:35:52.000Z</time>
      </trkpt>
      <trkpt lat="48.71275" lon="1.71233">
        <ele>141.80000305176</ele>
        <time>2014-04-23T08:35:59.000Z</time>
      </trkpt>
      <trkpt lat="48.71275" lon="1.71181">
        <ele>141.80000305176</ele>
        <time>2014-04-23T08:36:08.000Z</time>
      </trkpt>
      <trkpt lat="48.7127" lon="1.71148">
        <ele>142</ele>
        <time>2014-04-23T08:36:14.000Z</time>
      </trkpt>
      <trkpt lat="48.7126" lon="1.71114">
        <ele>142.60000610352</ele>
        <time>2014-04-23T08:36:21.000Z</time>
      </trkpt>
      <trkpt lat="48.71246" lon="1.71083">
        <ele>143.80000305176</ele>
        <time>2014-04-23T08:36:28.000Z</time>
      </trkpt>
      <trkpt lat="48.71234" lon="1.71057">
        <ele>144.80000305176</ele>
        <time>2014-04-23T08:36:34.000Z</time>
      </trkpt>
      <trkpt lat="48.71225" lon="1.71038">
        <ele>145.39999389648</ele>
        <time>2014-04-23T08:36:39.000Z</time>
      </trkpt>
      <trkpt lat="48.71216" lon="1.71002">
        <ele>146.60000610352</ele>
        <time>2014-04-23T08:36:46.000Z</time>
      </trkpt>
      <trkpt lat="48.71212" lon="1.70962">
        <ele>147.80000305176</ele>
        <time>2014-04-23T08:36:53.000Z</time>
      </trkpt>
      <trkpt lat="48.71212" lon="1.70929">
        <ele>148.60000610352</ele>
        <time>2014-04-23T08:36:59.000Z</time>
      </trkpt>
      <trkpt lat="48.71211" lon="1.709">
        <ele>148.80000305176</ele>
        <time>2014-04-23T08:37:04.000Z</time>
      </trkpt>
      <trkpt lat="48.71214" lon="1.70871">
        <ele>150</ele>
        <time>2014-04-23T08:37:09.000Z</time>
      </trkpt>
      <trkpt lat="48.71223" lon="1.7084">
        <ele>150.60000610352</ele>
        <time>2014-04-23T08:37:15.000Z</time>
      </trkpt>
      <trkpt lat="48.71224" lon="1.7081">
        <ele>151.19999694824</ele>
        <time>2014-04-23T08:37:20.000Z</time>
      </trkpt>
      <trkpt lat="48.7122" lon="1.70776">
        <ele>150.80000305176</ele>
        <time>2014-04-23T08:37:26.000Z</time>
      </trkpt>
      <trkpt lat="48.71221" lon="1.70742">
        <ele>150.60000610352</ele>
        <time>2014-04-23T08:37:32.000Z</time>
      </trkpt>
      <trkpt lat="48.71222" lon="1.70706">
        <ele>150.39999389648</ele>
        <time>2014-04-23T08:37:38.000Z</time>
      </trkpt>
      <trkpt lat="48.71225" lon="1.7066">
        <ele>150.19999694824</ele>
        <time>2014-04-23T08:37:46.000Z</time>
      </trkpt>
      <trkpt lat="48.71221" lon="1.70622">
        <ele>150.60000610352</ele>
        <time>2014-04-23T08:37:53.000Z</time>
      </trkpt>
      <trkpt lat="48.71217" lon="1.70597">
        <ele>150.80000305176</ele>
        <time>2014-04-23T08:37:59.000Z</time>
      </trkpt>
      <trkpt lat="48.7121" lon="1.70578">
        <ele>151.19999694824</ele>
        <time>2014-04-23T08:38:07.000Z</time>
      </trkpt>
      <trkpt lat="48.71204" lon="1.7056">
        <ele>151.19999694824</ele>
        <time>2014-04-23T08:38:16.000Z</time>
      </trkpt>
      <trkpt lat="48.71199" lon="1.70541">
        <ele>150.80000305176</ele>
        <time>2014-04-23T08:38:25.000Z</time>
      </trkpt>
      <trkpt lat="48.71197" lon="1.70524">
        <ele>150.39999389648</ele>
        <time>2014-04-23T08:38:33.000Z</time>
      </trkpt>
      <trkpt lat="48.71196" lon="1.70509">
        <ele>150</ele>
        <time>2014-04-23T08:38:40.000Z</time>
      </trkpt>
      <trkpt lat="48.71194" lon="1.70495">
        <ele>149.60000610352</ele>
        <time>2014-04-23T08:38:47.000Z</time>
      </trkpt>
      <trkpt lat="48.71194" lon="1.70493">
        <ele>149.60000610352</ele>
        <time>2014-04-23T08:38:48.000Z</time>
      </trkpt>
      <trkpt lat="48.71187" lon="1.70479">
        <ele>149.60000610352</ele>
        <time>2014-04-23T08:38:57.000Z</time>
      </trkpt>
      <trkpt lat="48.71179" lon="1.70464">
        <ele>148.60000610352</ele>
        <time>2014-04-23T08:39:03.000Z</time>
      </trkpt>
      <trkpt lat="48.71174" lon="1.70447">
        <ele>147.39999389648</ele>
        <time>2014-04-23T08:39:10.000Z</time>
      </trkpt>
      <trkpt lat="48.71171" lon="1.70435">
        <ele>146.60000610352</ele>
        <time>2014-04-23T08:39:15.000Z</time>
      </trkpt>
      <trkpt lat="48.7117" lon="1.70434">
        <ele>146.60000610352</ele>
        <time>2014-04-23T08:39:16.000Z</time>
      </trkpt>
      <trkpt lat="48.71168" lon="1.7043">
        <ele>146.39999389648</ele>
        <time>2014-04-23T08:39:19.000Z</time>
      </trkpt>
      <trkpt lat="48.71166" lon="1.70423">
        <ele>145.80000305176</ele>
        <time>2014-04-23T08:39:23.000Z</time>
      </trkpt>
      <trkpt lat="48.71163" lon="1.70412">
        <ele>145.19999694824</ele>
        <time>2014-04-23T08:39:30.000Z</time>
      </trkpt>
      <trkpt lat="48.71162" lon="1.70398">
        <ele>145</ele>
        <time>2014-04-23T08:39:37.000Z</time>
      </trkpt>
      <trkpt lat="48.71163" lon="1.70382">
        <ele>146</ele>
        <time>2014-04-23T08:39:44.000Z</time>
      </trkpt>
      <trkpt lat="48.71164" lon="1.70371">
        <ele>146</ele>
        <time>2014-04-23T08:39:50.000Z</time>
      </trkpt>
      <trkpt lat="48.71164" lon="1.70359">
        <ele>146</ele>
        <time>2014-04-23T08:39:56.000Z</time>
      </trkpt>
      <trkpt lat="48.71165" lon="1.70354">
        <ele>146</ele>
        <time>2014-04-23T08:39:59.000Z</time>
      </trkpt>
      <trkpt lat="48.71167" lon="1.70344">
        <ele>146</ele>
        <time>2014-04-23T08:40:05.000Z</time>
      </trkpt>
      <trkpt lat="48.71168" lon="1.70331">
        <ele>145.80000305176</ele>
        <time>2014-04-23T08:40:13.000Z</time>
      </trkpt>
      <trkpt lat="48.71171" lon="1.70317">
        <ele>145.80000305176</ele>
        <time>2014-04-23T08:40:21.000Z</time>
      </trkpt>
      <trkpt lat="48.71173" lon="1.70313">
        <ele>146</ele>
        <time>2014-04-23T08:40:24.000Z</time>
      </trkpt>
      <trkpt lat="48.71178" lon="1.703">
        <ele>146</ele>
        <time>2014-04-23T08:40:32.000Z</time>
      </trkpt>
      <trkpt lat="48.71182" lon="1.70289">
        <ele>146</ele>
        <time>2014-04-23T08:40:38.000Z</time>
      </trkpt>
      <trkpt lat="48.71185" lon="1.70277">
        <ele>146.19999694824</ele>
        <time>2014-04-23T08:40:45.000Z</time>
      </trkpt>
      <trkpt lat="48.71187" lon="1.70273">
        <ele>146.19999694824</ele>
        <time>2014-04-23T08:40:47.000Z</time>
      </trkpt>
      <trkpt lat="48.71193" lon="1.70257">
        <ele>146.19999694824</ele>
        <time>2014-04-23T08:40:56.000Z</time>
      </trkpt>
      <trkpt lat="48.71195" lon="1.70245">
        <ele>146.19999694824</ele>
        <time>2014-04-23T08:41:02.000Z</time>
      </trkpt>
      <trkpt lat="48.71196" lon="1.70243">
        <ele>146.19999694824</ele>
        <time>2014-04-23T08:41:03.000Z</time>
      </trkpt>
      <trkpt lat="48.71197" lon="1.70234">
        <ele>146</ele>
        <time>2014-04-23T08:41:07.000Z</time>
      </trkpt>
      <trkpt lat="48.71198" lon="1.70214">
        <ele>146</ele>
        <time>2014-04-23T08:41:14.000Z</time>
      </trkpt>
      <trkpt lat="48.71199" lon="1.70193">
        <ele>146.19999694824</ele>
        <time>2014-04-23T08:41:20.000Z</time>
      </trkpt>
      <trkpt lat="48.712" lon="1.70181">
        <ele>146.19999694824</ele>
        <time>2014-04-23T08:41:25.000Z</time>
      </trkpt>
      <trkpt lat="48.71203" lon="1.70162">
        <ele>146.19999694824</ele>
        <time>2014-04-23T08:41:34.000Z</time>
      </trkpt>
      <trkpt lat="48.71206" lon="1.70153">
        <ele>146</ele>
        <time>2014-04-23T08:41:40.000Z</time>
      </trkpt>
      <trkpt lat="48.71209" lon="1.70138">
        <ele>145.80000305176</ele>
        <time>2014-04-23T08:41:47.000Z</time>
      </trkpt>
      <trkpt lat="48.7121" lon="1.70124">
        <ele>145.80000305176</ele>
        <time>2014-04-23T08:41:53.000Z</time>
      </trkpt>
      <trkpt lat="48.71215" lon="1.70102">
        <ele>145.60000610352</ele>
        <time>2014-04-23T08:42:03.000Z</time>
      </trkpt>
      <trkpt lat="48.71217" lon="1.70097">
        <ele>145.60000610352</ele>
        <time>2014-04-23T08:42:05.000Z</time>
      </trkpt>
      <trkpt lat="48.71219" lon="1.70082">
        <ele>145.80000305176</ele>
        <time>2014-04-23T08:42:13.000Z</time>
      </trkpt>
      <trkpt lat="48.71222" lon="1.70074">
        <ele>145.80000305176</ele>
        <time>2014-04-23T08:42:19.000Z</time>
      </trkpt>
      <trkpt lat="48.71227" lon="1.70059">
        <ele>145.80000305176</ele>
        <time>2014-04-23T08:42:28.000Z</time>
      </trkpt>
      <trkpt lat="48.71231" lon="1.70045">
        <ele>145.60000610352</ele>
        <time>2014-04-23T08:42:36.000Z</time>
      </trkpt>
      <trkpt lat="48.71233" lon="1.70032">
        <ele>145.60000610352</ele>
        <time>2014-04-23T08:42:43.000Z</time>
      </trkpt>
      <trkpt lat="48.71236" lon="1.70019">
        <ele>145.80000305176</ele>
        <time>2014-04-23T08:42:50.000Z</time>
      </trkpt>
      <trkpt lat="48.71238" lon="1.70009">
        <ele>146.19999694824</ele>
        <time>2014-04-23T08:42:55.000Z</time>
      </trkpt>
      <trkpt lat="48.71239" lon="1.7">
        <ele>146.39999389648</ele>
        <time>2014-04-23T08:43:00.000Z</time>
      </trkpt>
      <trkpt lat="48.7124" lon="1.69984">
        <ele>146.80000305176</ele>
        <time>2014-04-23T08:43:08.000Z</time>
      </trkpt>
      <trkpt lat="48.7124" lon="1.69978">
        <ele>146.80000305176</ele>
        <time>2014-04-23T08:43:11.000Z</time>
      </trkpt>
      <trkpt lat="48.71239" lon="1.6996">
        <ele>146.80000305176</ele>
        <time>2014-04-23T08:43:19.000Z</time>
      </trkpt>
      <trkpt lat="48.71239" lon="1.69955">
        <ele>146.80000305176</ele>
        <time>2014-04-23T08:43:22.000Z</time>
      </trkpt>
      <trkpt lat="48.7124" lon="1.69938">
        <ele>147</ele>
        <time>2014-04-23T08:43:30.000Z</time>
      </trkpt>
      <trkpt lat="48.71241" lon="1.6992">
        <ele>147.19999694824</ele>
        <time>2014-04-23T08:43:39.000Z</time>
      </trkpt>
      <trkpt lat="48.71242" lon="1.69906">
        <ele>147.39999389648</ele>
        <time>2014-04-23T08:43:45.000Z</time>
      </trkpt>
      <trkpt lat="48.71243" lon="1.69891">
        <ele>147.39999389648</ele>
        <time>2014-04-23T08:43:51.000Z</time>
      </trkpt>
      <trkpt lat="48.71243" lon="1.69875">
        <ele>147.39999389648</ele>
        <time>2014-04-23T08:43:58.000Z</time>
      </trkpt>
      <trkpt lat="48.71244" lon="1.69857">
        <ele>147.39999389648</ele>
        <time>2014-04-23T08:44:06.000Z</time>
      </trkpt>
      <trkpt lat="48.71246" lon="1.69834">
        <ele>147.60000610352</ele>
        <time>2014-04-23T08:44:16.000Z</time>
      </trkpt>
      <trkpt lat="48.71247" lon="1.69821">
        <ele>147.80000305176</ele>
        <time>2014-04-23T08:44:22.000Z</time>
      </trkpt>
      <trkpt lat="48.71248" lon="1.69814">
        <ele>147.80000305176</ele>
        <time>2014-04-23T08:44:25.000Z</time>
      </trkpt>
      <trkpt lat="48.71246" lon="1.69799">
        <ele>147.60000610352</ele>
        <time>2014-04-23T08:44:31.000Z</time>
      </trkpt>
      <trkpt lat="48.71249" lon="1.6978">
        <ele>147.80000305176</ele>
        <time>2014-04-23T08:44:41.000Z</time>
      </trkpt>
      <trkpt lat="48.71254" lon="1.69765">
        <ele>147.80000305176</ele>
        <time>2014-04-23T08:44:50.000Z</time>
      </trkpt>
      <trkpt lat="48.71256" lon="1.6975">
        <ele>148</ele>
        <time>2014-04-23T08:44:58.000Z</time>
      </trkpt>
      <trkpt lat="48.71259" lon="1.69731">
        <ele>148.60000610352</ele>
        <time>2014-04-23T08:45:07.000Z</time>
      </trkpt>
      <trkpt lat="48.71262" lon="1.69714">
        <ele>149.39999389648</ele>
        <time>2014-04-23T08:45:16.000Z</time>
      </trkpt>
      <trkpt lat="48.71264" lon="1.69704">
        <ele>149.60000610352</ele>
        <time>2014-04-23T08:45:21.000Z</time>
      </trkpt>
      <trkpt lat="48.71266" lon="1.69686">
        <ele>150</ele>
        <time>2014-04-23T08:45:30.000Z</time>
      </trkpt>
      <trkpt lat="48.71269" lon="1.69676">
        <ele>150.19999694824</ele>
        <time>2014-04-23T08:45:36.000Z</time>
      </trkpt>
      <trkpt lat="48.71269" lon="1.69675">
        <ele>150.19999694824</ele>
        <time>2014-04-23T08:45:37.000Z</time>
      </trkpt>
      <trkpt lat="48.71272" lon="1.69662">
        <ele>150.60000610352</ele>
        <time>2014-04-23T08:45:44.000Z</time>
      </trkpt>
      <trkpt lat="48.71277" lon="1.69649">
        <ele>151</ele>
        <time>2014-04-23T08:45:51.000Z</time>
      </trkpt>
      <trkpt lat="48.7128" lon="1.69636">
        <ele>151.19999694824</ele>
        <time>2014-04-23T08:45:58.000Z</time>
      </trkpt>
      <trkpt lat="48.71281" lon="1.69628">
        <ele>151.60000610352</ele>
        <time>2014-04-23T08:46:02.000Z</time>
      </trkpt>
      <trkpt lat="48.71282" lon="1.69611">
        <ele>152</ele>
        <time>2014-04-23T08:46:09.000Z</time>
      </trkpt>
      <trkpt lat="48.71283" lon="1.69592">
        <ele>152.80000305176</ele>
        <time>2014-04-23T08:46:17.000Z</time>
      </trkpt>
      <trkpt lat="48.71283" lon="1.69579">
        <ele>153.19999694824</ele>
        <time>2014-04-23T08:46:23.000Z</time>
      </trkpt>
      <trkpt lat="48.71284" lon="1.69561">
        <ele>153</ele>
        <time>2014-04-23T08:46:31.000Z</time>
      </trkpt>
      <trkpt lat="48.71285" lon="1.69546">
        <ele>152.60000610352</ele>
        <time>2014-04-23T08:46:38.000Z</time>
      </trkpt>
      <trkpt lat="48.71287" lon="1.69534">
        <ele>152.19999694824</ele>
        <time>2014-04-23T08:46:44.000Z</time>
      </trkpt>
      <trkpt lat="48.71288" lon="1.69519">
        <ele>151.60000610352</ele>
        <time>2014-04-23T08:46:51.000Z</time>
      </trkpt>
      <trkpt lat="48.71289" lon="1.69517">
        <ele>151.60000610352</ele>
        <time>2014-04-23T08:46:52.000Z</time>
      </trkpt>
      <trkpt lat="48.7129" lon="1.69506">
        <ele>151.19999694824</ele>
        <time>2014-04-23T08:46:57.000Z</time>
      </trkpt>
      <trkpt lat="48.71292" lon="1.69492">
        <ele>150.39999389648</ele>
        <time>2014-04-23T08:47:04.000Z</time>
      </trkpt>
      <trkpt lat="48.71293" lon="1.69482">
        <ele>149.80000305176</ele>
        <time>2014-04-23T08:47:07.000Z</time>
      </trkpt>
      <trkpt lat="48.71294" lon="1.69464">
        <ele>148</ele>
        <time>2014-04-23T08:47:14.000Z</time>
      </trkpt>
      <trkpt lat="48.71295" lon="1.69459">
        <ele>147.60000610352</ele>
        <time>2014-04-23T08:47:16.000Z</time>
      </trkpt>
      <trkpt lat="48.71296" lon="1.69455">
        <ele>147.19999694824</ele>
        <time>2014-04-23T08:47:18.000Z</time>
      </trkpt>
      <trkpt lat="48.71297" lon="1.69442">
        <ele>146</ele>
        <time>2014-04-23T08:47:23.000Z</time>
      </trkpt>
      <trkpt lat="48.713" lon="1.69427">
        <ele>144.60000610352</ele>
        <time>2014-04-23T08:47:30.000Z</time>
      </trkpt>
      <trkpt lat="48.71305" lon="1.69413">
        <ele>143.80000305176</ele>
        <time>2014-04-23T08:47:37.000Z</time>
      </trkpt>
      <trkpt lat="48.7131" lon="1.69396">
        <ele>143</ele>
        <time>2014-04-23T08:47:45.000Z</time>
      </trkpt>
      <trkpt lat="48.71315" lon="1.69376">
        <ele>142.60000610352</ele>
        <time>2014-04-23T08:47:54.000Z</time>
      </trkpt>
      <trkpt lat="48.71317" lon="1.69363">
        <ele>142.19999694824</ele>
        <time>2014-04-23T08:48:00.000Z</time>
      </trkpt>
      <trkpt lat="48.7132" lon="1.69356">
        <ele>141.60000610352</ele>
        <time>2014-04-23T08:48:04.000Z</time>
      </trkpt>
      <trkpt lat="48.71321" lon="1.69352">
        <ele>141.19999694824</ele>
        <time>2014-04-23T08:48:06.000Z</time>
      </trkpt>
      <trkpt lat="48.71321" lon="1.69343">
        <ele>140.80000305176</ele>
        <time>2014-04-23T08:48:11.000Z</time>
      </trkpt>
      <trkpt lat="48.7132" lon="1.69332">
        <ele>140.39999389648</ele>
        <time>2014-04-23T08:48:16.000Z</time>
      </trkpt>
      <trkpt lat="48.7132" lon="1.69328">
        <ele>140.19999694824</ele>
        <time>2014-04-23T08:48:18.000Z</time>
      </trkpt>
      <trkpt lat="48.71322" lon="1.69317">
        <ele>139.60000610352</ele>
        <time>2014-04-23T08:48:24.000Z</time>
      </trkpt>
      <trkpt lat="48.71327" lon="1.69303">
        <ele>139</ele>
        <time>2014-04-23T08:48:32.000Z</time>
      </trkpt>
      <trkpt lat="48.71329" lon="1.69289">
        <ele>139</ele>
        <time>2014-04-23T08:48:38.000Z</time>
      </trkpt>
      <trkpt lat="48.71332" lon="1.69276">
        <ele>139</ele>
        <time>2014-04-23T08:48:45.000Z</time>
      </trkpt>
      <trkpt lat="48.71333" lon="1.69264">
        <ele>139.39999389648</ele>
        <time>2014-04-23T08:48:50.000Z</time>
      </trkpt>
      <trkpt lat="48.71334" lon="1.69257">
        <ele>139.39999389648</ele>
        <time>2014-04-23T08:48:53.000Z</time>
      </trkpt>
      <trkpt lat="48.71337" lon="1.69243">
        <ele>139.60000610352</ele>
        <time>2014-04-23T08:49:00.000Z</time>
      </trkpt>
      <trkpt lat="48.71339" lon="1.69228">
        <ele>139.80000305176</ele>
        <time>2014-04-23T08:49:07.000Z</time>
      </trkpt>
      <trkpt lat="48.71336" lon="1.6921">
        <ele>139.60000610352</ele>
        <time>2014-04-23T08:49:14.000Z</time>
      </trkpt>
      <trkpt lat="48.71334" lon="1.69207">
        <ele>139.60000610352</ele>
        <time>2014-04-23T08:49:18.000Z</time>
      </trkpt>
      <trkpt lat="48.71337" lon="1.6918">
        <ele>138.80000305176</ele>
        <time>2014-04-23T08:51:39.000Z</time>
      </trkpt>
      <trkpt lat="48.71339" lon="1.69167">
        <ele>138.39999389648</ele>
        <time>2014-04-23T08:51:45.000Z</time>
      </trkpt>
      <trkpt lat="48.71343" lon="1.69152">
        <ele>137.80000305176</ele>
        <time>2014-04-23T08:51:53.000Z</time>
      </trkpt>
      <trkpt lat="48.71346" lon="1.69138">
        <ele>138.39999389648</ele>
        <time>2014-04-23T08:52:01.000Z</time>
      </trkpt>
      <trkpt lat="48.71348" lon="1.69127">
        <ele>139</ele>
        <time>2014-04-23T08:52:08.000Z</time>
      </trkpt>
      <trkpt lat="48.71352" lon="1.69114">
        <ele>139.80000305176</ele>
        <time>2014-04-23T08:52:16.000Z</time>
      </trkpt>
      <trkpt lat="48.71353" lon="1.69108">
        <ele>140.19999694824</ele>
        <time>2014-04-23T08:52:20.000Z</time>
      </trkpt>
      <trkpt lat="48.71359" lon="1.69095">
        <ele>141</ele>
        <time>2014-04-23T08:52:27.000Z</time>
      </trkpt>
      <trkpt lat="48.71365" lon="1.69079">
        <ele>141.60000610352</ele>
        <time>2014-04-23T08:52:32.000Z</time>
      </trkpt>
      <trkpt lat="48.7137" lon="1.69068">
        <ele>141.60000610352</ele>
        <time>2014-04-23T08:52:39.000Z</time>
      </trkpt>
      <trkpt lat="48.71376" lon="1.69057">
        <ele>141.60000610352</ele>
        <time>2014-04-23T08:52:46.000Z</time>
      </trkpt>
      <trkpt lat="48.71382" lon="1.69047">
        <ele>141.60000610352</ele>
        <time>2014-04-23T08:52:53.000Z</time>
      </trkpt>
      <trkpt lat="48.71389" lon="1.69036">
        <ele>141.60000610352</ele>
        <time>2014-04-23T08:53:01.000Z</time>
      </trkpt>
      <trkpt lat="48.71396" lon="1.69022">
        <ele>141.60000610352</ele>
        <time>2014-04-23T08:53:09.000Z</time>
      </trkpt>
      <trkpt lat="48.71401" lon="1.69015">
        <ele>141</ele>
        <time>2014-04-23T08:53:14.000Z</time>
      </trkpt>
      <trkpt lat="48.71407" lon="1.69004">
        <ele>140.60000610352</ele>
        <time>2014-04-23T08:53:21.000Z</time>
      </trkpt>
      <trkpt lat="48.71409" lon="1.69002">
        <ele>140.39999389648</ele>
        <time>2014-04-23T08:53:23.000Z</time>
      </trkpt>
      <trkpt lat="48.71412" lon="1.6899">
        <ele>140.19999694824</ele>
        <time>2014-04-23T08:53:29.000Z</time>
      </trkpt>
      <trkpt lat="48.71417" lon="1.68979">
        <ele>140</ele>
        <time>2014-04-23T08:53:37.000Z</time>
      </trkpt>
      <trkpt lat="48.71421" lon="1.68963">
        <ele>140.19999694824</ele>
        <time>2014-04-23T08:53:44.000Z</time>
      </trkpt>
      <trkpt lat="48.71426" lon="1.6895">
        <ele>140</ele>
        <time>2014-04-23T08:53:50.000Z</time>
      </trkpt>
      <trkpt lat="48.7143" lon="1.68941">
        <ele>139.60000610352</ele>
        <time>2014-04-23T08:53:57.000Z</time>
      </trkpt>
      <trkpt lat="48.71433" lon="1.68936">
        <ele>139.39999389648</ele>
        <time>2014-04-23T08:54:00.000Z</time>
      </trkpt>
      <trkpt lat="48.71434" lon="1.68927">
        <ele>139.60000610352</ele>
        <time>2014-04-23T08:54:05.000Z</time>
      </trkpt>
      <trkpt lat="48.71431" lon="1.68916">
        <ele>140.39999389648</ele>
        <time>2014-04-23T08:54:12.000Z</time>
      </trkpt>
      <trkpt lat="48.71427" lon="1.68904">
        <ele>141.39999389648</ele>
        <time>2014-04-23T08:54:19.000Z</time>
      </trkpt>
      <trkpt lat="48.71426" lon="1.68903">
        <ele>141.60000610352</ele>
        <time>2014-04-23T08:54:20.000Z</time>
      </trkpt>
      <trkpt lat="48.71422" lon="1.68896">
        <ele>142.39999389648</ele>
        <time>2014-04-23T08:54:25.000Z</time>
      </trkpt>
      <trkpt lat="48.71419" lon="1.68885">
        <ele>143</ele>
        <time>2014-04-23T08:54:32.000Z</time>
      </trkpt>
      <trkpt lat="48.71416" lon="1.68874">
        <ele>143.80000305176</ele>
        <time>2014-04-23T08:54:39.000Z</time>
      </trkpt>
      <trkpt lat="48.71413" lon="1.68865">
        <ele>144.39999389648</ele>
        <time>2014-04-23T08:54:46.000Z</time>
      </trkpt>
      <trkpt lat="48.71412" lon="1.68859">
        <ele>144.80000305176</ele>
        <time>2014-04-23T08:54:49.000Z</time>
      </trkpt>
      <trkpt lat="48.71403" lon="1.68838">
        <ele>146.39999389648</ele>
        <time>2014-04-23T08:54:58.000Z</time>
      </trkpt>
      <trkpt lat="48.71401" lon="1.68834">
        <ele>146.80000305176</ele>
        <time>2014-04-23T08:55:01.000Z</time>
      </trkpt>
      <trkpt lat="48.71396" lon="1.68822">
        <ele>147.80000305176</ele>
        <time>2014-04-23T08:55:08.000Z</time>
      </trkpt>
      <trkpt lat="48.71394" lon="1.68811">
        <ele>148.19999694824</ele>
        <time>2014-04-23T08:55:15.000Z</time>
      </trkpt>
      <trkpt lat="48.71392" lon="1.68806">
        <ele>148.39999389648</ele>
        <time>2014-04-23T08:55:18.000Z</time>
      </trkpt>
      <trkpt lat="48.71388" lon="1.68798">
        <ele>149</ele>
        <time>2014-04-23T08:55:23.000Z</time>
      </trkpt>
      <trkpt lat="48.71385" lon="1.68787">
        <ele>149.39999389648</ele>
        <time>2014-04-23T08:55:30.000Z</time>
      </trkpt>
      <trkpt lat="48.71381" lon="1.68775">
        <ele>150</ele>
        <time>2014-04-23T08:55:37.000Z</time>
      </trkpt>
      <trkpt lat="48.71381" lon="1.68773">
        <ele>150</ele>
        <time>2014-04-23T08:55:38.000Z</time>
      </trkpt>
      <trkpt lat="48.71377" lon="1.68762">
        <ele>150.60000610352</ele>
        <time>2014-04-23T08:55:46.000Z</time>
      </trkpt>
      <trkpt lat="48.71369" lon="1.68752">
        <ele>151.80000305176</ele>
        <time>2014-04-23T08:55:54.000Z</time>
      </trkpt>
      <trkpt lat="48.71366" lon="1.68741">
        <ele>152.60000610352</ele>
        <time>2014-04-23T08:56:01.000Z</time>
      </trkpt>
      <trkpt lat="48.7136" lon="1.68727">
        <ele>153.39999389648</ele>
        <time>2014-04-23T08:56:11.000Z</time>
      </trkpt>
      <trkpt lat="48.71356" lon="1.68716">
        <ele>153.80000305176</ele>
        <time>2014-04-23T08:56:18.000Z</time>
      </trkpt>
      <trkpt lat="48.71348" lon="1.687">
        <ele>155</ele>
        <time>2014-04-23T08:56:27.000Z</time>
      </trkpt>
      <trkpt lat="48.71345" lon="1.6869">
        <ele>155.39999389648</ele>
        <time>2014-04-23T08:56:34.000Z</time>
      </trkpt>
      <trkpt lat="48.71342" lon="1.68679">
        <ele>156</ele>
        <time>2014-04-23T08:56:40.000Z</time>
      </trkpt>
      <trkpt lat="48.71339" lon="1.68662">
        <ele>156.39999389648</ele>
        <time>2014-04-23T08:56:48.000Z</time>
      </trkpt>
      <trkpt lat="48.71338" lon="1.68658">
        <ele>156.60000610352</ele>
        <time>2014-04-23T08:56:50.000Z</time>
      </trkpt>
      <trkpt lat="48.71333" lon="1.68641">
        <ele>156.80000305176</ele>
        <time>2014-04-23T08:56:59.000Z</time>
      </trkpt>
      <trkpt lat="48.71332" lon="1.68637">
        <ele>156.80000305176</ele>
        <time>2014-04-23T08:57:00.000Z</time>
      </trkpt>
      <trkpt lat="48.71329" lon="1.68625">
        <ele>156.80000305176</ele>
        <time>2014-04-23T08:57:06.000Z</time>
      </trkpt>
      <trkpt lat="48.71328" lon="1.68623">
        <ele>156.80000305176</ele>
        <time>2014-04-23T08:57:07.000Z</time>
      </trkpt>
      <trkpt lat="48.71328" lon="1.68606">
        <ele>156.60000610352</ele>
        <time>2014-04-23T08:57:15.000Z</time>
      </trkpt>
      <trkpt lat="48.71326" lon="1.68589">
        <ele>156.39999389648</ele>
        <time>2014-04-23T08:57:23.000Z</time>
      </trkpt>
      <trkpt lat="48.71323" lon="1.68575">
        <ele>156.60000610352</ele>
        <time>2014-04-23T08:57:29.000Z</time>
      </trkpt>
      <trkpt lat="48.71321" lon="1.6856">
        <ele>156.19999694824</ele>
        <time>2014-04-23T08:57:36.000Z</time>
      </trkpt>
      <trkpt lat="48.71317" lon="1.68541">
        <ele>156</ele>
        <time>2014-04-23T08:57:44.000Z</time>
      </trkpt>
      <trkpt lat="48.71314" lon="1.68526">
        <ele>155.80000305176</ele>
        <time>2014-04-23T08:57:51.000Z</time>
      </trkpt>
      <trkpt lat="48.71309" lon="1.68509">
        <ele>155.60000610352</ele>
        <time>2014-04-23T08:57:59.000Z</time>
      </trkpt>
      <trkpt lat="48.71302" lon="1.68489">
        <ele>156</ele>
        <time>2014-04-23T08:58:10.000Z</time>
      </trkpt>
      <trkpt lat="48.71295" lon="1.6848">
        <ele>156.39999389648</ele>
        <time>2014-04-23T08:58:18.000Z</time>
      </trkpt>
      <trkpt lat="48.71286" lon="1.6847">
        <ele>157</ele>
        <time>2014-04-23T08:58:26.000Z</time>
      </trkpt>
      <trkpt lat="48.71274" lon="1.68461">
        <ele>158</ele>
        <time>2014-04-23T08:58:35.000Z</time>
      </trkpt>
      <trkpt lat="48.71263" lon="1.68454">
        <ele>159</ele>
        <time>2014-04-23T08:58:43.000Z</time>
      </trkpt>
      <trkpt lat="48.71256" lon="1.68447">
        <ele>159.60000610352</ele>
        <time>2014-04-23T08:58:48.000Z</time>
      </trkpt>
      <trkpt lat="48.71247" lon="1.68442">
        <ele>160.39999389648</ele>
        <time>2014-04-23T08:58:55.000Z</time>
      </trkpt>
      <trkpt lat="48.71244" lon="1.68434">
        <ele>160.39999389648</ele>
        <time>2014-04-23T08:58:59.000Z</time>
      </trkpt>
      <trkpt lat="48.71238" lon="1.68421">
        <ele>160.39999389648</ele>
        <time>2014-04-23T08:59:05.000Z</time>
      </trkpt>
      <trkpt lat="48.71231" lon="1.68408">
        <ele>160.39999389648</ele>
        <time>2014-04-23T08:59:11.000Z</time>
      </trkpt>
      <trkpt lat="48.71225" lon="1.68391">
        <ele>161.19999694824</ele>
        <time>2014-04-23T08:59:16.000Z</time>
      </trkpt>
      <trkpt lat="48.71217" lon="1.68369">
        <ele>162.39999389648</ele>
        <time>2014-04-23T08:59:21.000Z</time>
      </trkpt>
      <trkpt lat="48.7121" lon="1.68342">
        <ele>163.60000610352</ele>
        <time>2014-04-23T08:59:27.000Z</time>
      </trkpt>
      <trkpt lat="48.71207" lon="1.68315">
        <ele>163.60000610352</ele>
        <time>2014-04-23T08:59:32.000Z</time>
      </trkpt>
      <trkpt lat="48.71206" lon="1.68301">
        <ele>164.60000610352</ele>
        <time>2014-04-23T08:59:36.000Z</time>
      </trkpt>
      <trkpt lat="48.71206" lon="1.68292">
        <ele>165</ele>
        <time>2014-04-23T08:59:40.000Z</time>
      </trkpt>
      <trkpt lat="48.71202" lon="1.68275">
        <ele>166.60000610352</ele>
        <time>2014-04-23T08:59:47.000Z</time>
      </trkpt>
      <trkpt lat="48.712" lon="1.68264">
        <ele>167.19999694824</ele>
        <time>2014-04-23T08:59:52.000Z</time>
      </trkpt>
      <trkpt lat="48.712" lon="1.68255">
        <ele>167.80000305176</ele>
        <time>2014-04-23T08:59:56.000Z</time>
      </trkpt>
      <trkpt lat="48.71198" lon="1.68234">
        <ele>168.19999694824</ele>
        <time>2014-04-23T09:00:04.000Z</time>
      </trkpt>
      <trkpt lat="48.71198" lon="1.68228">
        <ele>168.19999694824</ele>
        <time>2014-04-23T09:00:07.000Z</time>
      </trkpt>
      <trkpt lat="48.71192" lon="1.68214">
        <ele>169.39999389648</ele>
        <time>2014-04-23T09:00:15.000Z</time>
      </trkpt>
      <trkpt lat="48.71193" lon="1.68202">
        <ele>169.19999694824</ele>
        <time>2014-04-23T09:00:21.000Z</time>
      </trkpt>
      <trkpt lat="48.71194" lon="1.68186">
        <ele>168.60000610352</ele>
        <time>2014-04-23T09:00:27.000Z</time>
      </trkpt>
      <trkpt lat="48.71193" lon="1.68172">
        <ele>168.80000305176</ele>
        <time>2014-04-23T09:00:33.000Z</time>
      </trkpt>
      <trkpt lat="48.7119" lon="1.6816">
        <ele>169.39999389648</ele>
        <time>2014-04-23T09:00:40.000Z</time>
      </trkpt>
      <trkpt lat="48.71189" lon="1.68155">
        <ele>169.60000610352</ele>
        <time>2014-04-23T09:00:42.000Z</time>
      </trkpt>
      <trkpt lat="48.71181" lon="1.68143">
        <ele>170.80000305176</ele>
        <time>2014-04-23T09:00:49.000Z</time>
      </trkpt>
      <trkpt lat="48.71173" lon="1.68137">
        <ele>171.80000305176</ele>
        <time>2014-04-23T09:00:55.000Z</time>
      </trkpt>
      <trkpt lat="48.71165" lon="1.68132">
        <ele>172.60000610352</ele>
        <time>2014-04-23T09:01:00.000Z</time>
      </trkpt>
      <trkpt lat="48.71161" lon="1.68128">
        <ele>173.19999694824</ele>
        <time>2014-04-23T09:01:03.000Z</time>
      </trkpt>
      <trkpt lat="48.71153" lon="1.68121">
        <ele>174</ele>
        <time>2014-04-23T09:01:09.000Z</time>
      </trkpt>
      <trkpt lat="48.71155" lon="1.6811">
        <ele>174</ele>
        <time>2014-04-23T09:01:15.000Z</time>
      </trkpt>
      <trkpt lat="48.71152" lon="1.68101">
        <ele>174.39999389648</ele>
        <time>2014-04-23T09:01:20.000Z</time>
      </trkpt>
      <trkpt lat="48.71148" lon="1.68099">
        <ele>174.80000305176</ele>
        <time>2014-04-23T09:01:23.000Z</time>
      </trkpt>
      <trkpt lat="48.71142" lon="1.68096">
        <ele>175.60000610352</ele>
        <time>2014-04-23T09:01:28.000Z</time>
      </trkpt>
      <trkpt lat="48.71134" lon="1.68093">
        <ele>176.39999389648</ele>
        <time>2014-04-23T09:01:34.000Z</time>
      </trkpt>
      <trkpt lat="48.71129" lon="1.68086">
        <ele>177</ele>
        <time>2014-04-23T09:01:38.000Z</time>
      </trkpt>
      <trkpt lat="48.71122" lon="1.68077">
        <ele>178</ele>
        <time>2014-04-23T09:01:45.000Z</time>
      </trkpt>
      <trkpt lat="48.71116" lon="1.68075">
        <ele>178.60000610352</ele>
        <time>2014-04-23T09:01:49.000Z</time>
      </trkpt>
      <trkpt lat="48.71107" lon="1.68074">
        <ele>179.60000610352</ele>
        <time>2014-04-23T09:01:57.000Z</time>
      </trkpt>
      <trkpt lat="48.71097" lon="1.68073">
        <ele>180.19999694824</ele>
        <time>2014-04-23T09:02:04.000Z</time>
      </trkpt>
      <trkpt lat="48.71095" lon="1.68072">
        <ele>180.19999694824</ele>
        <time>2014-04-23T09:02:08.000Z</time>
      </trkpt>
      <trkpt lat="48.7109" lon="1.68071">
        <ele>180.39999389648</ele>
        <time>2014-04-23T09:02:12.000Z</time>
      </trkpt>
      <trkpt lat="48.71089" lon="1.68074">
        <ele>180.19999694824</ele>
        <time>2014-04-23T09:02:18.000Z</time>
      </trkpt>
      <trkpt lat="48.7108" lon="1.68071">
        <ele>180.60000610352</ele>
        <time>2014-04-23T09:02:29.000Z</time>
      </trkpt>
      <trkpt lat="48.71073" lon="1.68068">
        <ele>180.80000305176</ele>
        <time>2014-04-23T09:02:35.000Z</time>
      </trkpt>
      <trkpt lat="48.71071" lon="1.68067">
        <ele>180.80000305176</ele>
        <time>2014-04-23T09:02:37.000Z</time>
      </trkpt>
      <trkpt lat="48.7106" lon="1.68064">
        <ele>180.80000305176</ele>
        <time>2014-04-23T09:02:45.000Z</time>
      </trkpt>
      <trkpt lat="48.71056" lon="1.68063">
        <ele>181</ele>
        <time>2014-04-23T09:02:48.000Z</time>
      </trkpt>
      <trkpt lat="48.71045" lon="1.68066">
        <ele>181.39999389648</ele>
        <time>2014-04-23T09:02:56.000Z</time>
      </trkpt>
      <trkpt lat="48.71042" lon="1.68065">
        <ele>181.39999389648</ele>
        <time>2014-04-23T09:02:58.000Z</time>
      </trkpt>
      <trkpt lat="48.71034" lon="1.68064">
        <ele>181.60000610352</ele>
        <time>2014-04-23T09:03:05.000Z</time>
      </trkpt>
      <trkpt lat="48.71032" lon="1.68064">
        <ele>181.60000610352</ele>
        <time>2014-04-23T09:03:07.000Z</time>
      </trkpt>
      <trkpt lat="48.71022" lon="1.68065">
        <ele>181.80000305176</ele>
        <time>2014-04-23T09:03:14.000Z</time>
      </trkpt>
      <trkpt lat="48.7102" lon="1.68067">
        <ele>182</ele>
        <time>2014-04-23T09:03:18.000Z</time>
      </trkpt>
      <trkpt lat="48.71017" lon="1.68066">
        <ele>182.19999694824</ele>
        <time>2014-04-23T09:03:21.000Z</time>
      </trkpt>
      <trkpt lat="48.71009" lon="1.68065">
        <ele>182.39999389648</ele>
        <time>2014-04-23T09:03:26.000Z</time>
      </trkpt>
      <trkpt lat="48.71" lon="1.68063">
        <ele>183</ele>
        <time>2014-04-23T09:03:32.000Z</time>
      </trkpt>
      <trkpt lat="48.70994" lon="1.68056">
        <ele>183.19999694824</ele>
        <time>2014-04-23T09:03:37.000Z</time>
      </trkpt>
      <trkpt lat="48.70991" lon="1.68048">
        <ele>183.60000610352</ele>
        <time>2014-04-23T09:03:42.000Z</time>
      </trkpt>
      <trkpt lat="48.7099" lon="1.6804">
        <ele>183.80000305176</ele>
        <time>2014-04-23T09:03:46.000Z</time>
      </trkpt>
      <trkpt lat="48.70989" lon="1.68033">
        <ele>183.80000305176</ele>
        <time>2014-04-23T09:03:50.000Z</time>
      </trkpt>
      <trkpt lat="48.70992" lon="1.6802">
        <ele>183.19999694824</ele>
        <time>2014-04-23T09:03:57.000Z</time>
      </trkpt>
      <trkpt lat="48.70992" lon="1.68017">
        <ele>183</ele>
        <time>2014-04-23T09:03:59.000Z</time>
      </trkpt>
      <trkpt lat="48.70993" lon="1.68012">
        <ele>183</ele>
        <time>2014-04-23T09:04:02.000Z</time>
      </trkpt>
      <trkpt lat="48.70991" lon="1.68006">
        <ele>183</ele>
        <time>2014-04-23T09:04:06.000Z</time>
      </trkpt>
      <trkpt lat="48.70983" lon="1.67992">
        <ele>183.19999694824</ele>
        <time>2014-04-23T09:04:13.000Z</time>
      </trkpt>
      <trkpt lat="48.70979" lon="1.67989">
        <ele>183.60000610352</ele>
        <time>2014-04-23T09:04:16.000Z</time>
      </trkpt>
      <trkpt lat="48.70971" lon="1.67984">
        <ele>184</ele>
        <time>2014-04-23T09:04:22.000Z</time>
      </trkpt>
      <trkpt lat="48.70959" lon="1.6798">
        <ele>185</ele>
        <time>2014-04-23T09:04:31.000Z</time>
      </trkpt>
      <trkpt lat="48.7095" lon="1.6798">
        <ele>185.80000305176</ele>
        <time>2014-04-23T09:04:37.000Z</time>
      </trkpt>
      <trkpt lat="48.70941" lon="1.67977">
        <ele>186.39999389648</ele>
        <time>2014-04-23T09:04:44.000Z</time>
      </trkpt>
      <trkpt lat="48.70931" lon="1.67968">
        <ele>186.80000305176</ele>
        <time>2014-04-23T09:04:51.000Z</time>
      </trkpt>
      <trkpt lat="48.70921" lon="1.67962">
        <ele>187</ele>
        <time>2014-04-23T09:05:00.000Z</time>
      </trkpt>
      <trkpt lat="48.70912" lon="1.67957">
        <ele>187.19999694824</ele>
        <time>2014-04-23T09:05:06.000Z</time>
      </trkpt>
      <trkpt lat="48.70903" lon="1.67951">
        <ele>187.39999389648</ele>
        <time>2014-04-23T09:05:12.000Z</time>
      </trkpt>
      <trkpt lat="48.70892" lon="1.67944">
        <ele>187.60000610352</ele>
        <time>2014-04-23T09:05:19.000Z</time>
      </trkpt>
      <trkpt lat="48.70885" lon="1.67945">
        <ele>188</ele>
        <time>2014-04-23T09:05:24.000Z</time>
      </trkpt>
      <trkpt lat="48.70879" lon="1.6794">
        <ele>188.19999694824</ele>
        <time>2014-04-23T09:05:30.000Z</time>
      </trkpt>
      <trkpt lat="48.70868" lon="1.67934">
        <ele>188.39999389648</ele>
        <time>2014-04-23T09:05:38.000Z</time>
      </trkpt>
      <trkpt lat="48.70865" lon="1.67932">
        <ele>188.39999389648</ele>
        <time>2014-04-23T09:05:42.000Z</time>
      </trkpt>
      <trkpt lat="48.70856" lon="1.67929">
        <ele>188.80000305176</ele>
        <time>2014-04-23T09:05:47.000Z</time>
      </trkpt>
      <trkpt lat="48.70847" lon="1.67922">
        <ele>188.80000305176</ele>
        <time>2014-04-23T09:05:54.000Z</time>
      </trkpt>
      <trkpt lat="48.70845" lon="1.67922">
        <ele>188.80000305176</ele>
        <time>2014-04-23T09:05:55.000Z</time>
      </trkpt>
      <trkpt lat="48.70838" lon="1.67915">
        <ele>188.80000305176</ele>
        <time>2014-04-23T09:06:01.000Z</time>
      </trkpt>
      <trkpt lat="48.70836" lon="1.67915">
        <ele>188.80000305176</ele>
        <time>2014-04-23T09:06:02.000Z</time>
      </trkpt>
      <trkpt lat="48.70831" lon="1.67913">
        <ele>189</ele>
        <time>2014-04-23T09:06:06.000Z</time>
      </trkpt>
      <trkpt lat="48.70824" lon="1.6791">
        <ele>189</ele>
        <time>2014-04-23T09:06:11.000Z</time>
      </trkpt>
      <trkpt lat="48.70817" lon="1.67906">
        <ele>189</ele>
        <time>2014-04-23T09:06:16.000Z</time>
      </trkpt>
      <trkpt lat="48.70808" lon="1.67901">
        <ele>189</ele>
        <time>2014-04-23T09:06:24.000Z</time>
      </trkpt>
      <trkpt lat="48.70807" lon="1.679">
        <ele>189</ele>
        <time>2014-04-23T09:06:25.000Z</time>
      </trkpt>
      <trkpt lat="48.70796" lon="1.67896">
        <ele>189.19999694824</ele>
        <time>2014-04-23T09:06:33.000Z</time>
      </trkpt>
      <trkpt lat="48.70785" lon="1.67893">
        <ele>189.60000610352</ele>
        <time>2014-04-23T09:06:41.000Z</time>
      </trkpt>
      <trkpt lat="48.70777" lon="1.67882">
        <ele>189.60000610352</ele>
        <time>2014-04-23T09:06:47.000Z</time>
      </trkpt>
      <trkpt lat="48.70767" lon="1.67875">
        <ele>189.60000610352</ele>
        <time>2014-04-23T09:06:55.000Z</time>
      </trkpt>
      <trkpt lat="48.70761" lon="1.67873">
        <ele>189.19999694824</ele>
        <time>2014-04-23T09:07:00.000Z</time>
      </trkpt>
      <trkpt lat="48.70753" lon="1.67872">
        <ele>188.80000305176</ele>
        <time>2014-04-23T09:07:05.000Z</time>
      </trkpt>
      <trkpt lat="48.70741" lon="1.67869">
        <ele>188.19999694824</ele>
        <time>2014-04-23T09:07:14.000Z</time>
      </trkpt>
      <trkpt lat="48.70733" lon="1.67867">
        <ele>187.80000305176</ele>
        <time>2014-04-23T09:07:19.000Z</time>
      </trkpt>
      <trkpt lat="48.70724" lon="1.6786">
        <ele>187.19999694824</ele>
        <time>2014-04-23T09:07:27.000Z</time>
      </trkpt>
      <trkpt lat="48.70716" lon="1.67851">
        <ele>186.80000305176</ele>
        <time>2014-04-23T09:07:33.000Z</time>
      </trkpt>
      <trkpt lat="48.70709" lon="1.67844">
        <ele>186.19999694824</ele>
        <time>2014-04-23T09:07:40.000Z</time>
      </trkpt>
      <trkpt lat="48.707" lon="1.67839">
        <ele>185.80000305176</ele>
        <time>2014-04-23T09:07:47.000Z</time>
      </trkpt>
      <trkpt lat="48.70691" lon="1.67837">
        <ele>185</ele>
        <time>2014-04-23T09:07:54.000Z</time>
      </trkpt>
      <trkpt lat="48.7069" lon="1.67835">
        <ele>185</ele>
        <time>2014-04-23T09:07:55.000Z</time>
      </trkpt>
      <trkpt lat="48.70682" lon="1.67831">
        <ele>184.80000305176</ele>
        <time>2014-04-23T09:08:02.000Z</time>
      </trkpt>
      <trkpt lat="48.70679" lon="1.67827">
        <ele>184.80000305176</ele>
        <time>2014-04-23T09:08:05.000Z</time>
      </trkpt>
      <trkpt lat="48.7067" lon="1.6782">
        <ele>184.60000610352</ele>
        <time>2014-04-23T09:08:13.000Z</time>
      </trkpt>
      <trkpt lat="48.70665" lon="1.6782">
        <ele>184.39999389648</ele>
        <time>2014-04-23T09:08:17.000Z</time>
      </trkpt>
      <trkpt lat="48.70656" lon="1.67818">
        <ele>184.39999389648</ele>
        <time>2014-04-23T09:08:23.000Z</time>
      </trkpt>
      <trkpt lat="48.70653" lon="1.67815">
        <ele>184.39999389648</ele>
        <time>2014-04-23T09:08:26.000Z</time>
      </trkpt>
      <trkpt lat="48.70643" lon="1.67809">
        <ele>184.39999389648</ele>
        <time>2014-04-23T09:08:33.000Z</time>
      </trkpt>
      <trkpt lat="48.70642" lon="1.67808">
        <ele>184.39999389648</ele>
        <time>2014-04-23T09:08:34.000Z</time>
      </trkpt>
      <trkpt lat="48.70632" lon="1.67801">
        <ele>184.60000610352</ele>
        <time>2014-04-23T09:08:42.000Z</time>
      </trkpt>
      <trkpt lat="48.70624" lon="1.67796">
        <ele>184.60000610352</ele>
        <time>2014-04-23T09:08:48.000Z</time>
      </trkpt>
      <trkpt lat="48.70617" lon="1.67792">
        <ele>184.60000610352</ele>
        <time>2014-04-23T09:08:54.000Z</time>
      </trkpt>
      <trkpt lat="48.70615" lon="1.67792">
        <ele>184.60000610352</ele>
        <time>2014-04-23T09:08:57.000Z</time>
      </trkpt>
      <trkpt lat="48.70612" lon="1.67792">
        <ele>184.60000610352</ele>
        <time>2014-04-23T09:08:59.000Z</time>
      </trkpt>
      <trkpt lat="48.70603" lon="1.67786">
        <ele>184.60000610352</ele>
        <time>2014-04-23T09:09:07.000Z</time>
      </trkpt>
      <trkpt lat="48.70602" lon="1.67785">
        <ele>184.60000610352</ele>
        <time>2014-04-23T09:09:08.000Z</time>
      </trkpt>
      <trkpt lat="48.70594" lon="1.6778">
        <ele>184.39999389648</ele>
        <time>2014-04-23T09:09:14.000Z</time>
      </trkpt>
      <trkpt lat="48.70585" lon="1.67773">
        <ele>184.39999389648</ele>
        <time>2014-04-23T09:09:21.000Z</time>
      </trkpt>
      <trkpt lat="48.70576" lon="1.67772">
        <ele>184</ele>
        <time>2014-04-23T09:09:26.000Z</time>
      </trkpt>
      <trkpt lat="48.70568" lon="1.67767">
        <ele>183.80000305176</ele>
        <time>2014-04-23T09:09:33.000Z</time>
      </trkpt>
      <trkpt lat="48.70556" lon="1.67763">
        <ele>183.39999389648</ele>
        <time>2014-04-23T09:09:41.000Z</time>
      </trkpt>
      <trkpt lat="48.70549" lon="1.67758">
        <ele>183.39999389648</ele>
        <time>2014-04-23T09:09:47.000Z</time>
      </trkpt>
      <trkpt lat="48.70545" lon="1.67756">
        <ele>183.19999694824</ele>
        <time>2014-04-23T09:09:50.000Z</time>
      </trkpt>
      <trkpt lat="48.70538" lon="1.67752">
        <ele>183.19999694824</ele>
        <time>2014-04-23T09:09:55.000Z</time>
      </trkpt>
      <trkpt lat="48.70524" lon="1.67743">
        <ele>183</ele>
        <time>2014-04-23T09:10:05.000Z</time>
      </trkpt>
      <trkpt lat="48.70513" lon="1.67736">
        <ele>183</ele>
        <time>2014-04-23T09:10:13.000Z</time>
      </trkpt>
      <trkpt lat="48.70503" lon="1.67728">
        <ele>183.19999694824</ele>
        <time>2014-04-23T09:10:21.000Z</time>
      </trkpt>
      <trkpt lat="48.70497" lon="1.67725">
        <ele>183.39999389648</ele>
        <time>2014-04-23T09:10:27.000Z</time>
      </trkpt>
      <trkpt lat="48.70489" lon="1.67721">
        <ele>183.60000610352</ele>
        <time>2014-04-23T09:10:34.000Z</time>
      </trkpt>
      <trkpt lat="48.70481" lon="1.67716">
        <ele>183.80000305176</ele>
        <time>2014-04-23T09:10:40.000Z</time>
      </trkpt>
      <trkpt lat="48.7047" lon="1.67708">
        <ele>184</ele>
        <time>2014-04-23T09:10:48.000Z</time>
      </trkpt>
      <trkpt lat="48.70462" lon="1.67702">
        <ele>184.19999694824</ele>
        <time>2014-04-23T09:10:54.000Z</time>
      </trkpt>
      <trkpt lat="48.70451" lon="1.67695">
        <ele>184.39999389648</ele>
        <time>2014-04-23T09:11:02.000Z</time>
      </trkpt>
      <trkpt lat="48.70446" lon="1.67691">
        <ele>184.60000610352</ele>
        <time>2014-04-23T09:11:06.000Z</time>
      </trkpt>
      <trkpt lat="48.70433" lon="1.67687">
        <ele>184.80000305176</ele>
        <time>2014-04-23T09:11:15.000Z</time>
      </trkpt>
      <trkpt lat="48.70426" lon="1.67684">
        <ele>184.80000305176</ele>
        <time>2014-04-23T09:11:20.000Z</time>
      </trkpt>
      <trkpt lat="48.70417" lon="1.67678">
        <ele>185</ele>
        <time>2014-04-23T09:11:27.000Z</time>
      </trkpt>
      <trkpt lat="48.70404" lon="1.6767">
        <ele>185.39999389648</ele>
        <time>2014-04-23T09:11:37.000Z</time>
      </trkpt>
      <trkpt lat="48.70392" lon="1.67665">
        <ele>185.60000610352</ele>
        <time>2014-04-23T09:11:45.000Z</time>
      </trkpt>
      <trkpt lat="48.7039" lon="1.67664">
        <ele>185.60000610352</ele>
        <time>2014-04-23T09:11:47.000Z</time>
      </trkpt>
      <trkpt lat="48.70378" lon="1.67659">
        <ele>185.80000305176</ele>
        <time>2014-04-23T09:11:56.000Z</time>
      </trkpt>
      <trkpt lat="48.70376" lon="1.67657">
        <ele>185.80000305176</ele>
        <time>2014-04-23T09:11:58.000Z</time>
      </trkpt>
      <trkpt lat="48.70369" lon="1.67651">
        <ele>186</ele>
        <time>2014-04-23T09:12:04.000Z</time>
      </trkpt>
      <trkpt lat="48.70358" lon="1.67646">
        <ele>186</ele>
        <time>2014-04-23T09:12:11.000Z</time>
      </trkpt>
      <trkpt lat="48.7035" lon="1.67642">
        <ele>185.60000610352</ele>
        <time>2014-04-23T09:12:17.000Z</time>
      </trkpt>
      <trkpt lat="48.70338" lon="1.67634">
        <ele>184.60000610352</ele>
        <time>2014-04-23T09:12:26.000Z</time>
      </trkpt>
      <trkpt lat="48.70328" lon="1.67628">
        <ele>183.80000305176</ele>
        <time>2014-04-23T09:12:33.000Z</time>
      </trkpt>
      <trkpt lat="48.70316" lon="1.67625">
        <ele>183.39999389648</ele>
        <time>2014-04-23T09:12:40.000Z</time>
      </trkpt>
      <trkpt lat="48.70308" lon="1.67621">
        <ele>182.80000305176</ele>
        <time>2014-04-23T09:12:46.000Z</time>
      </trkpt>
      <trkpt lat="48.70299" lon="1.67617">
        <ele>182.39999389648</ele>
        <time>2014-04-23T09:12:53.000Z</time>
      </trkpt>
      <trkpt lat="48.70289" lon="1.67613">
        <ele>181.80000305176</ele>
        <time>2014-04-23T09:13:00.000Z</time>
      </trkpt>
      <trkpt lat="48.70281" lon="1.67609">
        <ele>181.19999694824</ele>
        <time>2014-04-23T09:13:06.000Z</time>
      </trkpt>
      <trkpt lat="48.70271" lon="1.67603">
        <ele>180.60000610352</ele>
        <time>2014-04-23T09:13:14.000Z</time>
      </trkpt>
      <trkpt lat="48.70268" lon="1.67601">
        <ele>180.39999389648</ele>
        <time>2014-04-23T09:13:16.000Z</time>
      </trkpt>
      <trkpt lat="48.70257" lon="1.67596">
        <ele>179.39999389648</ele>
        <time>2014-04-23T09:13:24.000Z</time>
      </trkpt>
      <trkpt lat="48.70244" lon="1.67589">
        <ele>178.39999389648</ele>
        <time>2014-04-23T09:13:32.000Z</time>
      </trkpt>
      <trkpt lat="48.70233" lon="1.67581">
        <ele>177.39999389648</ele>
        <time>2014-04-23T09:13:39.000Z</time>
      </trkpt>
      <trkpt lat="48.70229" lon="1.67579">
        <ele>177</ele>
        <time>2014-04-23T09:13:42.000Z</time>
      </trkpt>
      <trkpt lat="48.70221" lon="1.67575">
        <ele>176.39999389648</ele>
        <time>2014-04-23T09:13:49.000Z</time>
      </trkpt>
      <trkpt lat="48.70211" lon="1.67568">
        <ele>175.39999389648</ele>
        <time>2014-04-23T09:13:57.000Z</time>
      </trkpt>
      <trkpt lat="48.70202" lon="1.67567">
        <ele>174.80000305176</ele>
        <time>2014-04-23T09:14:03.000Z</time>
      </trkpt>
      <trkpt lat="48.70193" lon="1.67566">
        <ele>174.19999694824</ele>
        <time>2014-04-23T09:14:09.000Z</time>
      </trkpt>
      <trkpt lat="48.70186" lon="1.67562">
        <ele>173.39999389648</ele>
        <time>2014-04-23T09:14:14.000Z</time>
      </trkpt>
      <trkpt lat="48.70179" lon="1.67555">
        <ele>172.80000305176</ele>
        <time>2014-04-23T09:14:19.000Z</time>
      </trkpt>
      <trkpt lat="48.70171" lon="1.67548">
        <ele>172</ele>
        <time>2014-04-23T09:14:25.000Z</time>
      </trkpt>
      <trkpt lat="48.70159" lon="1.6754">
        <ele>170.80000305176</ele>
        <time>2014-04-23T09:14:33.000Z</time>
      </trkpt>
      <trkpt lat="48.70146" lon="1.67532">
        <ele>169.60000610352</ele>
        <time>2014-04-23T09:14:42.000Z</time>
      </trkpt>
      <trkpt lat="48.70137" lon="1.67527">
        <ele>168.80000305176</ele>
        <time>2014-04-23T09:14:49.000Z</time>
      </trkpt>
      <trkpt lat="48.70125" lon="1.67521">
        <ele>167.39999389648</ele>
        <time>2014-04-23T09:14:59.000Z</time>
      </trkpt>
      <trkpt lat="48.70118" lon="1.67518">
        <ele>166.80000305176</ele>
        <time>2014-04-23T09:15:06.000Z</time>
      </trkpt>
      <trkpt lat="48.70112" lon="1.67516">
        <ele>166.19999694824</ele>
        <time>2014-04-23T09:15:13.000Z</time>
      </trkpt>
      <trkpt lat="48.70103" lon="1.67513">
        <ele>165.19999694824</ele>
        <time>2014-04-23T09:15:19.000Z</time>
      </trkpt>
      <trkpt lat="48.70092" lon="1.67509">
        <ele>164.60000610352</ele>
        <time>2014-04-23T09:15:26.000Z</time>
      </trkpt>
      <trkpt lat="48.70084" lon="1.67503">
        <ele>164</ele>
        <time>2014-04-23T09:15:32.000Z</time>
      </trkpt>
      <trkpt lat="48.70073" lon="1.67494">
        <ele>163.19999694824</ele>
        <time>2014-04-23T09:15:39.000Z</time>
      </trkpt>
      <trkpt lat="48.70064" lon="1.67491">
        <ele>162.60000610352</ele>
        <time>2014-04-23T09:15:45.000Z</time>
      </trkpt>
      <trkpt lat="48.70057" lon="1.67487">
        <ele>162.19999694824</ele>
        <time>2014-04-23T09:15:51.000Z</time>
      </trkpt>
      <trkpt lat="48.70049" lon="1.67484">
        <ele>161.60000610352</ele>
        <time>2014-04-23T09:15:56.000Z</time>
      </trkpt>
      <trkpt lat="48.70043" lon="1.67479">
        <ele>161.19999694824</ele>
        <time>2014-04-23T09:16:01.000Z</time>
      </trkpt>
      <trkpt lat="48.70038" lon="1.67476">
        <ele>160.80000305176</ele>
        <time>2014-04-23T09:16:05.000Z</time>
      </trkpt>
      <trkpt lat="48.7003" lon="1.67472">
        <ele>160.19999694824</ele>
        <time>2014-04-23T09:16:10.000Z</time>
      </trkpt>
      <trkpt lat="48.7002" lon="1.67464">
        <ele>159.39999389648</ele>
        <time>2014-04-23T09:16:18.000Z</time>
      </trkpt>
      <trkpt lat="48.70012" lon="1.67461">
        <ele>158.80000305176</ele>
        <time>2014-04-23T09:16:24.000Z</time>
      </trkpt>
      <trkpt lat="48.70001" lon="1.67455">
        <ele>157.80000305176</ele>
        <time>2014-04-23T09:16:32.000Z</time>
      </trkpt>
      <trkpt lat="48.69993" lon="1.67451">
        <ele>157.19999694824</ele>
        <time>2014-04-23T09:16:38.000Z</time>
      </trkpt>
      <trkpt lat="48.69983" lon="1.67445">
        <ele>156.39999389648</ele>
        <time>2014-04-23T09:16:45.000Z</time>
      </trkpt>
      <trkpt lat="48.69974" lon="1.6744">
        <ele>155.60000610352</ele>
        <time>2014-04-23T09:16:51.000Z</time>
      </trkpt>
      <trkpt lat="48.69963" lon="1.67434">
        <ele>154.39999389648</ele>
        <time>2014-04-23T09:16:58.000Z</time>
      </trkpt>
      <trkpt lat="48.69955" lon="1.67432">
        <ele>153.60000610352</ele>
        <time>2014-04-23T09:17:03.000Z</time>
      </trkpt>
      <trkpt lat="48.69946" lon="1.67427">
        <ele>152.80000305176</ele>
        <time>2014-04-23T09:17:09.000Z</time>
      </trkpt>
      <trkpt lat="48.69937" lon="1.67423">
        <ele>151.80000305176</ele>
        <time>2014-04-23T09:17:17.000Z</time>
      </trkpt>
      <trkpt lat="48.69934" lon="1.67422">
        <ele>151.60000610352</ele>
        <time>2014-04-23T09:17:19.000Z</time>
      </trkpt>
      <trkpt lat="48.69932" lon="1.67421">
        <ele>151.60000610352</ele>
        <time>2014-04-23T09:17:22.000Z</time>
      </trkpt>
      <trkpt lat="48.69921" lon="1.67411">
        <ele>151</ele>
        <time>2014-04-23T09:17:31.000Z</time>
      </trkpt>
      <trkpt lat="48.6992" lon="1.67412">
        <ele>150.80000305176</ele>
        <time>2014-04-23T09:17:32.000Z</time>
      </trkpt>
      <trkpt lat="48.69912" lon="1.6741">
        <ele>150.39999389648</ele>
        <time>2014-04-23T09:17:37.000Z</time>
      </trkpt>
      <trkpt lat="48.69907" lon="1.67406">
        <ele>150.19999694824</ele>
        <time>2014-04-23T09:17:40.000Z</time>
      </trkpt>
      <trkpt lat="48.69897" lon="1.67402">
        <ele>149.60000610352</ele>
        <time>2014-04-23T09:17:46.000Z</time>
      </trkpt>
      <trkpt lat="48.69889" lon="1.67396">
        <ele>149.60000610352</ele>
        <time>2014-04-23T09:17:51.000Z</time>
      </trkpt>
      <trkpt lat="48.6988" lon="1.67391">
        <ele>149.19999694824</ele>
        <time>2014-04-23T09:17:57.000Z</time>
      </trkpt>
      <trkpt lat="48.69876" lon="1.67391">
        <ele>149.19999694824</ele>
        <time>2014-04-23T09:17:59.000Z</time>
      </trkpt>
      <trkpt lat="48.69873" lon="1.67389">
        <ele>149</ele>
        <time>2014-04-23T09:18:01.000Z</time>
      </trkpt>
      <trkpt lat="48.69859" lon="1.67386">
        <ele>148.39999389648</ele>
        <time>2014-04-23T09:18:09.000Z</time>
      </trkpt>
      <trkpt lat="48.69855" lon="1.67383">
        <ele>148.19999694824</ele>
        <time>2014-04-23T09:18:14.000Z</time>
      </trkpt>
      <trkpt lat="48.69846" lon="1.67378">
        <ele>148.60000610352</ele>
        <time>2014-04-23T09:18:20.000Z</time>
      </trkpt>
      <trkpt lat="48.69842" lon="1.67376">
        <ele>148.80000305176</ele>
        <time>2014-04-23T09:18:22.000Z</time>
      </trkpt>
      <trkpt lat="48.69831" lon="1.67368">
        <ele>149.39999389648</ele>
        <time>2014-04-23T09:18:30.000Z</time>
      </trkpt>
      <trkpt lat="48.6983" lon="1.67368">
        <ele>149.39999389648</ele>
        <time>2014-04-23T09:18:31.000Z</time>
      </trkpt>
      <trkpt lat="48.69823" lon="1.67363">
        <ele>149.80000305176</ele>
        <time>2014-04-23T09:18:35.000Z</time>
      </trkpt>
      <trkpt lat="48.69819" lon="1.67358">
        <ele>150.19999694824</ele>
        <time>2014-04-23T09:18:39.000Z</time>
      </trkpt>
      <trkpt lat="48.69811" lon="1.67356">
        <ele>150.19999694824</ele>
        <time>2014-04-23T09:18:45.000Z</time>
      </trkpt>
      <trkpt lat="48.69803" lon="1.67355">
        <ele>150.60000610352</ele>
        <time>2014-04-23T09:18:51.000Z</time>
      </trkpt>
      <trkpt lat="48.69796" lon="1.67351">
        <ele>151</ele>
        <time>2014-04-23T09:18:56.000Z</time>
      </trkpt>
      <trkpt lat="48.69793" lon="1.67348">
        <ele>151.19999694824</ele>
        <time>2014-04-23T09:18:59.000Z</time>
      </trkpt>
      <trkpt lat="48.69784" lon="1.67343">
        <ele>151.60000610352</ele>
        <time>2014-04-23T09:19:05.000Z</time>
      </trkpt>
      <trkpt lat="48.69772" lon="1.67334">
        <ele>152.39999389648</ele>
        <time>2014-04-23T09:19:10.000Z</time>
      </trkpt>
      <trkpt lat="48.69755" lon="1.67326">
        <ele>152.39999389648</ele>
        <time>2014-04-23T09:19:15.000Z</time>
      </trkpt>
      <trkpt lat="48.69738" lon="1.67317">
        <ele>152.19999694824</ele>
        <time>2014-04-23T09:19:20.000Z</time>
      </trkpt>
      <trkpt lat="48.69721" lon="1.67307">
        <ele>151.80000305176</ele>
        <time>2014-04-23T09:19:25.000Z</time>
      </trkpt>
      <trkpt lat="48.69696" lon="1.67294">
        <ele>151.19999694824</ele>
        <time>2014-04-23T09:19:31.000Z</time>
      </trkpt>
      <trkpt lat="48.69682" lon="1.67286">
        <ele>150.80000305176</ele>
        <time>2014-04-23T09:19:35.000Z</time>
      </trkpt>
      <trkpt lat="48.6966" lon="1.67276">
        <ele>150</ele>
        <time>2014-04-23T09:19:41.000Z</time>
      </trkpt>
      <trkpt lat="48.69632" lon="1.67262">
        <ele>149</ele>
        <time>2014-04-23T09:19:48.000Z</time>
      </trkpt>
      <trkpt lat="48.69628" lon="1.67259">
        <ele>148.80000305176</ele>
        <time>2014-04-23T09:19:49.000Z</time>
      </trkpt>
      <trkpt lat="48.69613" lon="1.67255">
        <ele>148.39999389648</ele>
        <time>2014-04-23T09:19:53.000Z</time>
      </trkpt>
      <trkpt lat="48.69589" lon="1.67247">
        <ele>147.80000305176</ele>
        <time>2014-04-23T09:19:59.000Z</time>
      </trkpt>
      <trkpt lat="48.69565" lon="1.67237">
        <ele>147.60000610352</ele>
        <time>2014-04-23T09:20:06.000Z</time>
      </trkpt>
      <trkpt lat="48.69549" lon="1.6723">
        <ele>147.39999389648</ele>
        <time>2014-04-23T09:20:11.000Z</time>
      </trkpt>
      <trkpt lat="48.69532" lon="1.67225">
        <ele>147.19999694824</ele>
        <time>2014-04-23T09:20:16.000Z</time>
      </trkpt>
      <trkpt lat="48.69529" lon="1.67225">
        <ele>147.19999694824</ele>
        <time>2014-04-23T09:20:17.000Z</time>
      </trkpt>
      <trkpt lat="48.6953" lon="1.67236">
        <ele>147.19999694824</ele>
        <time>2014-04-23T09:20:21.000Z</time>
      </trkpt>
      <trkpt lat="48.69531" lon="1.6724">
        <ele>147.19999694824</ele>
        <time>2014-04-23T09:20:22.000Z</time>
      </trkpt>
      <trkpt lat="48.69533" lon="1.67247">
        <ele>147.19999694824</ele>
        <time>2014-04-23T09:20:25.000Z</time>
      </trkpt>
      <trkpt lat="48.69543" lon="1.67261">
        <ele>147.19999694824</ele>
        <time>2014-04-23T09:20:30.000Z</time>
      </trkpt>
      <trkpt lat="48.69551" lon="1.67283">
        <ele>147.39999389648</ele>
        <time>2014-04-23T09:20:36.000Z</time>
      </trkpt>
      <trkpt lat="48.69559" lon="1.67308">
        <ele>147.39999389648</ele>
        <time>2014-04-23T09:20:42.000Z</time>
      </trkpt>
      <trkpt lat="48.69561" lon="1.67312">
        <ele>147.39999389648</ele>
        <time>2014-04-23T09:20:43.000Z</time>
      </trkpt>
      <trkpt lat="48.69574" lon="1.67335">
        <ele>147.39999389648</ele>
        <time>2014-04-23T09:20:49.000Z</time>
      </trkpt>
      <trkpt lat="48.69585" lon="1.67354">
        <ele>147.39999389648</ele>
        <time>2014-04-23T09:20:54.000Z</time>
      </trkpt>
      <trkpt lat="48.69597" lon="1.67374">
        <ele>147.19999694824</ele>
        <time>2014-04-23T09:20:59.000Z</time>
      </trkpt>
      <trkpt lat="48.69612" lon="1.67397">
        <ele>147.19999694824</ele>
        <time>2014-04-23T09:21:05.000Z</time>
      </trkpt>
      <trkpt lat="48.69623" lon="1.67425">
        <ele>146.39999389648</ele>
        <time>2014-04-23T09:21:11.000Z</time>
      </trkpt>
      <trkpt lat="48.69633" lon="1.6744">
        <ele>146</ele>
        <time>2014-04-23T09:21:15.000Z</time>
      </trkpt>
      <trkpt lat="48.69649" lon="1.67465">
        <ele>145.39999389648</ele>
        <time>2014-04-23T09:21:21.000Z</time>
      </trkpt>
      <trkpt lat="48.69661" lon="1.67486">
        <ele>144.60000610352</ele>
        <time>2014-04-23T09:21:26.000Z</time>
      </trkpt>
      <trkpt lat="48.69668" lon="1.67506">
        <ele>144.80000305176</ele>
        <time>2014-04-23T09:21:30.000Z</time>
      </trkpt>
      <trkpt lat="48.69675" lon="1.6753">
        <ele>144.80000305176</ele>
        <time>2014-04-23T09:21:34.000Z</time>
      </trkpt>
      <trkpt lat="48.69682" lon="1.67558">
        <ele>145</ele>
        <time>2014-04-23T09:21:39.000Z</time>
      </trkpt>
      <trkpt lat="48.6969" lon="1.67601">
        <ele>144.80000305176</ele>
        <time>2014-04-23T09:21:46.000Z</time>
      </trkpt>
      <trkpt lat="48.69695" lon="1.67627">
        <ele>145</ele>
        <time>2014-04-23T09:21:50.000Z</time>
      </trkpt>
      <trkpt lat="48.69703" lon="1.67665">
        <ele>145</ele>
        <time>2014-04-23T09:21:56.000Z</time>
      </trkpt>
      <trkpt lat="48.69704" lon="1.67672">
        <ele>145</ele>
        <time>2014-04-23T09:21:57.000Z</time>
      </trkpt>
      <trkpt lat="48.69707" lon="1.67691">
        <ele>145.39999389648</ele>
        <time>2014-04-23T09:22:00.000Z</time>
      </trkpt>
      <trkpt lat="48.69713" lon="1.67738">
        <ele>146.19999694824</ele>
        <time>2014-04-23T09:22:07.000Z</time>
      </trkpt>
      <trkpt lat="48.69714" lon="1.67745">
        <ele>146.19999694824</ele>
        <time>2014-04-23T09:22:08.000Z</time>
      </trkpt>
      <trkpt lat="48.69721" lon="1.67788">
        <ele>146.19999694824</ele>
        <time>2014-04-23T09:22:14.000Z</time>
      </trkpt>
      <trkpt lat="48.69727" lon="1.67826">
        <ele>146.39999389648</ele>
        <time>2014-04-23T09:22:19.000Z</time>
      </trkpt>
      <trkpt lat="48.69733" lon="1.67855">
        <ele>146.60000610352</ele>
        <time>2014-04-23T09:22:23.000Z</time>
      </trkpt>
      <trkpt lat="48.6974" lon="1.67874">
        <ele>147</ele>
        <time>2014-04-23T09:22:26.000Z</time>
      </trkpt>
      <trkpt lat="48.69743" lon="1.67915">
        <ele>147</ele>
        <time>2014-04-23T09:22:32.000Z</time>
      </trkpt>
      <trkpt lat="48.69745" lon="1.67942">
        <ele>147.19999694824</ele>
        <time>2014-04-23T09:22:36.000Z</time>
      </trkpt>
      <trkpt lat="48.69748" lon="1.67975">
        <ele>147.19999694824</ele>
        <time>2014-04-23T09:22:41.000Z</time>
      </trkpt>
      <trkpt lat="48.69754" lon="1.68021">
        <ele>146.60000610352</ele>
        <time>2014-04-23T09:22:49.000Z</time>
      </trkpt>
      <trkpt lat="48.69759" lon="1.68051">
        <ele>146</ele>
        <time>2014-04-23T09:22:56.000Z</time>
      </trkpt>
      <trkpt lat="48.6976" lon="1.6808">
        <ele>145.60000610352</ele>
        <time>2014-04-23T09:23:03.000Z</time>
      </trkpt>
      <trkpt lat="48.69761" lon="1.68107">
        <ele>145.60000610352</ele>
        <time>2014-04-23T09:23:09.000Z</time>
      </trkpt>
      <trkpt lat="48.69756" lon="1.6814">
        <ele>145.60000610352</ele>
        <time>2014-04-23T09:23:15.000Z</time>
      </trkpt>
      <trkpt lat="48.69755" lon="1.68181">
        <ele>146</ele>
        <time>2014-04-23T09:23:20.000Z</time>
      </trkpt>
      <trkpt lat="48.69755" lon="1.68233">
        <ele>147.19999694824</ele>
        <time>2014-04-23T09:23:26.000Z</time>
      </trkpt>
      <trkpt lat="48.69756" lon="1.68279">
        <ele>146.80000305176</ele>
        <time>2014-04-23T09:23:31.000Z</time>
      </trkpt>
      <trkpt lat="48.69755" lon="1.68343">
        <ele>147.19999694824</ele>
        <time>2014-04-23T09:23:38.000Z</time>
      </trkpt>
      <trkpt lat="48.69754" lon="1.68409">
        <ele>148.60000610352</ele>
        <time>2014-04-23T09:23:45.000Z</time>
      </trkpt>
      <trkpt lat="48.6975" lon="1.68458">
        <ele>149.19999694824</ele>
        <time>2014-04-23T09:23:50.000Z</time>
      </trkpt>
      <trkpt lat="48.69747" lon="1.68476">
        <ele>149.60000610352</ele>
        <time>2014-04-23T09:23:52.000Z</time>
      </trkpt>
      <trkpt lat="48.69745" lon="1.68501">
        <ele>150</ele>
        <time>2014-04-23T09:23:55.000Z</time>
      </trkpt>
      <trkpt lat="48.69743" lon="1.68521">
        <ele>150</ele>
        <time>2014-04-23T09:23:58.000Z</time>
      </trkpt>
      <trkpt lat="48.69744" lon="1.68544">
        <ele>150</ele>
        <time>2014-04-23T09:24:02.000Z</time>
      </trkpt>
      <trkpt lat="48.69742" lon="1.68579">
        <ele>150.39999389648</ele>
        <time>2014-04-23T09:24:08.000Z</time>
      </trkpt>
      <trkpt lat="48.69742" lon="1.68623">
        <ele>149.39999389648</ele>
        <time>2014-04-23T09:24:16.000Z</time>
      </trkpt>
      <trkpt lat="48.69741" lon="1.68656">
        <ele>148.80000305176</ele>
        <time>2014-04-23T09:24:22.000Z</time>
      </trkpt>
      <trkpt lat="48.69742" lon="1.687">
        <ele>149.80000305176</ele>
        <time>2014-04-23T09:24:29.000Z</time>
      </trkpt>
      <trkpt lat="48.69741" lon="1.68706">
        <ele>150</ele>
        <time>2014-04-23T09:24:30.000Z</time>
      </trkpt>
      <trkpt lat="48.69742" lon="1.68758">
        <ele>151</ele>
        <time>2014-04-23T09:24:39.000Z</time>
      </trkpt>
      <trkpt lat="48.69745" lon="1.68798">
        <ele>151</ele>
        <time>2014-04-23T09:24:46.000Z</time>
      </trkpt>
      <trkpt lat="48.69748" lon="1.68834">
        <ele>151.19999694824</ele>
        <time>2014-04-23T09:24:53.000Z</time>
      </trkpt>
      <trkpt lat="48.6975" lon="1.68856">
        <ele>151.39999389648</ele>
        <time>2014-04-23T09:24:58.000Z</time>
      </trkpt>
      <trkpt lat="48.69751" lon="1.68873">
        <ele>151.60000610352</ele>
        <time>2014-04-23T09:25:02.000Z</time>
      </trkpt>
      <trkpt lat="48.69751" lon="1.68897">
        <ele>151.60000610352</ele>
        <time>2014-04-23T09:25:07.000Z</time>
      </trkpt>
      <trkpt lat="48.6975" lon="1.68922">
        <ele>152</ele>
        <time>2014-04-23T09:25:12.000Z</time>
      </trkpt>
      <trkpt lat="48.69752" lon="1.6895">
        <ele>152.19999694824</ele>
        <time>2014-04-23T09:25:17.000Z</time>
      </trkpt>
      <trkpt lat="48.69753" lon="1.68977">
        <ele>152.39999389648</ele>
        <time>2014-04-23T09:25:22.000Z</time>
      </trkpt>
      <trkpt lat="48.69754" lon="1.69003">
        <ele>153</ele>
        <time>2014-04-23T09:25:27.000Z</time>
      </trkpt>
      <trkpt lat="48.69757" lon="1.69034">
        <ele>154</ele>
        <time>2014-04-23T09:25:33.000Z</time>
      </trkpt>
      <trkpt lat="48.6976" lon="1.69063">
        <ele>155</ele>
        <time>2014-04-23T09:25:38.000Z</time>
      </trkpt>
      <trkpt lat="48.6976" lon="1.69091">
        <ele>155.19999694824</ele>
        <time>2014-04-23T09:25:43.000Z</time>
      </trkpt>
      <trkpt lat="48.69764" lon="1.69118">
        <ele>155.60000610352</ele>
        <time>2014-04-23T09:25:48.000Z</time>
      </trkpt>
      <trkpt lat="48.69767" lon="1.69143">
        <ele>155.80000305176</ele>
        <time>2014-04-23T09:25:53.000Z</time>
      </trkpt>
      <trkpt lat="48.6977" lon="1.6917">
        <ele>156</ele>
        <time>2014-04-23T09:25:59.000Z</time>
      </trkpt>
      <trkpt lat="48.69773" lon="1.69195">
        <ele>156</ele>
        <time>2014-04-23T09:26:03.000Z</time>
      </trkpt>
      <trkpt lat="48.69778" lon="1.69226">
        <ele>156.19999694824</ele>
        <time>2014-04-23T09:26:09.000Z</time>
      </trkpt>
      <trkpt lat="48.69783" lon="1.69256">
        <ele>156.39999389648</ele>
        <time>2014-04-23T09:26:14.000Z</time>
      </trkpt>
      <trkpt lat="48.6979" lon="1.69284">
        <ele>156.39999389648</ele>
        <time>2014-04-23T09:26:20.000Z</time>
      </trkpt>
      <trkpt lat="48.69795" lon="1.69308">
        <ele>156.39999389648</ele>
        <time>2014-04-23T09:26:25.000Z</time>
      </trkpt>
      <trkpt lat="48.69801" lon="1.69341">
        <ele>157.19999694824</ele>
        <time>2014-04-23T09:26:32.000Z</time>
      </trkpt>
      <trkpt lat="48.69807" lon="1.69366">
        <ele>158</ele>
        <time>2014-04-23T09:26:37.000Z</time>
      </trkpt>
      <trkpt lat="48.69812" lon="1.6939">
        <ele>158.19999694824</ele>
        <time>2014-04-23T09:26:42.000Z</time>
      </trkpt>
      <trkpt lat="48.69815" lon="1.69408">
        <ele>158.39999389648</ele>
        <time>2014-04-23T09:26:47.000Z</time>
      </trkpt>
      <trkpt lat="48.69816" lon="1.6941">
        <ele>158.60000610352</ele>
        <time>2014-04-23T09:26:48.000Z</time>
      </trkpt>
      <trkpt lat="48.69819" lon="1.69423">
        <ele>159.19999694824</ele>
        <time>2014-04-23T09:26:54.000Z</time>
      </trkpt>
      <trkpt lat="48.69819" lon="1.69432">
        <ele>159.39999389648</ele>
        <time>2014-04-23T09:26:57.000Z</time>
      </trkpt>
      <trkpt lat="48.69826" lon="1.6945">
        <ele>160.60000610352</ele>
        <time>2014-04-23T09:27:06.000Z</time>
      </trkpt>
      <trkpt lat="48.69827" lon="1.69458">
        <ele>160.80000305176</ele>
        <time>2014-04-23T09:27:11.000Z</time>
      </trkpt>
      <trkpt lat="48.69825" lon="1.69463">
        <ele>160.60000610352</ele>
        <time>2014-04-23T09:27:14.000Z</time>
      </trkpt>
      <trkpt lat="48.69824" lon="1.6947">
        <ele>160.39999389648</ele>
        <time>2014-04-23T09:27:21.000Z</time>
      </trkpt>
      <trkpt lat="48.69828" lon="1.69484">
        <ele>161</ele>
        <time>2014-04-23T09:27:58.000Z</time>
      </trkpt>
      <trkpt lat="48.69829" lon="1.69487">
        <ele>161</ele>
        <time>2014-04-23T09:27:59.000Z</time>
      </trkpt>
      <trkpt lat="48.6983" lon="1.69496">
        <ele>161</ele>
        <time>2014-04-23T09:28:02.000Z</time>
      </trkpt>
      <trkpt lat="48.69834" lon="1.69508">
        <ele>161.19999694824</ele>
        <time>2014-04-23T09:28:08.000Z</time>
      </trkpt>
      <trkpt lat="48.69838" lon="1.69517">
        <ele>161.39999389648</ele>
        <time>2014-04-23T09:28:13.000Z</time>
      </trkpt>
      <trkpt lat="48.69841" lon="1.6953">
        <ele>161.60000610352</ele>
        <time>2014-04-23T09:28:19.000Z</time>
      </trkpt>
      <trkpt lat="48.69844" lon="1.69542">
        <ele>161.60000610352</ele>
        <time>2014-04-23T09:28:24.000Z</time>
      </trkpt>
      <trkpt lat="48.69847" lon="1.69556">
        <ele>161.60000610352</ele>
        <time>2014-04-23T09:28:30.000Z</time>
      </trkpt>
      <trkpt lat="48.69851" lon="1.69569">
        <ele>161.80000305176</ele>
        <time>2014-04-23T09:28:36.000Z</time>
      </trkpt>
      <trkpt lat="48.69853" lon="1.69576">
        <ele>161.80000305176</ele>
        <time>2014-04-23T09:28:39.000Z</time>
      </trkpt>
      <trkpt lat="48.69857" lon="1.69587">
        <ele>162</ele>
        <time>2014-04-23T09:28:45.000Z</time>
      </trkpt>
      <trkpt lat="48.6986" lon="1.69599">
        <ele>161.80000305176</ele>
        <time>2014-04-23T09:28:51.000Z</time>
      </trkpt>
      <trkpt lat="48.69862" lon="1.69605">
        <ele>161.80000305176</ele>
        <time>2014-04-23T09:28:54.000Z</time>
      </trkpt>
      <trkpt lat="48.69868" lon="1.6962">
        <ele>162</ele>
        <time>2014-04-23T09:29:01.000Z</time>
      </trkpt>
      <trkpt lat="48.69871" lon="1.69636">
        <ele>161.80000305176</ele>
        <time>2014-04-23T09:29:08.000Z</time>
      </trkpt>
      <trkpt lat="48.69873" lon="1.69644">
        <ele>161.80000305176</ele>
        <time>2014-04-23T09:29:13.000Z</time>
      </trkpt>
      <trkpt lat="48.69878" lon="1.69657">
        <ele>162</ele>
        <time>2014-04-23T09:29:19.000Z</time>
      </trkpt>
      <trkpt lat="48.69883" lon="1.69673">
        <ele>163</ele>
        <time>2014-04-23T09:29:27.000Z</time>
      </trkpt>
      <trkpt lat="48.69884" lon="1.69675">
        <ele>163.19999694824</ele>
        <time>2014-04-23T09:29:28.000Z</time>
      </trkpt>
      <trkpt lat="48.69887" lon="1.69686">
        <ele>163.80000305176</ele>
        <time>2014-04-23T09:29:34.000Z</time>
      </trkpt>
      <trkpt lat="48.69888" lon="1.6969">
        <ele>164</ele>
        <time>2014-04-23T09:29:36.000Z</time>
      </trkpt>
      <trkpt lat="48.69889" lon="1.69692">
        <ele>164.19999694824</ele>
        <time>2014-04-23T09:29:38.000Z</time>
      </trkpt>
      <trkpt lat="48.69894" lon="1.69706">
        <ele>165</ele>
        <time>2014-04-23T09:29:45.000Z</time>
      </trkpt>
      <trkpt lat="48.699" lon="1.69718">
        <ele>165.80000305176</ele>
        <time>2014-04-23T09:29:51.000Z</time>
      </trkpt>
      <trkpt lat="48.69902" lon="1.69727">
        <ele>166.19999694824</ele>
        <time>2014-04-23T09:29:56.000Z</time>
      </trkpt>
      <trkpt lat="48.69907" lon="1.69735">
        <ele>166.80000305176</ele>
        <time>2014-04-23T09:30:01.000Z</time>
      </trkpt>
      <trkpt lat="48.69912" lon="1.69743">
        <ele>167.60000610352</ele>
        <time>2014-04-23T09:30:06.000Z</time>
      </trkpt>
      <trkpt lat="48.69913" lon="1.69747">
        <ele>167.80000305176</ele>
        <time>2014-04-23T09:30:08.000Z</time>
      </trkpt>
      <trkpt lat="48.69918" lon="1.69759">
        <ele>168.60000610352</ele>
        <time>2014-04-23T09:30:16.000Z</time>
      </trkpt>
      <trkpt lat="48.69921" lon="1.69768">
        <ele>169.39999389648</ele>
        <time>2014-04-23T09:30:22.000Z</time>
      </trkpt>
      <trkpt lat="48.69923" lon="1.6978">
        <ele>170</ele>
        <time>2014-04-23T09:30:29.000Z</time>
      </trkpt>
      <trkpt lat="48.69925" lon="1.69787">
        <ele>170.60000610352</ele>
        <time>2014-04-23T09:30:35.000Z</time>
      </trkpt>
      <trkpt lat="48.69926" lon="1.69789">
        <ele>170.80000305176</ele>
        <time>2014-04-23T09:30:36.000Z</time>
      </trkpt>
      <trkpt lat="48.69929" lon="1.698">
        <ele>171.60000610352</ele>
        <time>2014-04-23T09:30:43.000Z</time>
      </trkpt>
      <trkpt lat="48.69929" lon="1.69803">
        <ele>171.80000305176</ele>
        <time>2014-04-23T09:30:44.000Z</time>
      </trkpt>
      <trkpt lat="48.69935" lon="1.69815">
        <ele>172.60000610352</ele>
        <time>2014-04-23T09:30:50.000Z</time>
      </trkpt>
      <trkpt lat="48.6994" lon="1.69828">
        <ele>173.19999694824</ele>
        <time>2014-04-23T09:30:56.000Z</time>
      </trkpt>
      <trkpt lat="48.69944" lon="1.69842">
        <ele>173.60000610352</ele>
        <time>2014-04-23T09:31:00.000Z</time>
      </trkpt>
      <trkpt lat="48.69948" lon="1.6985">
        <ele>174</ele>
        <time>2014-04-23T09:31:04.000Z</time>
      </trkpt>
      <trkpt lat="48.6995" lon="1.69863">
        <ele>174.39999389648</ele>
        <time>2014-04-23T09:31:11.000Z</time>
      </trkpt>
      <trkpt lat="48.69954" lon="1.69875">
        <ele>174.80000305176</ele>
        <time>2014-04-23T09:31:18.000Z</time>
      </trkpt>
      <trkpt lat="48.69956" lon="1.69879">
        <ele>175</ele>
        <time>2014-04-23T09:31:20.000Z</time>
      </trkpt>
      <trkpt lat="48.6996" lon="1.69891">
        <ele>175.19999694824</ele>
        <time>2014-04-23T09:31:25.000Z</time>
      </trkpt>
      <trkpt lat="48.69963" lon="1.69901">
        <ele>175.60000610352</ele>
        <time>2014-04-23T09:31:29.000Z</time>
      </trkpt>
      <trkpt lat="48.69967" lon="1.69907">
        <ele>175.80000305176</ele>
        <time>2014-04-23T09:31:33.000Z</time>
      </trkpt>
      <trkpt lat="48.69975" lon="1.69917">
        <ele>175.80000305176</ele>
        <time>2014-04-23T09:31:41.000Z</time>
      </trkpt>
      <trkpt lat="48.6998" lon="1.69922">
        <ele>176</ele>
        <time>2014-04-23T09:31:45.000Z</time>
      </trkpt>
      <trkpt lat="48.69987" lon="1.69935">
        <ele>176.19999694824</ele>
        <time>2014-04-23T09:31:53.000Z</time>
      </trkpt>
      <trkpt lat="48.69989" lon="1.69938">
        <ele>176.19999694824</ele>
        <time>2014-04-23T09:31:56.000Z</time>
      </trkpt>
      <trkpt lat="48.69994" lon="1.69945">
        <ele>176.39999389648</ele>
        <time>2014-04-23T09:32:02.000Z</time>
      </trkpt>
      <trkpt lat="48.69995" lon="1.69946">
        <ele>176.39999389648</ele>
        <time>2014-04-23T09:32:03.000Z</time>
      </trkpt>
      <trkpt lat="48.69997" lon="1.69947">
        <ele>176.39999389648</ele>
        <time>2014-04-23T09:32:06.000Z</time>
      </trkpt>
      <trkpt lat="48.69998" lon="1.69953">
        <ele>176.39999389648</ele>
        <time>2014-04-23T09:32:12.000Z</time>
      </trkpt>
      <trkpt lat="48.70002" lon="1.69958">
        <ele>176.60000610352</ele>
        <time>2014-04-23T09:32:18.000Z</time>
      </trkpt>
      <trkpt lat="48.70007" lon="1.69962">
        <ele>176.60000610352</ele>
        <time>2014-04-23T09:32:23.000Z</time>
      </trkpt>
      <trkpt lat="48.7001" lon="1.69964">
        <ele>176.60000610352</ele>
        <time>2014-04-23T09:32:25.000Z</time>
      </trkpt>
      <trkpt lat="48.70015" lon="1.69971">
        <ele>176.60000610352</ele>
        <time>2014-04-23T09:32:31.000Z</time>
      </trkpt>
      <trkpt lat="48.70017" lon="1.6998">
        <ele>176.80000305176</ele>
        <time>2014-04-23T09:32:36.000Z</time>
      </trkpt>
      <trkpt lat="48.70019" lon="1.69983">
        <ele>177</ele>
        <time>2014-04-23T09:32:38.000Z</time>
      </trkpt>
      <trkpt lat="48.70027" lon="1.69991">
        <ele>177.39999389648</ele>
        <time>2014-04-23T09:32:44.000Z</time>
      </trkpt>
      <trkpt lat="48.7003" lon="1.7">
        <ele>177.60000610352</ele>
        <time>2014-04-23T09:32:52.000Z</time>
      </trkpt>
      <trkpt lat="48.70034" lon="1.70005">
        <ele>177.80000305176</ele>
        <time>2014-04-23T09:32:58.000Z</time>
      </trkpt>
      <trkpt lat="48.70038" lon="1.7001">
        <ele>178</ele>
        <time>2014-04-23T09:33:03.000Z</time>
      </trkpt>
      <trkpt lat="48.7004" lon="1.70012">
        <ele>178</ele>
        <time>2014-04-23T09:33:05.000Z</time>
      </trkpt>
      <trkpt lat="48.70049" lon="1.70021">
        <ele>178.39999389648</ele>
        <time>2014-04-23T09:33:13.000Z</time>
      </trkpt>
      <trkpt lat="48.70051" lon="1.70023">
        <ele>178.60000610352</ele>
        <time>2014-04-23T09:33:15.000Z</time>
      </trkpt>
      <trkpt lat="48.70059" lon="1.70033">
        <ele>179</ele>
        <time>2014-04-23T09:33:23.000Z</time>
      </trkpt>
      <trkpt lat="48.70064" lon="1.70042">
        <ele>179.19999694824</ele>
        <time>2014-04-23T09:33:29.000Z</time>
      </trkpt>
      <trkpt lat="48.70067" lon="1.70051">
        <ele>179.39999389648</ele>
        <time>2014-04-23T09:33:34.000Z</time>
      </trkpt>
      <trkpt lat="48.70073" lon="1.70063">
        <ele>179.80000305176</ele>
        <time>2014-04-23T09:33:42.000Z</time>
      </trkpt>
      <trkpt lat="48.7008" lon="1.70074">
        <ele>180</ele>
        <time>2014-04-23T09:33:48.000Z</time>
      </trkpt>
      <trkpt lat="48.70086" lon="1.70084">
        <ele>179.80000305176</ele>
        <time>2014-04-23T09:33:54.000Z</time>
      </trkpt>
      <trkpt lat="48.70091" lon="1.70093">
        <ele>179.80000305176</ele>
        <time>2014-04-23T09:33:59.000Z</time>
      </trkpt>
      <trkpt lat="48.70101" lon="1.70104">
        <ele>179.60000610352</ele>
        <time>2014-04-23T09:34:07.000Z</time>
      </trkpt>
      <trkpt lat="48.70106" lon="1.70116">
        <ele>179.39999389648</ele>
        <time>2014-04-23T09:34:13.000Z</time>
      </trkpt>
      <trkpt lat="48.70115" lon="1.7013">
        <ele>179</ele>
        <time>2014-04-23T09:34:21.000Z</time>
      </trkpt>
      <trkpt lat="48.70121" lon="1.70142">
        <ele>178.60000610352</ele>
        <time>2014-04-23T09:34:28.000Z</time>
      </trkpt>
      <trkpt lat="48.70127" lon="1.70149">
        <ele>178.39999389648</ele>
        <time>2014-04-23T09:34:33.000Z</time>
      </trkpt>
      <trkpt lat="48.70132" lon="1.70161">
        <ele>178.19999694824</ele>
        <time>2014-04-23T09:34:40.000Z</time>
      </trkpt>
      <trkpt lat="48.70135" lon="1.7017">
        <ele>178</ele>
        <time>2014-04-23T09:34:45.000Z</time>
      </trkpt>
      <trkpt lat="48.70136" lon="1.70172">
        <ele>178</ele>
        <time>2014-04-23T09:34:46.000Z</time>
      </trkpt>
      <trkpt lat="48.70141" lon="1.70186">
        <ele>177.60000610352</ele>
        <time>2014-04-23T09:34:53.000Z</time>
      </trkpt>
      <trkpt lat="48.70145" lon="1.70202">
        <ele>177.39999389648</ele>
        <time>2014-04-23T09:35:01.000Z</time>
      </trkpt>
      <trkpt lat="48.7015" lon="1.70211">
        <ele>177.19999694824</ele>
        <time>2014-04-23T09:35:07.000Z</time>
      </trkpt>
      <trkpt lat="48.70155" lon="1.70224">
        <ele>177</ele>
        <time>2014-04-23T09:35:14.000Z</time>
      </trkpt>
      <trkpt lat="48.70156" lon="1.70225">
        <ele>177</ele>
        <time>2014-04-23T09:35:15.000Z</time>
      </trkpt>
      <trkpt lat="48.70161" lon="1.70237">
        <ele>176.60000610352</ele>
        <time>2014-04-23T09:35:21.000Z</time>
      </trkpt>
      <trkpt lat="48.70166" lon="1.7025">
        <ele>177</ele>
        <time>2014-04-23T09:35:27.000Z</time>
      </trkpt>
      <trkpt lat="48.70169" lon="1.7026">
        <ele>177</ele>
        <time>2014-04-23T09:35:32.000Z</time>
      </trkpt>
      <trkpt lat="48.7017" lon="1.70264">
        <ele>177.19999694824</ele>
        <time>2014-04-23T09:35:34.000Z</time>
      </trkpt>
      <trkpt lat="48.70173" lon="1.70274">
        <ele>177.19999694824</ele>
        <time>2014-04-23T09:35:39.000Z</time>
      </trkpt>
      <trkpt lat="48.70179" lon="1.70291">
        <ele>177.60000610352</ele>
        <time>2014-04-23T09:35:47.000Z</time>
      </trkpt>
      <trkpt lat="48.70179" lon="1.70294">
        <ele>177.60000610352</ele>
        <time>2014-04-23T09:35:48.000Z</time>
      </trkpt>
      <trkpt lat="48.70185" lon="1.70307">
        <ele>177.80000305176</ele>
        <time>2014-04-23T09:35:55.000Z</time>
      </trkpt>
      <trkpt lat="48.70185" lon="1.7031">
        <ele>177.80000305176</ele>
        <time>2014-04-23T09:35:57.000Z</time>
      </trkpt>
      <trkpt lat="48.70187" lon="1.70322">
        <ele>178</ele>
        <time>2014-04-23T09:36:04.000Z</time>
      </trkpt>
      <trkpt lat="48.70188" lon="1.70338">
        <ele>178.39999389648</ele>
        <time>2014-04-23T09:36:10.000Z</time>
      </trkpt>
      <trkpt lat="48.70195" lon="1.70353">
        <ele>178.80000305176</ele>
        <time>2014-04-23T09:36:18.000Z</time>
      </trkpt>
      <trkpt lat="48.70201" lon="1.70366">
        <ele>179.39999389648</ele>
        <time>2014-04-23T09:36:24.000Z</time>
      </trkpt>
      <trkpt lat="48.70206" lon="1.7038">
        <ele>179.80000305176</ele>
        <time>2014-04-23T09:36:31.000Z</time>
      </trkpt>
      <trkpt lat="48.70207" lon="1.70387">
        <ele>180</ele>
        <time>2014-04-23T09:36:34.000Z</time>
      </trkpt>
      <trkpt lat="48.70212" lon="1.704">
        <ele>180.39999389648</ele>
        <time>2014-04-23T09:36:42.000Z</time>
      </trkpt>
      <trkpt lat="48.70214" lon="1.70407">
        <ele>180.60000610352</ele>
        <time>2014-04-23T09:36:47.000Z</time>
      </trkpt>
      <trkpt lat="48.70218" lon="1.70416">
        <ele>180.60000610352</ele>
        <time>2014-04-23T09:36:53.000Z</time>
      </trkpt>
      <trkpt lat="48.70221" lon="1.70426">
        <ele>180.60000610352</ele>
        <time>2014-04-23T09:36:59.000Z</time>
      </trkpt>
      <trkpt lat="48.70227" lon="1.70438">
        <ele>180.60000610352</ele>
        <time>2014-04-23T09:37:03.000Z</time>
      </trkpt>
      <trkpt lat="48.70235" lon="1.70461">
        <ele>180.60000610352</ele>
        <time>2014-04-23T09:37:08.000Z</time>
      </trkpt>
      <trkpt lat="48.70236" lon="1.70465">
        <ele>180.60000610352</ele>
        <time>2014-04-23T09:37:09.000Z</time>
      </trkpt>
      <trkpt lat="48.70246" lon="1.7049">
        <ele>180.80000305176</ele>
        <time>2014-04-23T09:37:16.000Z</time>
      </trkpt>
      <trkpt lat="48.70254" lon="1.70521">
        <ele>180.39999389648</ele>
        <time>2014-04-23T09:37:22.000Z</time>
      </trkpt>
      <trkpt lat="48.70264" lon="1.70552">
        <ele>180.19999694824</ele>
        <time>2014-04-23T09:37:28.000Z</time>
      </trkpt>
      <trkpt lat="48.70275" lon="1.70586">
        <ele>180.60000610352</ele>
        <time>2014-04-23T09:37:35.000Z</time>
      </trkpt>
      <trkpt lat="48.7029" lon="1.70617">
        <ele>181.80000305176</ele>
        <time>2014-04-23T09:37:42.000Z</time>
      </trkpt>
      <trkpt lat="48.70296" lon="1.70641">
        <ele>182.39999389648</ele>
        <time>2014-04-23T09:37:47.000Z</time>
      </trkpt>
      <trkpt lat="48.70303" lon="1.70669">
        <ele>182.60000610352</ele>
        <time>2014-04-23T09:37:52.000Z</time>
      </trkpt>
      <trkpt lat="48.70311" lon="1.70692">
        <ele>182.60000610352</ele>
        <time>2014-04-23T09:37:57.000Z</time>
      </trkpt>
      <trkpt lat="48.7032" lon="1.70709">
        <ele>183</ele>
        <time>2014-04-23T09:38:01.000Z</time>
      </trkpt>
      <trkpt lat="48.70328" lon="1.70743">
        <ele>183.80000305176</ele>
        <time>2014-04-23T09:38:07.000Z</time>
      </trkpt>
      <trkpt lat="48.7034" lon="1.70768">
        <ele>184.60000610352</ele>
        <time>2014-04-23T09:38:13.000Z</time>
      </trkpt>
      <trkpt lat="48.70346" lon="1.70786">
        <ele>185</ele>
        <time>2014-04-23T09:38:17.000Z</time>
      </trkpt>
      <trkpt lat="48.70356" lon="1.70805">
        <ele>185.60000610352</ele>
        <time>2014-04-23T09:38:22.000Z</time>
      </trkpt>
      <trkpt lat="48.70362" lon="1.70825">
        <ele>186.19999694824</ele>
        <time>2014-04-23T09:38:26.000Z</time>
      </trkpt>
      <trkpt lat="48.7037" lon="1.70846">
        <ele>186.39999389648</ele>
        <time>2014-04-23T09:38:31.000Z</time>
      </trkpt>
      <trkpt lat="48.70378" lon="1.70865">
        <ele>186.60000610352</ele>
        <time>2014-04-23T09:38:36.000Z</time>
      </trkpt>
      <trkpt lat="48.70386" lon="1.7089">
        <ele>186.80000305176</ele>
        <time>2014-04-23T09:38:42.000Z</time>
      </trkpt>
      <trkpt lat="48.70394" lon="1.70914">
        <ele>187</ele>
        <time>2014-04-23T09:38:47.000Z</time>
      </trkpt>
      <trkpt lat="48.70406" lon="1.70943">
        <ele>187</ele>
        <time>2014-04-23T09:38:53.000Z</time>
      </trkpt>
      <trkpt lat="48.70414" lon="1.70969">
        <ele>187</ele>
        <time>2014-04-23T09:38:58.000Z</time>
      </trkpt>
      <trkpt lat="48.70424" lon="1.70998">
        <ele>186.80000305176</ele>
        <time>2014-04-23T09:39:04.000Z</time>
      </trkpt>
      <trkpt lat="48.7043" lon="1.71024">
        <ele>186.39999389648</ele>
        <time>2014-04-23T09:39:09.000Z</time>
      </trkpt>
      <trkpt lat="48.7044" lon="1.71051">
        <ele>186.19999694824</ele>
        <time>2014-04-23T09:39:14.000Z</time>
      </trkpt>
      <trkpt lat="48.70451" lon="1.71071">
        <ele>185.80000305176</ele>
        <time>2014-04-23T09:39:19.000Z</time>
      </trkpt>
      <trkpt lat="48.70455" lon="1.71095">
        <ele>185.80000305176</ele>
        <time>2014-04-23T09:39:24.000Z</time>
      </trkpt>
      <trkpt lat="48.70457" lon="1.71107">
        <ele>185.80000305176</ele>
        <time>2014-04-23T09:39:28.000Z</time>
      </trkpt>
      <trkpt lat="48.7046" lon="1.71112">
        <ele>185.80000305176</ele>
        <time>2014-04-23T09:39:31.000Z</time>
      </trkpt>
      <trkpt lat="48.70465" lon="1.71125">
        <ele>185.60000610352</ele>
        <time>2014-04-23T09:39:37.000Z</time>
      </trkpt>
      <trkpt lat="48.70474" lon="1.71134">
        <ele>185.60000610352</ele>
        <time>2014-04-23T09:39:44.000Z</time>
      </trkpt>
      <trkpt lat="48.70478" lon="1.71141">
        <ele>185.39999389648</ele>
        <time>2014-04-23T09:39:48.000Z</time>
      </trkpt>
      <trkpt lat="48.7048" lon="1.71152">
        <ele>185.39999389648</ele>
        <time>2014-04-23T09:39:53.000Z</time>
      </trkpt>
      <trkpt lat="48.70486" lon="1.71161">
        <ele>185.60000610352</ele>
        <time>2014-04-23T09:39:58.000Z</time>
      </trkpt>
      <trkpt lat="48.7049" lon="1.7117">
        <ele>185.80000305176</ele>
        <time>2014-04-23T09:40:03.000Z</time>
      </trkpt>
      <trkpt lat="48.70492" lon="1.71176">
        <ele>185.80000305176</ele>
        <time>2014-04-23T09:40:06.000Z</time>
      </trkpt>
      <trkpt lat="48.70492" lon="1.71192">
        <ele>186.19999694824</ele>
        <time>2014-04-23T09:40:12.000Z</time>
      </trkpt>
      <trkpt lat="48.70493" lon="1.71196">
        <ele>186.39999389648</ele>
        <time>2014-04-23T09:40:17.000Z</time>
      </trkpt>
      <trkpt lat="48.70493" lon="1.71204">
        <ele>186.60000610352</ele>
        <time>2014-04-23T09:40:23.000Z</time>
      </trkpt>
      <trkpt lat="48.70493" lon="1.71204">
        <ele>186.60000610352</ele>
        <time>2014-04-23T09:40:25.000Z</time>
      </trkpt>
      <trkpt lat="48.7049" lon="1.7121">
        <ele>186.60000610352</ele>
        <time>2014-04-23T09:40:30.000Z</time>
      </trkpt>
      <trkpt lat="48.70487" lon="1.71222">
        <ele>186.80000305176</ele>
        <time>2014-04-23T09:40:35.000Z</time>
      </trkpt>
      <trkpt lat="48.70484" lon="1.7123">
        <ele>187</ele>
        <time>2014-04-23T09:40:39.000Z</time>
      </trkpt>
      <trkpt lat="48.70479" lon="1.71244">
        <ele>187</ele>
        <time>2014-04-23T09:40:46.000Z</time>
      </trkpt>
      <trkpt lat="48.70475" lon="1.71259">
        <ele>187.19999694824</ele>
        <time>2014-04-23T09:40:53.000Z</time>
      </trkpt>
      <trkpt lat="48.70475" lon="1.71265">
        <ele>187.39999389648</ele>
        <time>2014-04-23T09:40:56.000Z</time>
      </trkpt>
      <trkpt lat="48.70474" lon="1.71272">
        <ele>187.39999389648</ele>
        <time>2014-04-23T09:40:59.000Z</time>
      </trkpt>
      <trkpt lat="48.70471" lon="1.71285">
        <ele>187.19999694824</ele>
        <time>2014-04-23T09:41:05.000Z</time>
      </trkpt>
      <trkpt lat="48.70469" lon="1.71298">
        <ele>187</ele>
        <time>2014-04-23T09:41:10.000Z</time>
      </trkpt>
      <trkpt lat="48.70464" lon="1.71312">
        <ele>186.80000305176</ele>
        <time>2014-04-23T09:41:16.000Z</time>
      </trkpt>
      <trkpt lat="48.70463" lon="1.71325">
        <ele>186.60000610352</ele>
        <time>2014-04-23T09:41:22.000Z</time>
      </trkpt>
      <trkpt lat="48.70463" lon="1.71329">
        <ele>186.80000305176</ele>
        <time>2014-04-23T09:41:24.000Z</time>
      </trkpt>
      <trkpt lat="48.70459" lon="1.71344">
        <ele>186.80000305176</ele>
        <time>2014-04-23T09:41:30.000Z</time>
      </trkpt>
      <trkpt lat="48.70457" lon="1.71355">
        <ele>186.60000610352</ele>
        <time>2014-04-23T09:41:37.000Z</time>
      </trkpt>
      <trkpt lat="48.70457" lon="1.71365">
        <ele>186.39999389648</ele>
        <time>2014-04-23T09:41:42.000Z</time>
      </trkpt>
      <trkpt lat="48.70454" lon="1.71374">
        <ele>186.19999694824</ele>
        <time>2014-04-23T09:41:47.000Z</time>
      </trkpt>
      <trkpt lat="48.70452" lon="1.71386">
        <ele>186</ele>
        <time>2014-04-23T09:41:53.000Z</time>
      </trkpt>
      <trkpt lat="48.70449" lon="1.71402">
        <ele>185.60000610352</ele>
        <time>2014-04-23T09:42:00.000Z</time>
      </trkpt>
      <trkpt lat="48.70448" lon="1.71413">
        <ele>185.19999694824</ele>
        <time>2014-04-23T09:42:05.000Z</time>
      </trkpt>
      <trkpt lat="48.70446" lon="1.71418">
        <ele>185.19999694824</ele>
        <time>2014-04-23T09:42:08.000Z</time>
      </trkpt>
      <trkpt lat="48.70444" lon="1.71426">
        <ele>185.39999389648</ele>
        <time>2014-04-23T09:42:13.000Z</time>
      </trkpt>
      <trkpt lat="48.7044" lon="1.71441">
        <ele>185.39999389648</ele>
        <time>2014-04-23T09:42:21.000Z</time>
      </trkpt>
      <trkpt lat="48.70436" lon="1.71453">
        <ele>185.60000610352</ele>
        <time>2014-04-23T09:42:28.000Z</time>
      </trkpt>
      <trkpt lat="48.70432" lon="1.71468">
        <ele>185.80000305176</ele>
        <time>2014-04-23T09:42:35.000Z</time>
      </trkpt>
      <trkpt lat="48.70429" lon="1.71486">
        <ele>185.80000305176</ele>
        <time>2014-04-23T09:42:40.000Z</time>
      </trkpt>
      <trkpt lat="48.70425" lon="1.71503">
        <ele>185.60000610352</ele>
        <time>2014-04-23T09:42:46.000Z</time>
      </trkpt>
      <trkpt lat="48.70423" lon="1.71517">
        <ele>185.39999389648</ele>
        <time>2014-04-23T09:42:52.000Z</time>
      </trkpt>
      <trkpt lat="48.7042" lon="1.71531">
        <ele>185.19999694824</ele>
        <time>2014-04-23T09:42:58.000Z</time>
      </trkpt>
      <trkpt lat="48.70417" lon="1.7155">
        <ele>185</ele>
        <time>2014-04-23T09:43:05.000Z</time>
      </trkpt>
      <trkpt lat="48.70415" lon="1.71564">
        <ele>184.60000610352</ele>
        <time>2014-04-23T09:43:12.000Z</time>
      </trkpt>
      <trkpt lat="48.70411" lon="1.7158">
        <ele>184.39999389648</ele>
        <time>2014-04-23T09:43:18.000Z</time>
      </trkpt>
      <trkpt lat="48.70408" lon="1.71587">
        <ele>184.60000610352</ele>
        <time>2014-04-23T09:43:22.000Z</time>
      </trkpt>
      <trkpt lat="48.70406" lon="1.71599">
        <ele>184.60000610352</ele>
        <time>2014-04-23T09:43:28.000Z</time>
      </trkpt>
      <trkpt lat="48.70405" lon="1.71604">
        <ele>184.60000610352</ele>
        <time>2014-04-23T09:43:31.000Z</time>
      </trkpt>
      <trkpt lat="48.70404" lon="1.71616">
        <ele>184.80000305176</ele>
        <time>2014-04-23T09:43:37.000Z</time>
      </trkpt>
      <trkpt lat="48.70402" lon="1.71627">
        <ele>184.80000305176</ele>
        <time>2014-04-23T09:43:43.000Z</time>
      </trkpt>
      <trkpt lat="48.70399" lon="1.71638">
        <ele>185</ele>
        <time>2014-04-23T09:43:48.000Z</time>
      </trkpt>
      <trkpt lat="48.70396" lon="1.71651">
        <ele>185</ele>
        <time>2014-04-23T09:43:55.000Z</time>
      </trkpt>
      <trkpt lat="48.70394" lon="1.71661">
        <ele>185</ele>
        <time>2014-04-23T09:44:00.000Z</time>
      </trkpt>
      <trkpt lat="48.70392" lon="1.71673">
        <ele>185.19999694824</ele>
        <time>2014-04-23T09:44:06.000Z</time>
      </trkpt>
      <trkpt lat="48.70392" lon="1.71676">
        <ele>185.19999694824</ele>
        <time>2014-04-23T09:44:08.000Z</time>
      </trkpt>
      <trkpt lat="48.7039" lon="1.71684">
        <ele>185.19999694824</ele>
        <time>2014-04-23T09:44:12.000Z</time>
      </trkpt>
      <trkpt lat="48.70387" lon="1.71692">
        <ele>185.39999389648</ele>
        <time>2014-04-23T09:44:16.000Z</time>
      </trkpt>
      <trkpt lat="48.70384" lon="1.7171">
        <ele>185.80000305176</ele>
        <time>2014-04-23T09:44:24.000Z</time>
      </trkpt>
      <trkpt lat="48.70382" lon="1.71724">
        <ele>186</ele>
        <time>2014-04-23T09:44:31.000Z</time>
      </trkpt>
      <trkpt lat="48.70381" lon="1.7173">
        <ele>186.19999694824</ele>
        <time>2014-04-23T09:44:34.000Z</time>
      </trkpt>
      <trkpt lat="48.70378" lon="1.71747">
        <ele>186.19999694824</ele>
        <time>2014-04-23T09:44:41.000Z</time>
      </trkpt>
      <trkpt lat="48.70377" lon="1.71752">
        <ele>186</ele>
        <time>2014-04-23T09:44:44.000Z</time>
      </trkpt>
      <trkpt lat="48.70373" lon="1.71766">
        <ele>185.80000305176</ele>
        <time>2014-04-23T09:44:50.000Z</time>
      </trkpt>
      <trkpt lat="48.70371" lon="1.71772">
        <ele>185.60000610352</ele>
        <time>2014-04-23T09:44:53.000Z</time>
      </trkpt>
      <trkpt lat="48.70365" lon="1.7179">
        <ele>185</ele>
        <time>2014-04-23T09:45:01.000Z</time>
      </trkpt>
      <trkpt lat="48.70362" lon="1.71803">
        <ele>184.60000610352</ele>
        <time>2014-04-23T09:45:06.000Z</time>
      </trkpt>
      <trkpt lat="48.70359" lon="1.71813">
        <ele>184.39999389648</ele>
        <time>2014-04-23T09:45:11.000Z</time>
      </trkpt>
      <trkpt lat="48.7036" lon="1.71824">
        <ele>184.19999694824</ele>
        <time>2014-04-23T09:45:16.000Z</time>
      </trkpt>
      <trkpt lat="48.70359" lon="1.7183">
        <ele>184</ele>
        <time>2014-04-23T09:45:18.000Z</time>
      </trkpt>
      <trkpt lat="48.70358" lon="1.71837">
        <ele>184</ele>
        <time>2014-04-23T09:45:22.000Z</time>
      </trkpt>
      <trkpt lat="48.70356" lon="1.71852">
        <ele>183.60000610352</ele>
        <time>2014-04-23T09:45:30.000Z</time>
      </trkpt>
      <trkpt lat="48.70354" lon="1.71865">
        <ele>183.39999389648</ele>
        <time>2014-04-23T09:45:37.000Z</time>
      </trkpt>
      <trkpt lat="48.7035" lon="1.71881">
        <ele>183</ele>
        <time>2014-04-23T09:45:43.000Z</time>
      </trkpt>
      <trkpt lat="48.70349" lon="1.71883">
        <ele>183</ele>
        <time>2014-04-23T09:45:44.000Z</time>
      </trkpt>
      <trkpt lat="48.70346" lon="1.7189">
        <ele>182.80000305176</ele>
        <time>2014-04-23T09:45:48.000Z</time>
      </trkpt>
      <trkpt lat="48.70349" lon="1.71895">
        <ele>182.80000305176</ele>
        <time>2014-04-23T09:45:52.000Z</time>
      </trkpt>
      <trkpt lat="48.70346" lon="1.71901">
        <ele>182.80000305176</ele>
        <time>2014-04-23T09:45:56.000Z</time>
      </trkpt>
      <trkpt lat="48.70343" lon="1.71911">
        <ele>182.80000305176</ele>
        <time>2014-04-23T09:46:00.000Z</time>
      </trkpt>
      <trkpt lat="48.70341" lon="1.71915">
        <ele>182.60000610352</ele>
        <time>2014-04-23T09:46:02.000Z</time>
      </trkpt>
      <trkpt lat="48.7034" lon="1.71931">
        <ele>182.60000610352</ele>
        <time>2014-04-23T09:46:08.000Z</time>
      </trkpt>
      <trkpt lat="48.70339" lon="1.71937">
        <ele>182.60000610352</ele>
        <time>2014-04-23T09:46:10.000Z</time>
      </trkpt>
      <trkpt lat="48.70336" lon="1.71947">
        <ele>182.60000610352</ele>
        <time>2014-04-23T09:46:16.000Z</time>
      </trkpt>
      <trkpt lat="48.70333" lon="1.71958">
        <ele>182.60000610352</ele>
        <time>2014-04-23T09:46:22.000Z</time>
      </trkpt>
      <trkpt lat="48.7033" lon="1.71968">
        <ele>182.19999694824</ele>
        <time>2014-04-23T09:46:27.000Z</time>
      </trkpt>
      <trkpt lat="48.70326" lon="1.71982">
        <ele>181.60000610352</ele>
        <time>2014-04-23T09:46:34.000Z</time>
      </trkpt>
      <trkpt lat="48.70324" lon="1.71996">
        <ele>181.39999389648</ele>
        <time>2014-04-23T09:46:41.000Z</time>
      </trkpt>
      <trkpt lat="48.7032" lon="1.7201">
        <ele>181.60000610352</ele>
        <time>2014-04-23T09:46:47.000Z</time>
      </trkpt>
      <trkpt lat="48.70319" lon="1.72013">
        <ele>181.60000610352</ele>
        <time>2014-04-23T09:46:48.000Z</time>
      </trkpt>
      <trkpt lat="48.70318" lon="1.72025">
        <ele>181.80000305176</ele>
        <time>2014-04-23T09:46:52.000Z</time>
      </trkpt>
      <trkpt lat="48.70312" lon="1.72044">
        <ele>182</ele>
        <time>2014-04-23T09:47:01.000Z</time>
      </trkpt>
      <trkpt lat="48.70308" lon="1.72059">
        <ele>182.39999389648</ele>
        <time>2014-04-23T09:47:08.000Z</time>
      </trkpt>
      <trkpt lat="48.70306" lon="1.72073">
        <ele>182.80000305176</ele>
        <time>2014-04-23T09:47:15.000Z</time>
      </trkpt>
      <trkpt lat="48.70303" lon="1.72083">
        <ele>182.80000305176</ele>
        <time>2014-04-23T09:47:21.000Z</time>
      </trkpt>
      <trkpt lat="48.70299" lon="1.72096">
        <ele>182.80000305176</ele>
        <time>2014-04-23T09:47:29.000Z</time>
      </trkpt>
      <trkpt lat="48.70298" lon="1.72107">
        <ele>183</ele>
        <time>2014-04-23T09:47:34.000Z</time>
      </trkpt>
      <trkpt lat="48.70295" lon="1.72122">
        <ele>183.39999389648</ele>
        <time>2014-04-23T09:47:40.000Z</time>
      </trkpt>
      <trkpt lat="48.70293" lon="1.7214">
        <ele>184</ele>
        <time>2014-04-23T09:47:48.000Z</time>
      </trkpt>
      <trkpt lat="48.70291" lon="1.72148">
        <ele>184.39999389648</ele>
        <time>2014-04-23T09:47:52.000Z</time>
      </trkpt>
      <trkpt lat="48.70287" lon="1.72164">
        <ele>184.39999389648</ele>
        <time>2014-04-23T09:48:00.000Z</time>
      </trkpt>
      <trkpt lat="48.70286" lon="1.72171">
        <ele>184.39999389648</ele>
        <time>2014-04-23T09:48:03.000Z</time>
      </trkpt>
      <trkpt lat="48.70282" lon="1.72186">
        <ele>184.60000610352</ele>
        <time>2014-04-23T09:48:11.000Z</time>
      </trkpt>
      <trkpt lat="48.70277" lon="1.72201">
        <ele>184.60000610352</ele>
        <time>2014-04-23T09:48:18.000Z</time>
      </trkpt>
      <trkpt lat="48.70274" lon="1.72215">
        <ele>184.80000305176</ele>
        <time>2014-04-23T09:48:24.000Z</time>
      </trkpt>
      <trkpt lat="48.7027" lon="1.72226">
        <ele>184.80000305176</ele>
        <time>2014-04-23T09:48:31.000Z</time>
      </trkpt>
      <trkpt lat="48.7027" lon="1.72241">
        <ele>185</ele>
        <time>2014-04-23T09:48:38.000Z</time>
      </trkpt>
      <trkpt lat="48.70268" lon="1.72254">
        <ele>184.80000305176</ele>
        <time>2014-04-23T09:48:44.000Z</time>
      </trkpt>
      <trkpt lat="48.70268" lon="1.72255">
        <ele>184.80000305176</ele>
        <time>2014-04-23T09:48:45.000Z</time>
      </trkpt>
      <trkpt lat="48.70265" lon="1.72269">
        <ele>184.60000610352</ele>
        <time>2014-04-23T09:48:52.000Z</time>
      </trkpt>
      <trkpt lat="48.7026" lon="1.72287">
        <ele>184.19999694824</ele>
        <time>2014-04-23T09:49:00.000Z</time>
      </trkpt>
      <trkpt lat="48.70259" lon="1.72296">
        <ele>184</ele>
        <time>2014-04-23T09:49:04.000Z</time>
      </trkpt>
      <trkpt lat="48.70256" lon="1.72308">
        <ele>184</ele>
        <time>2014-04-23T09:49:10.000Z</time>
      </trkpt>
      <trkpt lat="48.70255" lon="1.72314">
        <ele>184.19999694824</ele>
        <time>2014-04-23T09:49:13.000Z</time>
      </trkpt>
      <trkpt lat="48.70254" lon="1.72318">
        <ele>184.39999389648</ele>
        <time>2014-04-23T09:49:15.000Z</time>
      </trkpt>
      <trkpt lat="48.70252" lon="1.72323">
        <ele>184.39999389648</ele>
        <time>2014-04-23T09:49:19.000Z</time>
      </trkpt>
      <trkpt lat="48.70251" lon="1.72336">
        <ele>184</ele>
        <time>2014-04-23T09:49:27.000Z</time>
      </trkpt>
      <trkpt lat="48.70249" lon="1.72353">
        <ele>183.39999389648</ele>
        <time>2014-04-23T09:49:33.000Z</time>
      </trkpt>
      <trkpt lat="48.70249" lon="1.72357">
        <ele>183.19999694824</ele>
        <time>2014-04-23T09:49:36.000Z</time>
      </trkpt>
      <trkpt lat="48.70244" lon="1.72372">
        <ele>182.60000610352</ele>
        <time>2014-04-23T09:49:43.000Z</time>
      </trkpt>
      <trkpt lat="48.70243" lon="1.72387">
        <ele>182.80000305176</ele>
        <time>2014-04-23T09:49:49.000Z</time>
      </trkpt>
      <trkpt lat="48.70242" lon="1.72394">
        <ele>183</ele>
        <time>2014-04-23T09:49:56.000Z</time>
      </trkpt>
      <trkpt lat="48.70222" lon="1.72462">
        <ele>182.80000305176</ele>
        <time>2014-04-23T09:52:18.000Z</time>
      </trkpt>
      <trkpt lat="48.7022" lon="1.72478">
        <ele>182.80000305176</ele>
        <time>2014-04-23T09:52:24.000Z</time>
      </trkpt>
      <trkpt lat="48.70216" lon="1.72496">
        <ele>182.80000305176</ele>
        <time>2014-04-23T09:52:33.000Z</time>
      </trkpt>
      <trkpt lat="48.70216" lon="1.72509">
        <ele>182.39999389648</ele>
        <time>2014-04-23T09:52:39.000Z</time>
      </trkpt>
      <trkpt lat="48.70214" lon="1.72521">
        <ele>182.19999694824</ele>
        <time>2014-04-23T09:52:45.000Z</time>
      </trkpt>
      <trkpt lat="48.70214" lon="1.72524">
        <ele>182.19999694824</ele>
        <time>2014-04-23T09:52:47.000Z</time>
      </trkpt>
      <trkpt lat="48.70212" lon="1.72532">
        <ele>182.39999389648</ele>
        <time>2014-04-23T09:52:51.000Z</time>
      </trkpt>
      <trkpt lat="48.70208" lon="1.72548">
        <ele>182.39999389648</ele>
        <time>2014-04-23T09:52:59.000Z</time>
      </trkpt>
      <trkpt lat="48.70206" lon="1.72562">
        <ele>182.39999389648</ele>
        <time>2014-04-23T09:53:06.000Z</time>
      </trkpt>
      <trkpt lat="48.70202" lon="1.72578">
        <ele>182.60000610352</ele>
        <time>2014-04-23T09:53:13.000Z</time>
      </trkpt>
      <trkpt lat="48.70201" lon="1.72586">
        <ele>182.60000610352</ele>
        <time>2014-04-23T09:53:16.000Z</time>
      </trkpt>
      <trkpt lat="48.702" lon="1.72598">
        <ele>182</ele>
        <time>2014-04-23T09:53:22.000Z</time>
      </trkpt>
      <trkpt lat="48.70199" lon="1.72603">
        <ele>181.80000305176</ele>
        <time>2014-04-23T09:53:26.000Z</time>
      </trkpt>
      <trkpt lat="48.70195" lon="1.72618">
        <ele>181.39999389648</ele>
        <time>2014-04-23T09:53:35.000Z</time>
      </trkpt>
      <trkpt lat="48.70192" lon="1.72632">
        <ele>180.80000305176</ele>
        <time>2014-04-23T09:53:41.000Z</time>
      </trkpt>
      <trkpt lat="48.70192" lon="1.72636">
        <ele>180.60000610352</ele>
        <time>2014-04-23T09:53:44.000Z</time>
      </trkpt>
      <trkpt lat="48.70189" lon="1.72643">
        <ele>180.39999389648</ele>
        <time>2014-04-23T09:53:49.000Z</time>
      </trkpt>
      <trkpt lat="48.70185" lon="1.72654">
        <ele>180</ele>
        <time>2014-04-23T09:53:56.000Z</time>
      </trkpt>
      <trkpt lat="48.70184" lon="1.72657">
        <ele>179.80000305176</ele>
        <time>2014-04-23T09:53:58.000Z</time>
      </trkpt>
      <trkpt lat="48.70183" lon="1.7266">
        <ele>179.60000610352</ele>
        <time>2014-04-23T09:54:00.000Z</time>
      </trkpt>
      <trkpt lat="48.70179" lon="1.72675">
        <ele>178.80000305176</ele>
        <time>2014-04-23T09:54:05.000Z</time>
      </trkpt>
      <trkpt lat="48.70173" lon="1.72699">
        <ele>177.60000610352</ele>
        <time>2014-04-23T09:54:12.000Z</time>
      </trkpt>
      <trkpt lat="48.70167" lon="1.72715">
        <ele>176.80000305176</ele>
        <time>2014-04-23T09:54:20.000Z</time>
      </trkpt>
      <trkpt lat="48.70164" lon="1.72726">
        <ele>177.19999694824</ele>
        <time>2014-04-23T09:54:26.000Z</time>
      </trkpt>
      <trkpt lat="48.70159" lon="1.72739">
        <ele>177.60000610352</ele>
        <time>2014-04-23T09:54:32.000Z</time>
      </trkpt>
      <trkpt lat="48.70153" lon="1.7276">
        <ele>177.80000305176</ele>
        <time>2014-04-23T09:54:40.000Z</time>
      </trkpt>
      <trkpt lat="48.7015" lon="1.72772">
        <ele>177.80000305176</ele>
        <time>2014-04-23T09:54:46.000Z</time>
      </trkpt>
      <trkpt lat="48.70148" lon="1.72774">
        <ele>177.80000305176</ele>
        <time>2014-04-23T09:54:48.000Z</time>
      </trkpt>
      <trkpt lat="48.70145" lon="1.72784">
        <ele>178</ele>
        <time>2014-04-23T09:54:57.000Z</time>
      </trkpt>
      <trkpt lat="48.7014" lon="1.72799">
        <ele>178.39999389648</ele>
        <time>2014-04-23T09:55:04.000Z</time>
      </trkpt>
      <trkpt lat="48.70134" lon="1.72815">
        <ele>178.80000305176</ele>
        <time>2014-04-23T09:55:12.000Z</time>
      </trkpt>
      <trkpt lat="48.70128" lon="1.72833">
        <ele>179</ele>
        <time>2014-04-23T09:55:19.000Z</time>
      </trkpt>
      <trkpt lat="48.70127" lon="1.72837">
        <ele>179</ele>
        <time>2014-04-23T09:55:21.000Z</time>
      </trkpt>
      <trkpt lat="48.70125" lon="1.72847">
        <ele>178.80000305176</ele>
        <time>2014-04-23T09:55:27.000Z</time>
      </trkpt>
      <trkpt lat="48.70119" lon="1.72865">
        <ele>178.80000305176</ele>
        <time>2014-04-23T09:55:36.000Z</time>
      </trkpt>
      <trkpt lat="48.70116" lon="1.72875">
        <ele>178.80000305176</ele>
        <time>2014-04-23T09:55:42.000Z</time>
      </trkpt>
      <trkpt lat="48.7011" lon="1.72891">
        <ele>178.80000305176</ele>
        <time>2014-04-23T09:55:50.000Z</time>
      </trkpt>
      <trkpt lat="48.70104" lon="1.72909">
        <ele>179</ele>
        <time>2014-04-23T09:55:57.000Z</time>
      </trkpt>
      <trkpt lat="48.701" lon="1.72924">
        <ele>179.39999389648</ele>
        <time>2014-04-23T09:56:05.000Z</time>
      </trkpt>
      <trkpt lat="48.70096" lon="1.72936">
        <ele>180</ele>
        <time>2014-04-23T09:56:12.000Z</time>
      </trkpt>
      <trkpt lat="48.70092" lon="1.72948">
        <ele>180.39999389648</ele>
        <time>2014-04-23T09:56:18.000Z</time>
      </trkpt>
      <trkpt lat="48.70088" lon="1.72959">
        <ele>180.80000305176</ele>
        <time>2014-04-23T09:56:24.000Z</time>
      </trkpt>
      <trkpt lat="48.70083" lon="1.72975">
        <ele>181.39999389648</ele>
        <time>2014-04-23T09:56:31.000Z</time>
      </trkpt>
      <trkpt lat="48.70079" lon="1.72989">
        <ele>182.39999389648</ele>
        <time>2014-04-23T09:56:40.000Z</time>
      </trkpt>
      <trkpt lat="48.70074" lon="1.73005">
        <ele>183</ele>
        <time>2014-04-23T09:56:48.000Z</time>
      </trkpt>
      <trkpt lat="48.70067" lon="1.73023">
        <ele>184</ele>
        <time>2014-04-23T09:56:56.000Z</time>
      </trkpt>
      <trkpt lat="48.70062" lon="1.73035">
        <ele>184.39999389648</ele>
        <time>2014-04-23T09:57:03.000Z</time>
      </trkpt>
      <trkpt lat="48.70059" lon="1.73047">
        <ele>184.19999694824</ele>
        <time>2014-04-23T09:57:11.000Z</time>
      </trkpt>
      <trkpt lat="48.70054" lon="1.73063">
        <ele>184.19999694824</ele>
        <time>2014-04-23T09:57:20.000Z</time>
      </trkpt>
      <trkpt lat="48.70053" lon="1.73064">
        <ele>184.19999694824</ele>
        <time>2014-04-23T09:57:21.000Z</time>
      </trkpt>
      <trkpt lat="48.70052" lon="1.73067">
        <ele>184.19999694824</ele>
        <time>2014-04-23T09:57:23.000Z</time>
      </trkpt>
      <trkpt lat="48.70052" lon="1.73068">
        <ele>184.19999694824</ele>
        <time>2014-04-23T09:57:26.000Z</time>
      </trkpt>
      <trkpt lat="48.70048" lon="1.73078">
        <ele>184.19999694824</ele>
        <time>2014-04-23T09:57:33.000Z</time>
      </trkpt>
      <trkpt lat="48.70044" lon="1.73094">
        <ele>184.60000610352</ele>
        <time>2014-04-23T09:57:35.000Z</time>
      </trkpt>
      <trkpt lat="48.70035" lon="1.73119">
        <ele>183.80000305176</ele>
        <time>2014-04-23T09:57:40.000Z</time>
      </trkpt>
      <trkpt lat="48.70031" lon="1.73133">
        <ele>183.39999389648</ele>
        <time>2014-04-23T09:57:45.000Z</time>
      </trkpt>
      <trkpt lat="48.70028" lon="1.73142">
        <ele>183.19999694824</ele>
        <time>2014-04-23T09:57:51.000Z</time>
      </trkpt>
      <trkpt lat="48.70022" lon="1.73153">
        <ele>183</ele>
        <time>2014-04-23T09:57:58.000Z</time>
      </trkpt>
      <trkpt lat="48.70017" lon="1.73162">
        <ele>182.39999389648</ele>
        <time>2014-04-23T09:58:04.000Z</time>
      </trkpt>
      <trkpt lat="48.70015" lon="1.73169">
        <ele>181.80000305176</ele>
        <time>2014-04-23T09:58:09.000Z</time>
      </trkpt>
      <trkpt lat="48.70013" lon="1.73177">
        <ele>181.19999694824</ele>
        <time>2014-04-23T09:58:12.000Z</time>
      </trkpt>
      <trkpt lat="48.70009" lon="1.7319">
        <ele>180.19999694824</ele>
        <time>2014-04-23T09:58:17.000Z</time>
      </trkpt>
      <trkpt lat="48.70001" lon="1.73205">
        <ele>178.80000305176</ele>
        <time>2014-04-23T09:58:26.000Z</time>
      </trkpt>
      <trkpt lat="48.69994" lon="1.73219">
        <ele>177.80000305176</ele>
        <time>2014-04-23T09:58:34.000Z</time>
      </trkpt>
      <trkpt lat="48.69986" lon="1.73234">
        <ele>177</ele>
        <time>2014-04-23T09:58:42.000Z</time>
      </trkpt>
      <trkpt lat="48.69981" lon="1.73242">
        <ele>176.60000610352</ele>
        <time>2014-04-23T09:58:48.000Z</time>
      </trkpt>
      <trkpt lat="48.69979" lon="1.73252">
        <ele>176.80000305176</ele>
        <time>2014-04-23T09:58:53.000Z</time>
      </trkpt>
      <trkpt lat="48.69973" lon="1.7326">
        <ele>176.60000610352</ele>
        <time>2014-04-23T09:58:59.000Z</time>
      </trkpt>
      <trkpt lat="48.69971" lon="1.73262">
        <ele>176.60000610352</ele>
        <time>2014-04-23T09:59:01.000Z</time>
      </trkpt>
      <trkpt lat="48.69965" lon="1.73273">
        <ele>176.60000610352</ele>
        <time>2014-04-23T09:59:07.000Z</time>
      </trkpt>
      <trkpt lat="48.69958" lon="1.73286">
        <ele>176.60000610352</ele>
        <time>2014-04-23T09:59:16.000Z</time>
      </trkpt>
      <trkpt lat="48.6995" lon="1.73304">
        <ele>177</ele>
        <time>2014-04-23T09:59:25.000Z</time>
      </trkpt>
      <trkpt lat="48.69945" lon="1.73313">
        <ele>177</ele>
        <time>2014-04-23T09:59:32.000Z</time>
      </trkpt>
      <trkpt lat="48.6994" lon="1.73323">
        <ele>177</ele>
        <time>2014-04-23T09:59:39.000Z</time>
      </trkpt>
      <trkpt lat="48.69933" lon="1.73334">
        <ele>177.39999389648</ele>
        <time>2014-04-23T09:59:47.000Z</time>
      </trkpt>
      <trkpt lat="48.69932" lon="1.73335">
        <ele>177.39999389648</ele>
        <time>2014-04-23T09:59:48.000Z</time>
      </trkpt>
      <trkpt lat="48.69925" lon="1.73351">
        <ele>177.80000305176</ele>
        <time>2014-04-23T09:59:56.000Z</time>
      </trkpt>
      <trkpt lat="48.69918" lon="1.73368">
        <ele>178.39999389648</ele>
        <time>2014-04-23T10:00:03.000Z</time>
      </trkpt>
      <trkpt lat="48.69912" lon="1.7338">
        <ele>178.80000305176</ele>
        <time>2014-04-23T10:00:11.000Z</time>
      </trkpt>
      <trkpt lat="48.69906" lon="1.73395">
        <ele>178.80000305176</ele>
        <time>2014-04-23T10:00:18.000Z</time>
      </trkpt>
      <trkpt lat="48.69901" lon="1.73406">
        <ele>179</ele>
        <time>2014-04-23T10:00:25.000Z</time>
      </trkpt>
      <trkpt lat="48.69893" lon="1.73421">
        <ele>178.39999389648</ele>
        <time>2014-04-23T10:00:33.000Z</time>
      </trkpt>
      <trkpt lat="48.69887" lon="1.73431">
        <ele>178</ele>
        <time>2014-04-23T10:00:40.000Z</time>
      </trkpt>
      <trkpt lat="48.69881" lon="1.73441">
        <ele>178</ele>
        <time>2014-04-23T10:00:48.000Z</time>
      </trkpt>
      <trkpt lat="48.69877" lon="1.73451">
        <ele>178.19999694824</ele>
        <time>2014-04-23T10:00:54.000Z</time>
      </trkpt>
      <trkpt lat="48.69872" lon="1.73465">
        <ele>178.39999389648</ele>
        <time>2014-04-23T10:01:02.000Z</time>
      </trkpt>
      <trkpt lat="48.69868" lon="1.73474">
        <ele>178.39999389648</ele>
        <time>2014-04-23T10:01:07.000Z</time>
      </trkpt>
      <trkpt lat="48.69864" lon="1.73483">
        <ele>178.60000610352</ele>
        <time>2014-04-23T10:01:13.000Z</time>
      </trkpt>
      <trkpt lat="48.69859" lon="1.73495">
        <ele>178.80000305176</ele>
        <time>2014-04-23T10:01:19.000Z</time>
      </trkpt>
      <trkpt lat="48.69855" lon="1.73502">
        <ele>179</ele>
        <time>2014-04-23T10:01:23.000Z</time>
      </trkpt>
      <trkpt lat="48.69848" lon="1.73514">
        <ele>179.19999694824</ele>
        <time>2014-04-23T10:01:32.000Z</time>
      </trkpt>
      <trkpt lat="48.69845" lon="1.7352">
        <ele>179.19999694824</ele>
        <time>2014-04-23T10:01:36.000Z</time>
      </trkpt>
      <trkpt lat="48.69841" lon="1.73528">
        <ele>179.19999694824</ele>
        <time>2014-04-23T10:01:41.000Z</time>
      </trkpt>
      <trkpt lat="48.69836" lon="1.73538">
        <ele>179.39999389648</ele>
        <time>2014-04-23T10:01:47.000Z</time>
      </trkpt>
      <trkpt lat="48.69831" lon="1.73545">
        <ele>179.60000610352</ele>
        <time>2014-04-23T10:01:53.000Z</time>
      </trkpt>
      <trkpt lat="48.69828" lon="1.7355">
        <ele>179.60000610352</ele>
        <time>2014-04-23T10:01:59.000Z</time>
      </trkpt>
      <trkpt lat="48.69817" lon="1.7357">
        <ele>179.39999389648</ele>
        <time>2014-04-23T10:02:28.000Z</time>
      </trkpt>
      <trkpt lat="48.69812" lon="1.73582">
        <ele>179.39999389648</ele>
        <time>2014-04-23T10:02:33.000Z</time>
      </trkpt>
      <trkpt lat="48.6981" lon="1.73586">
        <ele>179.60000610352</ele>
        <time>2014-04-23T10:02:35.000Z</time>
      </trkpt>
      <trkpt lat="48.69807" lon="1.73594">
        <ele>179.60000610352</ele>
        <time>2014-04-23T10:02:40.000Z</time>
      </trkpt>
      <trkpt lat="48.69801" lon="1.73606">
        <ele>179.60000610352</ele>
        <time>2014-04-23T10:02:48.000Z</time>
      </trkpt>
      <trkpt lat="48.69796" lon="1.73615">
        <ele>179.60000610352</ele>
        <time>2014-04-23T10:02:54.000Z</time>
      </trkpt>
      <trkpt lat="48.69796" lon="1.73617">
        <ele>179.60000610352</ele>
        <time>2014-04-23T10:02:55.000Z</time>
      </trkpt>
      <trkpt lat="48.69792" lon="1.73624">
        <ele>179.80000305176</ele>
        <time>2014-04-23T10:03:01.000Z</time>
      </trkpt>
      <trkpt lat="48.69789" lon="1.73629">
        <ele>179.80000305176</ele>
        <time>2014-04-23T10:03:05.000Z</time>
      </trkpt>
      <trkpt lat="48.69783" lon="1.73643">
        <ele>179.80000305176</ele>
        <time>2014-04-23T10:03:13.000Z</time>
      </trkpt>
      <trkpt lat="48.69777" lon="1.73653">
        <ele>180</ele>
        <time>2014-04-23T10:03:20.000Z</time>
      </trkpt>
      <trkpt lat="48.69772" lon="1.73663">
        <ele>179.60000610352</ele>
        <time>2014-04-23T10:03:25.000Z</time>
      </trkpt>
      <trkpt lat="48.69775" lon="1.73673">
        <ele>179.39999389648</ele>
        <time>2014-04-23T10:03:30.000Z</time>
      </trkpt>
      <trkpt lat="48.69783" lon="1.73677">
        <ele>179.39999389648</ele>
        <time>2014-04-23T10:03:35.000Z</time>
      </trkpt>
      <trkpt lat="48.69784" lon="1.73675">
        <ele>179.39999389648</ele>
        <time>2014-04-23T10:03:40.000Z</time>
      </trkpt>
      <trkpt lat="48.69774" lon="1.73683">
        <ele>179</ele>
        <time>2014-04-23T10:03:46.000Z</time>
      </trkpt>
      <trkpt lat="48.69769" lon="1.73687">
        <ele>178.80000305176</ele>
        <time>2014-04-23T10:03:50.000Z</time>
      </trkpt>
      <trkpt lat="48.6976" lon="1.73696">
        <ele>178.39999389648</ele>
        <time>2014-04-23T10:03:57.000Z</time>
      </trkpt>
      <trkpt lat="48.69756" lon="1.737">
        <ele>178.39999389648</ele>
        <time>2014-04-23T10:04:01.000Z</time>
      </trkpt>
      <trkpt lat="48.69749" lon="1.73713">
        <ele>177.80000305176</ele>
        <time>2014-04-23T10:04:08.000Z</time>
      </trkpt>
      <trkpt lat="48.69748" lon="1.73715">
        <ele>177.80000305176</ele>
        <time>2014-04-23T10:04:09.000Z</time>
      </trkpt>
      <trkpt lat="48.69744" lon="1.73724">
        <ele>177.80000305176</ele>
        <time>2014-04-23T10:04:15.000Z</time>
      </trkpt>
      <trkpt lat="48.69741" lon="1.73733">
        <ele>177.80000305176</ele>
        <time>2014-04-23T10:04:20.000Z</time>
      </trkpt>
      <trkpt lat="48.69733" lon="1.73747">
        <ele>177.60000610352</ele>
        <time>2014-04-23T10:04:29.000Z</time>
      </trkpt>
      <trkpt lat="48.69728" lon="1.73757">
        <ele>177.60000610352</ele>
        <time>2014-04-23T10:04:36.000Z</time>
      </trkpt>
      <trkpt lat="48.69725" lon="1.73762">
        <ele>177.39999389648</ele>
        <time>2014-04-23T10:04:40.000Z</time>
      </trkpt>
      <trkpt lat="48.6972" lon="1.73771">
        <ele>177.39999389648</ele>
        <time>2014-04-23T10:04:46.000Z</time>
      </trkpt>
      <trkpt lat="48.69712" lon="1.73785">
        <ele>177.19999694824</ele>
        <time>2014-04-23T10:04:54.000Z</time>
      </trkpt>
      <trkpt lat="48.69702" lon="1.73807">
        <ele>177</ele>
        <time>2014-04-23T10:05:02.000Z</time>
      </trkpt>
      <trkpt lat="48.69699" lon="1.73815">
        <ele>176.80000305176</ele>
        <time>2014-04-23T10:05:06.000Z</time>
      </trkpt>
      <trkpt lat="48.69691" lon="1.7383">
        <ele>176.80000305176</ele>
        <time>2014-04-23T10:05:15.000Z</time>
      </trkpt>
      <trkpt lat="48.69684" lon="1.73845">
        <ele>176.80000305176</ele>
        <time>2014-04-23T10:05:22.000Z</time>
      </trkpt>
      <trkpt lat="48.69678" lon="1.73854">
        <ele>177</ele>
        <time>2014-04-23T10:05:28.000Z</time>
      </trkpt>
      <trkpt lat="48.69673" lon="1.73866">
        <ele>177.19999694824</ele>
        <time>2014-04-23T10:05:35.000Z</time>
      </trkpt>
      <trkpt lat="48.69668" lon="1.73877">
        <ele>177.19999694824</ele>
        <time>2014-04-23T10:05:41.000Z</time>
      </trkpt>
      <trkpt lat="48.69663" lon="1.73885">
        <ele>177.60000610352</ele>
        <time>2014-04-23T10:05:47.000Z</time>
      </trkpt>
      <trkpt lat="48.69656" lon="1.73898">
        <ele>178.19999694824</ele>
        <time>2014-04-23T10:05:52.000Z</time>
      </trkpt>
      <trkpt lat="48.69652" lon="1.73906">
        <ele>178.39999389648</ele>
        <time>2014-04-23T10:05:57.000Z</time>
      </trkpt>
      <trkpt lat="48.69649" lon="1.73914">
        <ele>178.39999389648</ele>
        <time>2014-04-23T10:06:02.000Z</time>
      </trkpt>
      <trkpt lat="48.69645" lon="1.73923">
        <ele>178.60000610352</ele>
        <time>2014-04-23T10:06:07.000Z</time>
      </trkpt>
      <trkpt lat="48.6964" lon="1.73932">
        <ele>178.60000610352</ele>
        <time>2014-04-23T10:06:12.000Z</time>
      </trkpt>
      <trkpt lat="48.69636" lon="1.73942">
        <ele>178.80000305176</ele>
        <time>2014-04-23T10:06:17.000Z</time>
      </trkpt>
      <trkpt lat="48.69627" lon="1.73953">
        <ele>179.19999694824</ele>
        <time>2014-04-23T10:06:26.000Z</time>
      </trkpt>
      <trkpt lat="48.69625" lon="1.73959">
        <ele>179.19999694824</ele>
        <time>2014-04-23T10:06:29.000Z</time>
      </trkpt>
      <trkpt lat="48.69621" lon="1.73971">
        <ele>179</ele>
        <time>2014-04-23T10:06:35.000Z</time>
      </trkpt>
      <trkpt lat="48.69618" lon="1.73984">
        <ele>179</ele>
        <time>2014-04-23T10:06:41.000Z</time>
      </trkpt>
      <trkpt lat="48.6962" lon="1.7399">
        <ele>178.80000305176</ele>
        <time>2014-04-23T10:06:45.000Z</time>
      </trkpt>
      <trkpt lat="48.69625" lon="1.74008">
        <ele>178</ele>
        <time>2014-04-23T10:06:53.000Z</time>
      </trkpt>
      <trkpt lat="48.69627" lon="1.74014">
        <ele>177.60000610352</ele>
        <time>2014-04-23T10:06:56.000Z</time>
      </trkpt>
      <trkpt lat="48.69628" lon="1.74024">
        <ele>177.39999389648</ele>
        <time>2014-04-23T10:07:01.000Z</time>
      </trkpt>
      <trkpt lat="48.69632" lon="1.7403">
        <ele>177</ele>
        <time>2014-04-23T10:07:05.000Z</time>
      </trkpt>
      <trkpt lat="48.69636" lon="1.74044">
        <ele>176.39999389648</ele>
        <time>2014-04-23T10:07:12.000Z</time>
      </trkpt>
      <trkpt lat="48.6964" lon="1.74055">
        <ele>175.80000305176</ele>
        <time>2014-04-23T10:07:17.000Z</time>
      </trkpt>
      <trkpt lat="48.69641" lon="1.74059">
        <ele>175.60000610352</ele>
        <time>2014-04-23T10:07:19.000Z</time>
      </trkpt>
      <trkpt lat="48.69644" lon="1.74074">
        <ele>175</ele>
        <time>2014-04-23T10:07:27.000Z</time>
      </trkpt>
      <trkpt lat="48.69648" lon="1.74095">
        <ele>174.39999389648</ele>
        <time>2014-04-23T10:07:36.000Z</time>
      </trkpt>
      <trkpt lat="48.69648" lon="1.74101">
        <ele>174.39999389648</ele>
        <time>2014-04-23T10:07:39.000Z</time>
      </trkpt>
      <trkpt lat="48.69653" lon="1.74115">
        <ele>173.80000305176</ele>
        <time>2014-04-23T10:07:45.000Z</time>
      </trkpt>
      <trkpt lat="48.69654" lon="1.74116">
        <ele>173.80000305176</ele>
        <time>2014-04-23T10:07:46.000Z</time>
      </trkpt>
      <trkpt lat="48.69655" lon="1.74123">
        <ele>173.60000610352</ele>
        <time>2014-04-23T10:07:49.000Z</time>
      </trkpt>
      <trkpt lat="48.69661" lon="1.74137">
        <ele>173</ele>
        <time>2014-04-23T10:07:56.000Z</time>
      </trkpt>
      <trkpt lat="48.69662" lon="1.74141">
        <ele>173</ele>
        <time>2014-04-23T10:07:58.000Z</time>
      </trkpt>
      <trkpt lat="48.69664" lon="1.74158">
        <ele>172.60000610352</ele>
        <time>2014-04-23T10:08:05.000Z</time>
      </trkpt>
      <trkpt lat="48.69664" lon="1.7416">
        <ele>172.60000610352</ele>
        <time>2014-04-23T10:08:06.000Z</time>
      </trkpt>
      <trkpt lat="48.69665" lon="1.74177">
        <ele>172.60000610352</ele>
        <time>2014-04-23T10:08:12.000Z</time>
      </trkpt>
      <trkpt lat="48.69667" lon="1.74183">
        <ele>172.39999389648</ele>
        <time>2014-04-23T10:08:15.000Z</time>
      </trkpt>
      <trkpt lat="48.69673" lon="1.74194">
        <ele>172</ele>
        <time>2014-04-23T10:08:22.000Z</time>
      </trkpt>
      <trkpt lat="48.69675" lon="1.74198">
        <ele>171.80000305176</ele>
        <time>2014-04-23T10:08:24.000Z</time>
      </trkpt>
      <trkpt lat="48.69677" lon="1.74215">
        <ele>171.80000305176</ele>
        <time>2014-04-23T10:08:31.000Z</time>
      </trkpt>
      <trkpt lat="48.69679" lon="1.7423">
        <ele>171.60000610352</ele>
        <time>2014-04-23T10:08:38.000Z</time>
      </trkpt>
      <trkpt lat="48.69679" lon="1.74233">
        <ele>171.60000610352</ele>
        <time>2014-04-23T10:08:39.000Z</time>
      </trkpt>
      <trkpt lat="48.69685" lon="1.74246">
        <ele>171</ele>
        <time>2014-04-23T10:08:45.000Z</time>
      </trkpt>
      <trkpt lat="48.69688" lon="1.74253">
        <ele>170.80000305176</ele>
        <time>2014-04-23T10:08:48.000Z</time>
      </trkpt>
      <trkpt lat="48.69691" lon="1.74268">
        <ele>170.39999389648</ele>
        <time>2014-04-23T10:08:55.000Z</time>
      </trkpt>
      <trkpt lat="48.69693" lon="1.7427">
        <ele>170.39999389648</ele>
        <time>2014-04-23T10:08:57.000Z</time>
      </trkpt>
      <trkpt lat="48.69697" lon="1.74285">
        <ele>170</ele>
        <time>2014-04-23T10:09:04.000Z</time>
      </trkpt>
      <trkpt lat="48.69697" lon="1.74297">
        <ele>170</ele>
        <time>2014-04-23T10:09:09.000Z</time>
      </trkpt>
      <trkpt lat="48.69698" lon="1.7431">
        <ele>169.80000305176</ele>
        <time>2014-04-23T10:09:15.000Z</time>
      </trkpt>
      <trkpt lat="48.69702" lon="1.7432">
        <ele>169.39999389648</ele>
        <time>2014-04-23T10:09:19.000Z</time>
      </trkpt>
      <trkpt lat="48.69706" lon="1.74338">
        <ele>168.80000305176</ele>
        <time>2014-04-23T10:09:27.000Z</time>
      </trkpt>
      <trkpt lat="48.69707" lon="1.74347">
        <ele>168.60000610352</ele>
        <time>2014-04-23T10:09:32.000Z</time>
      </trkpt>
      <trkpt lat="48.69708" lon="1.74352">
        <ele>168.39999389648</ele>
        <time>2014-04-23T10:09:34.000Z</time>
      </trkpt>
      <trkpt lat="48.69712" lon="1.74365">
        <ele>168</ele>
        <time>2014-04-23T10:09:40.000Z</time>
      </trkpt>
      <trkpt lat="48.69713" lon="1.7437">
        <ele>167.80000305176</ele>
        <time>2014-04-23T10:09:42.000Z</time>
      </trkpt>
      <trkpt lat="48.69717" lon="1.74378">
        <ele>167.60000610352</ele>
        <time>2014-04-23T10:09:46.000Z</time>
      </trkpt>
      <trkpt lat="48.69722" lon="1.74397">
        <ele>166.80000305176</ele>
        <time>2014-04-23T10:09:54.000Z</time>
      </trkpt>
      <trkpt lat="48.69725" lon="1.74413">
        <ele>166.39999389648</ele>
        <time>2014-04-23T10:10:00.000Z</time>
      </trkpt>
      <trkpt lat="48.69725" lon="1.74417">
        <ele>166.39999389648</ele>
        <time>2014-04-23T10:10:02.000Z</time>
      </trkpt>
      <trkpt lat="48.6973" lon="1.74434">
        <ele>165.80000305176</ele>
        <time>2014-04-23T10:10:10.000Z</time>
      </trkpt>
      <trkpt lat="48.69731" lon="1.74443">
        <ele>165.39999389648</ele>
        <time>2014-04-23T10:10:14.000Z</time>
      </trkpt>
      <trkpt lat="48.6973" lon="1.7445">
        <ele>165.19999694824</ele>
        <time>2014-04-23T10:10:17.000Z</time>
      </trkpt>
      <trkpt lat="48.69731" lon="1.74453">
        <ele>165.19999694824</ele>
        <time>2014-04-23T10:10:19.000Z</time>
      </trkpt>
      <trkpt lat="48.69734" lon="1.74462">
        <ele>164.60000610352</ele>
        <time>2014-04-23T10:10:24.000Z</time>
      </trkpt>
      <trkpt lat="48.69735" lon="1.74468">
        <ele>164.39999389648</ele>
        <time>2014-04-23T10:10:26.000Z</time>
      </trkpt>
      <trkpt lat="48.69737" lon="1.74475">
        <ele>164</ele>
        <time>2014-04-23T10:10:30.000Z</time>
      </trkpt>
      <trkpt lat="48.69737" lon="1.74478">
        <ele>163.80000305176</ele>
        <time>2014-04-23T10:10:32.000Z</time>
      </trkpt>
      <trkpt lat="48.6974" lon="1.74484">
        <ele>163.60000610352</ele>
        <time>2014-04-23T10:10:38.000Z</time>
      </trkpt>
      <trkpt lat="48.69741" lon="1.74486">
        <ele>163.39999389648</ele>
        <time>2014-04-23T10:10:39.000Z</time>
      </trkpt>
      <trkpt lat="48.69744" lon="1.74501">
        <ele>163</ele>
        <time>2014-04-23T10:10:45.000Z</time>
      </trkpt>
      <trkpt lat="48.69746" lon="1.74505">
        <ele>162.80000305176</ele>
        <time>2014-04-23T10:10:47.000Z</time>
      </trkpt>
      <trkpt lat="48.6975" lon="1.7452">
        <ele>162.39999389648</ele>
        <time>2014-04-23T10:10:55.000Z</time>
      </trkpt>
      <trkpt lat="48.69754" lon="1.74532">
        <ele>162.19999694824</ele>
        <time>2014-04-23T10:11:01.000Z</time>
      </trkpt>
      <trkpt lat="48.69755" lon="1.74545">
        <ele>161.80000305176</ele>
        <time>2014-04-23T10:11:07.000Z</time>
      </trkpt>
      <trkpt lat="48.69755" lon="1.7455">
        <ele>161.60000610352</ele>
        <time>2014-04-23T10:11:09.000Z</time>
      </trkpt>
      <trkpt lat="48.69757" lon="1.74558">
        <ele>161.39999389648</ele>
        <time>2014-04-23T10:11:13.000Z</time>
      </trkpt>
      <trkpt lat="48.69759" lon="1.74574">
        <ele>161.19999694824</ele>
        <time>2014-04-23T10:11:20.000Z</time>
      </trkpt>
      <trkpt lat="48.6976" lon="1.74578">
        <ele>161.39999389648</ele>
        <time>2014-04-23T10:11:23.000Z</time>
      </trkpt>
      <trkpt lat="48.69763" lon="1.7459">
        <ele>161.80000305176</ele>
        <time>2014-04-23T10:11:30.000Z</time>
      </trkpt>
      <trkpt lat="48.69765" lon="1.74597">
        <ele>162</ele>
        <time>2014-04-23T10:11:34.000Z</time>
      </trkpt>
      <trkpt lat="48.69764" lon="1.74606">
        <ele>162.39999389648</ele>
        <time>2014-04-23T10:11:38.000Z</time>
      </trkpt>
      <trkpt lat="48.69767" lon="1.74614">
        <ele>162.60000610352</ele>
        <time>2014-04-23T10:11:43.000Z</time>
      </trkpt>
      <trkpt lat="48.69772" lon="1.74628">
        <ele>163.19999694824</ele>
        <time>2014-04-23T10:11:51.000Z</time>
      </trkpt>
      <trkpt lat="48.69775" lon="1.74638">
        <ele>163.60000610352</ele>
        <time>2014-04-23T10:11:56.000Z</time>
      </trkpt>
      <trkpt lat="48.69778" lon="1.74649">
        <ele>164.19999694824</ele>
        <time>2014-04-23T10:12:02.000Z</time>
      </trkpt>
      <trkpt lat="48.69779" lon="1.74652">
        <ele>164.39999389648</ele>
        <time>2014-04-23T10:12:04.000Z</time>
      </trkpt>
      <trkpt lat="48.69784" lon="1.74665">
        <ele>165.39999389648</ele>
        <time>2014-04-23T10:12:12.000Z</time>
      </trkpt>
      <trkpt lat="48.69787" lon="1.74675">
        <ele>165.80000305176</ele>
        <time>2014-04-23T10:12:18.000Z</time>
      </trkpt>
      <trkpt lat="48.69787" lon="1.74682">
        <ele>165.80000305176</ele>
        <time>2014-04-23T10:12:21.000Z</time>
      </trkpt>
      <trkpt lat="48.69789" lon="1.74694">
        <ele>166</ele>
        <time>2014-04-23T10:12:27.000Z</time>
      </trkpt>
      <trkpt lat="48.6979" lon="1.74696">
        <ele>166.19999694824</ele>
        <time>2014-04-23T10:12:28.000Z</time>
      </trkpt>
      <trkpt lat="48.69791" lon="1.74712">
        <ele>166.39999389648</ele>
        <time>2014-04-23T10:12:35.000Z</time>
      </trkpt>
      <trkpt lat="48.69792" lon="1.74718">
        <ele>166.39999389648</ele>
        <time>2014-04-23T10:12:38.000Z</time>
      </trkpt>
      <trkpt lat="48.69795" lon="1.74729">
        <ele>166.80000305176</ele>
        <time>2014-04-23T10:12:44.000Z</time>
      </trkpt>
      <trkpt lat="48.69796" lon="1.74733">
        <ele>166.80000305176</ele>
        <time>2014-04-23T10:12:46.000Z</time>
      </trkpt>
      <trkpt lat="48.698" lon="1.74745">
        <ele>167</ele>
        <time>2014-04-23T10:12:53.000Z</time>
      </trkpt>
      <trkpt lat="48.69804" lon="1.74759">
        <ele>167.19999694824</ele>
        <time>2014-04-23T10:13:00.000Z</time>
      </trkpt>
      <trkpt lat="48.69805" lon="1.74774">
        <ele>167</ele>
        <time>2014-04-23T10:13:07.000Z</time>
      </trkpt>
      <trkpt lat="48.69806" lon="1.74789">
        <ele>167.19999694824</ele>
        <time>2014-04-23T10:13:14.000Z</time>
      </trkpt>
      <trkpt lat="48.69809" lon="1.74794">
        <ele>167.39999389648</ele>
        <time>2014-04-23T10:13:17.000Z</time>
      </trkpt>
      <trkpt lat="48.69812" lon="1.74805">
        <ele>167.80000305176</ele>
        <time>2014-04-23T10:13:23.000Z</time>
      </trkpt>
      <trkpt lat="48.69816" lon="1.74819">
        <ele>168.19999694824</ele>
        <time>2014-04-23T10:13:30.000Z</time>
      </trkpt>
      <trkpt lat="48.69816" lon="1.74827">
        <ele>168</ele>
        <time>2014-04-23T10:13:34.000Z</time>
      </trkpt>
      <trkpt lat="48.69822" lon="1.74839">
        <ele>167.80000305176</ele>
        <time>2014-04-23T10:13:41.000Z</time>
      </trkpt>
      <trkpt lat="48.69823" lon="1.74844">
        <ele>167.80000305176</ele>
        <time>2014-04-23T10:13:44.000Z</time>
      </trkpt>
      <trkpt lat="48.69825" lon="1.74853">
        <ele>167.39999389648</ele>
        <time>2014-04-23T10:13:49.000Z</time>
      </trkpt>
      <trkpt lat="48.6983" lon="1.74864">
        <ele>167.19999694824</ele>
        <time>2014-04-23T10:13:55.000Z</time>
      </trkpt>
      <trkpt lat="48.69832" lon="1.74873">
        <ele>167</ele>
        <time>2014-04-23T10:14:00.000Z</time>
      </trkpt>
      <trkpt lat="48.69833" lon="1.74874">
        <ele>167</ele>
        <time>2014-04-23T10:14:03.000Z</time>
      </trkpt>
      <trkpt lat="48.69828" lon="1.74879">
        <ele>166.39999389648</ele>
        <time>2014-04-23T10:14:13.000Z</time>
      </trkpt>
      <trkpt lat="48.69818" lon="1.74883">
        <ele>166.39999389648</ele>
        <time>2014-04-23T10:14:19.000Z</time>
      </trkpt>
      <trkpt lat="48.69811" lon="1.74891">
        <ele>166.39999389648</ele>
        <time>2014-04-23T10:14:26.000Z</time>
      </trkpt>
      <trkpt lat="48.6981" lon="1.74906">
        <ele>166.60000610352</ele>
        <time>2014-04-23T10:14:32.000Z</time>
      </trkpt>
      <trkpt lat="48.69813" lon="1.74916">
        <ele>166.80000305176</ele>
        <time>2014-04-23T10:14:38.000Z</time>
      </trkpt>
      <trkpt lat="48.69815" lon="1.74926">
        <ele>167</ele>
        <time>2014-04-23T10:14:43.000Z</time>
      </trkpt>
      <trkpt lat="48.69816" lon="1.74936">
        <ele>167.39999389648</ele>
        <time>2014-04-23T10:14:49.000Z</time>
      </trkpt>
      <trkpt lat="48.69819" lon="1.7495">
        <ele>167.60000610352</ele>
        <time>2014-04-23T10:14:56.000Z</time>
      </trkpt>
      <trkpt lat="48.69822" lon="1.74963">
        <ele>167.80000305176</ele>
        <time>2014-04-23T10:15:02.000Z</time>
      </trkpt>
      <trkpt lat="48.69823" lon="1.74978">
        <ele>168</ele>
        <time>2014-04-23T10:15:08.000Z</time>
      </trkpt>
      <trkpt lat="48.69824" lon="1.74987">
        <ele>168</ele>
        <time>2014-04-23T10:15:12.000Z</time>
      </trkpt>
      <trkpt lat="48.69826" lon="1.75004">
        <ele>168.19999694824</ele>
        <time>2014-04-23T10:15:20.000Z</time>
      </trkpt>
      <trkpt lat="48.69831" lon="1.75017">
        <ele>168.60000610352</ele>
        <time>2014-04-23T10:15:27.000Z</time>
      </trkpt>
      <trkpt lat="48.69832" lon="1.75027">
        <ele>168.80000305176</ele>
        <time>2014-04-23T10:15:31.000Z</time>
      </trkpt>
      <trkpt lat="48.69833" lon="1.75037">
        <ele>168.80000305176</ele>
        <time>2014-04-23T10:15:36.000Z</time>
      </trkpt>
      <trkpt lat="48.69832" lon="1.75046">
        <ele>169</ele>
        <time>2014-04-23T10:15:41.000Z</time>
      </trkpt>
      <trkpt lat="48.69836" lon="1.75061">
        <ele>169.39999389648</ele>
        <time>2014-04-23T10:15:49.000Z</time>
      </trkpt>
      <trkpt lat="48.69838" lon="1.75069">
        <ele>169.60000610352</ele>
        <time>2014-04-23T10:15:53.000Z</time>
      </trkpt>
      <trkpt lat="48.69842" lon="1.75082">
        <ele>169.80000305176</ele>
        <time>2014-04-23T10:15:59.000Z</time>
      </trkpt>
      <trkpt lat="48.69846" lon="1.75097">
        <ele>169.80000305176</ele>
        <time>2014-04-23T10:16:07.000Z</time>
      </trkpt>
      <trkpt lat="48.69849" lon="1.7511">
        <ele>169.80000305176</ele>
        <time>2014-04-23T10:16:12.000Z</time>
      </trkpt>
      <trkpt lat="48.6985" lon="1.75127">
        <ele>170</ele>
        <time>2014-04-23T10:16:19.000Z</time>
      </trkpt>
      <trkpt lat="48.69851" lon="1.75133">
        <ele>170</ele>
        <time>2014-04-23T10:16:22.000Z</time>
      </trkpt>
      <trkpt lat="48.69852" lon="1.75151">
        <ele>170</ele>
        <time>2014-04-23T10:16:32.000Z</time>
      </trkpt>
      <trkpt lat="48.69855" lon="1.75164">
        <ele>170.39999389648</ele>
        <time>2014-04-23T10:16:38.000Z</time>
      </trkpt>
      <trkpt lat="48.69855" lon="1.75166">
        <ele>170.39999389648</ele>
        <time>2014-04-23T10:16:39.000Z</time>
      </trkpt>
      <trkpt lat="48.69857" lon="1.75177">
        <ele>171</ele>
        <time>2014-04-23T10:16:44.000Z</time>
      </trkpt>
      <trkpt lat="48.69859" lon="1.75187">
        <ele>171.19999694824</ele>
        <time>2014-04-23T10:16:49.000Z</time>
      </trkpt>
      <trkpt lat="48.69861" lon="1.75199">
        <ele>171.80000305176</ele>
        <time>2014-04-23T10:16:56.000Z</time>
      </trkpt>
      <trkpt lat="48.69863" lon="1.75211">
        <ele>172.19999694824</ele>
        <time>2014-04-23T10:17:02.000Z</time>
      </trkpt>
      <trkpt lat="48.69867" lon="1.75222">
        <ele>172.80000305176</ele>
        <time>2014-04-23T10:17:08.000Z</time>
      </trkpt>
      <trkpt lat="48.69868" lon="1.7524">
        <ele>173.19999694824</ele>
        <time>2014-04-23T10:17:16.000Z</time>
      </trkpt>
      <trkpt lat="48.6987" lon="1.75249">
        <ele>173.19999694824</ele>
        <time>2014-04-23T10:17:21.000Z</time>
      </trkpt>
      <trkpt lat="48.69872" lon="1.75261">
        <ele>173</ele>
        <time>2014-04-23T10:17:27.000Z</time>
      </trkpt>
      <trkpt lat="48.69873" lon="1.75265">
        <ele>173</ele>
        <time>2014-04-23T10:17:29.000Z</time>
      </trkpt>
      <trkpt lat="48.69875" lon="1.75272">
        <ele>172.80000305176</ele>
        <time>2014-04-23T10:17:33.000Z</time>
      </trkpt>
      <trkpt lat="48.69877" lon="1.75296">
        <ele>172.60000610352</ele>
        <time>2014-04-23T10:17:44.000Z</time>
      </trkpt>
      <trkpt lat="48.69879" lon="1.75309">
        <ele>172.39999389648</ele>
        <time>2014-04-23T10:17:50.000Z</time>
      </trkpt>
      <trkpt lat="48.6988" lon="1.75316">
        <ele>172.39999389648</ele>
        <time>2014-04-23T10:17:54.000Z</time>
      </trkpt>
      <trkpt lat="48.69882" lon="1.75332">
        <ele>172.19999694824</ele>
        <time>2014-04-23T10:18:01.000Z</time>
      </trkpt>
      <trkpt lat="48.69884" lon="1.75346">
        <ele>172</ele>
        <time>2014-04-23T10:18:08.000Z</time>
      </trkpt>
      <trkpt lat="48.69885" lon="1.75357">
        <ele>172</ele>
        <time>2014-04-23T10:18:13.000Z</time>
      </trkpt>
      <trkpt lat="48.69889" lon="1.75368">
        <ele>171.80000305176</ele>
        <time>2014-04-23T10:18:19.000Z</time>
      </trkpt>
      <trkpt lat="48.69897" lon="1.75376">
        <ele>171.80000305176</ele>
        <time>2014-04-23T10:18:26.000Z</time>
      </trkpt>
      <trkpt lat="48.69904" lon="1.75382">
        <ele>171.80000305176</ele>
        <time>2014-04-23T10:18:32.000Z</time>
      </trkpt>
      <trkpt lat="48.69911" lon="1.7538">
        <ele>172</ele>
        <time>2014-04-23T10:18:38.000Z</time>
      </trkpt>
      <trkpt lat="48.69912" lon="1.75379">
        <ele>172</ele>
        <time>2014-04-23T10:18:39.000Z</time>
      </trkpt>
      <trkpt lat="48.69921" lon="1.75375">
        <ele>172.19999694824</ele>
        <time>2014-04-23T10:18:45.000Z</time>
      </trkpt>
      <trkpt lat="48.69924" lon="1.75374">
        <ele>172.19999694824</ele>
        <time>2014-04-23T10:18:47.000Z</time>
      </trkpt>
      <trkpt lat="48.69929" lon="1.75371">
        <ele>172.39999389648</ele>
        <time>2014-04-23T10:18:51.000Z</time>
      </trkpt>
      <trkpt lat="48.69934" lon="1.75368">
        <ele>172.39999389648</ele>
        <time>2014-04-23T10:18:55.000Z</time>
      </trkpt>
      <trkpt lat="48.69942" lon="1.75364">
        <ele>172.19999694824</ele>
        <time>2014-04-23T10:19:02.000Z</time>
      </trkpt>
      <trkpt lat="48.69947" lon="1.75361">
        <ele>172</ele>
        <time>2014-04-23T10:19:07.000Z</time>
      </trkpt>
      <trkpt lat="48.69952" lon="1.75357">
        <ele>171.80000305176</ele>
        <time>2014-04-23T10:19:12.000Z</time>
      </trkpt>
      <trkpt lat="48.69957" lon="1.75353">
        <ele>171.60000610352</ele>
        <time>2014-04-23T10:19:16.000Z</time>
      </trkpt>
      <trkpt lat="48.69964" lon="1.7535">
        <ele>171.39999389648</ele>
        <time>2014-04-23T10:19:21.000Z</time>
      </trkpt>
      <trkpt lat="48.69969" lon="1.75341">
        <ele>171.60000610352</ele>
        <time>2014-04-23T10:19:28.000Z</time>
      </trkpt>
      <trkpt lat="48.69971" lon="1.75341">
        <ele>171.60000610352</ele>
        <time>2014-04-23T10:19:29.000Z</time>
      </trkpt>
      <trkpt lat="48.69986" lon="1.75338">
        <ele>171.60000610352</ele>
        <time>2014-04-23T10:19:36.000Z</time>
      </trkpt>
      <trkpt lat="48.69998" lon="1.75337">
        <ele>171.39999389648</ele>
        <time>2014-04-23T10:19:43.000Z</time>
      </trkpt>
      <trkpt lat="48.70001" lon="1.75337">
        <ele>171.39999389648</ele>
        <time>2014-04-23T10:19:47.000Z</time>
      </trkpt>
      <trkpt lat="48.70003" lon="1.75328">
        <ele>171.80000305176</ele>
        <time>2014-04-23T10:19:54.000Z</time>
      </trkpt>
      <trkpt lat="48.70008" lon="1.75324">
        <ele>172</ele>
        <time>2014-04-23T10:19:59.000Z</time>
      </trkpt>
      <trkpt lat="48.70015" lon="1.75322">
        <ele>172</ele>
        <time>2014-04-23T10:20:04.000Z</time>
      </trkpt>
      <trkpt lat="48.70024" lon="1.75322">
        <ele>172</ele>
        <time>2014-04-23T10:20:09.000Z</time>
      </trkpt>
      <trkpt lat="48.70034" lon="1.75319">
        <ele>172.19999694824</ele>
        <time>2014-04-23T10:20:16.000Z</time>
      </trkpt>
      <trkpt lat="48.70042" lon="1.75315">
        <ele>172.39999389648</ele>
        <time>2014-04-23T10:20:23.000Z</time>
      </trkpt>
      <trkpt lat="48.70043" lon="1.75314">
        <ele>172.39999389648</ele>
        <time>2014-04-23T10:20:24.000Z</time>
      </trkpt>
      <trkpt lat="48.70058" lon="1.7531">
        <ele>172.80000305176</ele>
        <time>2014-04-23T10:20:34.000Z</time>
      </trkpt>
      <trkpt lat="48.70067" lon="1.75308">
        <ele>172.80000305176</ele>
        <time>2014-04-23T10:20:41.000Z</time>
      </trkpt>
      <trkpt lat="48.70075" lon="1.75301">
        <ele>173.19999694824</ele>
        <time>2014-04-23T10:20:49.000Z</time>
      </trkpt>
      <trkpt lat="48.70078" lon="1.75296">
        <ele>173.19999694824</ele>
        <time>2014-04-23T10:20:53.000Z</time>
      </trkpt>
      <trkpt lat="48.7009" lon="1.75294">
        <ele>173.39999389648</ele>
        <time>2014-04-23T10:20:59.000Z</time>
      </trkpt>
      <trkpt lat="48.70099" lon="1.75289">
        <ele>173.80000305176</ele>
        <time>2014-04-23T10:21:04.000Z</time>
      </trkpt>
      <trkpt lat="48.70107" lon="1.75287">
        <ele>174</ele>
        <time>2014-04-23T10:21:10.000Z</time>
      </trkpt>
      <trkpt lat="48.70115" lon="1.75282">
        <ele>174.39999389648</ele>
        <time>2014-04-23T10:21:19.000Z</time>
      </trkpt>
      <trkpt lat="48.70119" lon="1.7528">
        <ele>174.60000610352</ele>
        <time>2014-04-23T10:21:22.000Z</time>
      </trkpt>
      <trkpt lat="48.70125" lon="1.75277">
        <ele>174.80000305176</ele>
        <time>2014-04-23T10:21:26.000Z</time>
      </trkpt>
      <trkpt lat="48.70128" lon="1.75273">
        <ele>175</ele>
        <time>2014-04-23T10:21:31.000Z</time>
      </trkpt>
      <trkpt lat="48.70129" lon="1.75272">
        <ele>175</ele>
        <time>2014-04-23T10:21:32.000Z</time>
      </trkpt>
      <trkpt lat="48.70138" lon="1.75269">
        <ele>175.39999389648</ele>
        <time>2014-04-23T10:21:39.000Z</time>
      </trkpt>
      <trkpt lat="48.70146" lon="1.75267">
        <ele>175.60000610352</ele>
        <time>2014-04-23T10:21:43.000Z</time>
      </trkpt>
      <trkpt lat="48.70149" lon="1.75267">
        <ele>175.60000610352</ele>
        <time>2014-04-23T10:21:46.000Z</time>
      </trkpt>
      <trkpt lat="48.70154" lon="1.75259">
        <ele>175.60000610352</ele>
        <time>2014-04-23T10:21:52.000Z</time>
      </trkpt>
      <trkpt lat="48.70156" lon="1.75256">
        <ele>175.60000610352</ele>
        <time>2014-04-23T10:21:55.000Z</time>
      </trkpt>
      <trkpt lat="48.70165" lon="1.75253">
        <ele>175.80000305176</ele>
        <time>2014-04-23T10:22:01.000Z</time>
      </trkpt>
      <trkpt lat="48.70177" lon="1.75248">
        <ele>175.80000305176</ele>
        <time>2014-04-23T10:22:09.000Z</time>
      </trkpt>
      <trkpt lat="48.70186" lon="1.75246">
        <ele>176</ele>
        <time>2014-04-23T10:22:15.000Z</time>
      </trkpt>
      <trkpt lat="48.70189" lon="1.75243">
        <ele>176</ele>
        <time>2014-04-23T10:22:18.000Z</time>
      </trkpt>
      <trkpt lat="48.70199" lon="1.75241">
        <ele>176.60000610352</ele>
        <time>2014-04-23T10:22:24.000Z</time>
      </trkpt>
      <trkpt lat="48.70203" lon="1.75237">
        <ele>176.80000305176</ele>
        <time>2014-04-23T10:22:28.000Z</time>
      </trkpt>
      <trkpt lat="48.70209" lon="1.75235">
        <ele>177</ele>
        <time>2014-04-23T10:22:32.000Z</time>
      </trkpt>
      <trkpt lat="48.7022" lon="1.75236">
        <ele>177.60000610352</ele>
        <time>2014-04-23T10:22:39.000Z</time>
      </trkpt>
      <trkpt lat="48.70229" lon="1.75241">
        <ele>178</ele>
        <time>2014-04-23T10:22:45.000Z</time>
      </trkpt>
      <trkpt lat="48.70232" lon="1.75243">
        <ele>178</ele>
        <time>2014-04-23T10:22:47.000Z</time>
      </trkpt>
      <trkpt lat="48.70242" lon="1.75247">
        <ele>178.60000610352</ele>
        <time>2014-04-23T10:22:53.000Z</time>
      </trkpt>
      <trkpt lat="48.70245" lon="1.75249">
        <ele>178.60000610352</ele>
        <time>2014-04-23T10:22:55.000Z</time>
      </trkpt>
      <trkpt lat="48.70253" lon="1.7526">
        <ele>179</ele>
        <time>2014-04-23T10:23:03.000Z</time>
      </trkpt>
      <trkpt lat="48.70259" lon="1.75265">
        <ele>179.19999694824</ele>
        <time>2014-04-23T10:23:08.000Z</time>
      </trkpt>
      <trkpt lat="48.70264" lon="1.75269">
        <ele>179.39999389648</ele>
        <time>2014-04-23T10:23:12.000Z</time>
      </trkpt>
      <trkpt lat="48.70273" lon="1.75276">
        <ele>179.60000610352</ele>
        <time>2014-04-23T10:23:19.000Z</time>
      </trkpt>
      <trkpt lat="48.70284" lon="1.75286">
        <ele>179.80000305176</ele>
        <time>2014-04-23T10:23:28.000Z</time>
      </trkpt>
      <trkpt lat="48.70291" lon="1.75289">
        <ele>179.80000305176</ele>
        <time>2014-04-23T10:23:35.000Z</time>
      </trkpt>
      <trkpt lat="48.70292" lon="1.7529">
        <ele>180</ele>
        <time>2014-04-23T10:23:36.000Z</time>
      </trkpt>
      <trkpt lat="48.70299" lon="1.753">
        <ele>180</ele>
        <time>2014-04-23T10:23:43.000Z</time>
      </trkpt>
      <trkpt lat="48.70301" lon="1.75303">
        <ele>180</ele>
        <time>2014-04-23T10:23:45.000Z</time>
      </trkpt>
      <trkpt lat="48.70306" lon="1.75313">
        <ele>180</ele>
        <time>2014-04-23T10:23:51.000Z</time>
      </trkpt>
      <trkpt lat="48.70307" lon="1.75321">
        <ele>179.80000305176</ele>
        <time>2014-04-23T10:23:55.000Z</time>
      </trkpt>
      <trkpt lat="48.70308" lon="1.75325">
        <ele>180</ele>
        <time>2014-04-23T10:24:00.000Z</time>
      </trkpt>
      <trkpt lat="48.70317" lon="1.75333">
        <ele>180.19999694824</ele>
        <time>2014-04-23T10:24:11.000Z</time>
      </trkpt>
      <trkpt lat="48.70318" lon="1.75335">
        <ele>180.19999694824</ele>
        <time>2014-04-23T10:24:13.000Z</time>
      </trkpt>
      <trkpt lat="48.70324" lon="1.75338">
        <ele>180.19999694824</ele>
        <time>2014-04-23T10:24:20.000Z</time>
      </trkpt>
      <trkpt lat="48.70333" lon="1.75345">
        <ele>180.60000610352</ele>
        <time>2014-04-23T10:24:26.000Z</time>
      </trkpt>
      <trkpt lat="48.70335" lon="1.75347">
        <ele>180.60000610352</ele>
        <time>2014-04-23T10:24:27.000Z</time>
      </trkpt>
      <trkpt lat="48.7034" lon="1.7535">
        <ele>180.60000610352</ele>
        <time>2014-04-23T10:24:31.000Z</time>
      </trkpt>
      <trkpt lat="48.70343" lon="1.75355">
        <ele>180.80000305176</ele>
        <time>2014-04-23T10:24:37.000Z</time>
      </trkpt>
      <trkpt lat="48.7035" lon="1.75361">
        <ele>181</ele>
        <time>2014-04-23T10:24:43.000Z</time>
      </trkpt>
      <trkpt lat="48.70352" lon="1.75363">
        <ele>181</ele>
        <time>2014-04-23T10:24:45.000Z</time>
      </trkpt>
      <trkpt lat="48.7036" lon="1.75374">
        <ele>181</ele>
        <time>2014-04-23T10:24:53.000Z</time>
      </trkpt>
      <trkpt lat="48.70366" lon="1.7538">
        <ele>181.19999694824</ele>
        <time>2014-04-23T10:24:59.000Z</time>
      </trkpt>
      <trkpt lat="48.70369" lon="1.75382">
        <ele>181.19999694824</ele>
        <time>2014-04-23T10:25:01.000Z</time>
      </trkpt>
      <trkpt lat="48.70378" lon="1.75391">
        <ele>181.19999694824</ele>
        <time>2014-04-23T10:25:09.000Z</time>
      </trkpt>
      <trkpt lat="48.70383" lon="1.75393">
        <ele>181.39999389648</ele>
        <time>2014-04-23T10:25:12.000Z</time>
      </trkpt>
      <trkpt lat="48.70392" lon="1.75397">
        <ele>181.39999389648</ele>
        <time>2014-04-23T10:25:19.000Z</time>
      </trkpt>
      <trkpt lat="48.70399" lon="1.75399">
        <ele>181.60000610352</ele>
        <time>2014-04-23T10:25:27.000Z</time>
      </trkpt>
      <trkpt lat="48.70407" lon="1.75408">
        <ele>181.80000305176</ele>
        <time>2014-04-23T10:25:34.000Z</time>
      </trkpt>
      <trkpt lat="48.70412" lon="1.75413">
        <ele>182</ele>
        <time>2014-04-23T10:25:39.000Z</time>
      </trkpt>
      <trkpt lat="48.70416" lon="1.75417">
        <ele>182</ele>
        <time>2014-04-23T10:25:43.000Z</time>
      </trkpt>
      <trkpt lat="48.70417" lon="1.75418">
        <ele>182</ele>
        <time>2014-04-23T10:25:46.000Z</time>
      </trkpt>
      <trkpt lat="48.70423" lon="1.75426">
        <ele>182.39999389648</ele>
        <time>2014-04-23T10:25:55.000Z</time>
      </trkpt>
      <trkpt lat="48.70428" lon="1.75429">
        <ele>182.39999389648</ele>
        <time>2014-04-23T10:25:59.000Z</time>
      </trkpt>
      <trkpt lat="48.70432" lon="1.75432">
        <ele>182.60000610352</ele>
        <time>2014-04-23T10:26:02.000Z</time>
      </trkpt>
      <trkpt lat="48.70438" lon="1.7544">
        <ele>182.80000305176</ele>
        <time>2014-04-23T10:26:08.000Z</time>
      </trkpt>
      <trkpt lat="48.70445" lon="1.75446">
        <ele>182.80000305176</ele>
        <time>2014-04-23T10:26:15.000Z</time>
      </trkpt>
      <trkpt lat="48.70447" lon="1.75447">
        <ele>182.60000610352</ele>
        <time>2014-04-23T10:26:16.000Z</time>
      </trkpt>
      <trkpt lat="48.7045" lon="1.75447">
        <ele>182.60000610352</ele>
        <time>2014-04-23T10:26:22.000Z</time>
      </trkpt>
      <trkpt lat="48.70458" lon="1.75454">
        <ele>182.39999389648</ele>
        <time>2014-04-23T10:27:25.000Z</time>
      </trkpt>
      <trkpt lat="48.70462" lon="1.75457">
        <ele>182.39999389648</ele>
        <time>2014-04-23T10:27:28.000Z</time>
      </trkpt>
      <trkpt lat="48.70467" lon="1.75461">
        <ele>182.19999694824</ele>
        <time>2014-04-23T10:27:32.000Z</time>
      </trkpt>
      <trkpt lat="48.70475" lon="1.75467">
        <ele>182.19999694824</ele>
        <time>2014-04-23T10:27:39.000Z</time>
      </trkpt>
      <trkpt lat="48.7048" lon="1.75475">
        <ele>182.19999694824</ele>
        <time>2014-04-23T10:27:44.000Z</time>
      </trkpt>
      <trkpt lat="48.70487" lon="1.75485">
        <ele>182.19999694824</ele>
        <time>2014-04-23T10:27:50.000Z</time>
      </trkpt>
      <trkpt lat="48.70494" lon="1.75493">
        <ele>182.19999694824</ele>
        <time>2014-04-23T10:27:56.000Z</time>
      </trkpt>
      <trkpt lat="48.70501" lon="1.75503">
        <ele>182.39999389648</ele>
        <time>2014-04-23T10:28:03.000Z</time>
      </trkpt>
      <trkpt lat="48.70505" lon="1.75508">
        <ele>182.60000610352</ele>
        <time>2014-04-23T10:28:08.000Z</time>
      </trkpt>
      <trkpt lat="48.70512" lon="1.75516">
        <ele>182.60000610352</ele>
        <time>2014-04-23T10:28:15.000Z</time>
      </trkpt>
      <trkpt lat="48.70521" lon="1.75524">
        <ele>182.80000305176</ele>
        <time>2014-04-23T10:28:22.000Z</time>
      </trkpt>
      <trkpt lat="48.70528" lon="1.75534">
        <ele>183</ele>
        <time>2014-04-23T10:28:29.000Z</time>
      </trkpt>
      <trkpt lat="48.70531" lon="1.75537">
        <ele>183.19999694824</ele>
        <time>2014-04-23T10:28:34.000Z</time>
      </trkpt>
      <trkpt lat="48.70537" lon="1.75542">
        <ele>183.19999694824</ele>
        <time>2014-04-23T10:28:41.000Z</time>
      </trkpt>
      <trkpt lat="48.70542" lon="1.75549">
        <ele>183.39999389648</ele>
        <time>2014-04-23T10:28:47.000Z</time>
      </trkpt>
      <trkpt lat="48.70547" lon="1.75555">
        <ele>183.60000610352</ele>
        <time>2014-04-23T10:28:52.000Z</time>
      </trkpt>
      <trkpt lat="48.70556" lon="1.75564">
        <ele>183.80000305176</ele>
        <time>2014-04-23T10:29:00.000Z</time>
      </trkpt>
      <trkpt lat="48.70558" lon="1.75565">
        <ele>183.80000305176</ele>
        <time>2014-04-23T10:29:01.000Z</time>
      </trkpt>
      <trkpt lat="48.70569" lon="1.75578">
        <ele>184</ele>
        <time>2014-04-23T10:29:11.000Z</time>
      </trkpt>
      <trkpt lat="48.70574" lon="1.75584">
        <ele>184</ele>
        <time>2014-04-23T10:29:15.000Z</time>
      </trkpt>
      <trkpt lat="48.70584" lon="1.75591">
        <ele>184</ele>
        <time>2014-04-23T10:29:21.000Z</time>
      </trkpt>
      <trkpt lat="48.70592" lon="1.75597">
        <ele>183.80000305176</ele>
        <time>2014-04-23T10:29:26.000Z</time>
      </trkpt>
      <trkpt lat="48.70594" lon="1.756">
        <ele>184</ele>
        <time>2014-04-23T10:29:28.000Z</time>
      </trkpt>
      <trkpt lat="48.70599" lon="1.75607">
        <ele>184</ele>
        <time>2014-04-23T10:29:32.000Z</time>
      </trkpt>
      <trkpt lat="48.70606" lon="1.75616">
        <ele>183.80000305176</ele>
        <time>2014-04-23T10:29:38.000Z</time>
      </trkpt>
      <trkpt lat="48.7061" lon="1.75625">
        <ele>183.60000610352</ele>
        <time>2014-04-23T10:29:44.000Z</time>
      </trkpt>
      <trkpt lat="48.70612" lon="1.75632">
        <ele>183.39999389648</ele>
        <time>2014-04-23T10:29:48.000Z</time>
      </trkpt>
      <trkpt lat="48.70617" lon="1.75638">
        <ele>183</ele>
        <time>2014-04-23T10:29:53.000Z</time>
      </trkpt>
      <trkpt lat="48.70622" lon="1.75641">
        <ele>182.60000610352</ele>
        <time>2014-04-23T10:30:00.000Z</time>
      </trkpt>
      <trkpt lat="48.70625" lon="1.75641">
        <ele>182.19999694824</ele>
        <time>2014-04-23T10:30:06.000Z</time>
      </trkpt>
      <trkpt lat="48.70635" lon="1.75647">
        <ele>181</ele>
        <time>2014-04-23T10:31:51.000Z</time>
      </trkpt>
      <trkpt lat="48.70639" lon="1.75638">
        <ele>180.39999389648</ele>
        <time>2014-04-23T10:31:54.000Z</time>
      </trkpt>
      <trkpt lat="48.70641" lon="1.75629">
        <ele>179.80000305176</ele>
        <time>2014-04-23T10:32:00.000Z</time>
      </trkpt>
      <trkpt lat="48.70643" lon="1.7562">
        <ele>179.39999389648</ele>
        <time>2014-04-23T10:32:05.000Z</time>
      </trkpt>
      <trkpt lat="48.70645" lon="1.75615">
        <ele>179.19999694824</ele>
        <time>2014-04-23T10:32:08.000Z</time>
      </trkpt>
      <trkpt lat="48.70648" lon="1.75608">
        <ele>178.80000305176</ele>
        <time>2014-04-23T10:32:13.000Z</time>
      </trkpt>
      <trkpt lat="48.7065" lon="1.756">
        <ele>178.60000610352</ele>
        <time>2014-04-23T10:32:18.000Z</time>
      </trkpt>
      <trkpt lat="48.70657" lon="1.75587">
        <ele>177.80000305176</ele>
        <time>2014-04-23T10:32:26.000Z</time>
      </trkpt>
      <trkpt lat="48.70663" lon="1.75571">
        <ele>177.19999694824</ele>
        <time>2014-04-23T10:32:36.000Z</time>
      </trkpt>
      <trkpt lat="48.70669" lon="1.75561">
        <ele>175.60000610352</ele>
        <time>2014-04-23T10:32:42.000Z</time>
      </trkpt>
      <trkpt lat="48.7067" lon="1.7556">
        <ele>175.39999389648</ele>
        <time>2014-04-23T10:32:43.000Z</time>
      </trkpt>
      <trkpt lat="48.70674" lon="1.7555">
        <ele>174.60000610352</ele>
        <time>2014-04-23T10:32:50.000Z</time>
      </trkpt>
      <trkpt lat="48.70677" lon="1.75544">
        <ele>174.39999389648</ele>
        <time>2014-04-23T10:32:55.000Z</time>
      </trkpt>
      <trkpt lat="48.70678" lon="1.75543">
        <ele>174.39999389648</ele>
        <time>2014-04-23T10:32:56.000Z</time>
      </trkpt>
      <trkpt lat="48.70682" lon="1.75532">
        <ele>174.19999694824</ele>
        <time>2014-04-23T10:33:03.000Z</time>
      </trkpt>
      <trkpt lat="48.70683" lon="1.7553">
        <ele>174</ele>
        <time>2014-04-23T10:33:04.000Z</time>
      </trkpt>
      <trkpt lat="48.70688" lon="1.75524">
        <ele>173.80000305176</ele>
        <time>2014-04-23T10:33:09.000Z</time>
      </trkpt>
      <trkpt lat="48.70689" lon="1.75518">
        <ele>173.60000610352</ele>
        <time>2014-04-23T10:33:15.000Z</time>
      </trkpt>
      <trkpt lat="48.70692" lon="1.75513">
        <ele>173.39999389648</ele>
        <time>2014-04-23T10:33:19.000Z</time>
      </trkpt>
      <trkpt lat="48.70694" lon="1.75505">
        <ele>173</ele>
        <time>2014-04-23T10:33:23.000Z</time>
      </trkpt>
      <trkpt lat="48.70697" lon="1.75496">
        <ele>172.80000305176</ele>
        <time>2014-04-23T10:33:29.000Z</time>
      </trkpt>
      <trkpt lat="48.70698" lon="1.75492">
        <ele>172.80000305176</ele>
        <time>2014-04-23T10:33:32.000Z</time>
      </trkpt>
      <trkpt lat="48.70698" lon="1.75483">
        <ele>172.60000610352</ele>
        <time>2014-04-23T10:33:41.000Z</time>
      </trkpt>
      <trkpt lat="48.70698" lon="1.75483">
        <ele>172.60000610352</ele>
        <time>2014-04-23T10:33:43.000Z</time>
      </trkpt>
      <trkpt lat="48.70708" lon="1.7546">
        <ele>171.80000305176</ele>
        <time>2014-04-23T10:34:43.000Z</time>
      </trkpt>
      <trkpt lat="48.70707" lon="1.75455">
        <ele>171.80000305176</ele>
        <time>2014-04-23T10:34:48.000Z</time>
      </trkpt>
      <trkpt lat="48.70691" lon="1.75442">
        <ele>171.80000305176</ele>
        <time>2014-04-23T10:36:06.000Z</time>
      </trkpt>
      <trkpt lat="48.70682" lon="1.75438">
        <ele>171.80000305176</ele>
        <time>2014-04-23T10:36:12.000Z</time>
      </trkpt>
      <trkpt lat="48.70681" lon="1.75438">
        <ele>171.80000305176</ele>
        <time>2014-04-23T10:36:14.000Z</time>
      </trkpt>
    </trkseg>
  </trk>
</gpx>